[[{"header":{"parameterUnit":"m.s-1","parameterCategory":1,"la1":31.0,"la2":29.5877,"lo1":-88.7671,"lo2":-86.6584,"dy":0.0162,"dx":0.0185,"nx":115,"ny":88,"refTime":"2023-03-21T12:00:00:Z","depth":0,"parameterNumber":2,"parameterNumberName":"U-component_of_WINDS"},"data":[0.0,0.0,0.0,0.0,0.0,0.0,0.0,0.0,0.0,0.0,0.0,0.0,0.0,0.0,0.0,0.0,0.0,0.0,0.0,0.0,0.0,0.0,0.0,0.0,0.0,0.0,0.0,0.0,0.0,0.0,0.0,0.0,0.0,0.0,0.0,0.0,0.0,0.0,0.0,0.0,0.0,0.0,0.0,0.0,0.0,0.0,0.0,0.0,0.0,0.0,0.0,0.0,0.0,0.0,0.0,0.0,0.0,0.0,0.0,0.0,0.0,0.0,0.0,0.0,0.0,0.0,0.0,0.0,0.0,0.0,0.0,0.0,0.0,0.0,0.0,0.0,0.0,0.0,0.0,0.0,0.0,0.0,0.0,0.0,0.0,0.0,0.0,0.0,0.0,0.0,0.0,0.0,0.0,0.0,0.0,0.0,0.0,0.0,0.0,0.0,0.0,0.0,0.0,0.0,0.0,0.0,0.0,0.0,0.0,0.0,0.0,0.0,0.0,0.0,0.0,0.0,0.0,0.0,0.0,0.0,0.0,0.0,0.0,0.0,0.0,0.0,0.0,0.0,0.0,0.0,0.0,0.0,0.0,0.0,0.0,0.0,0.0,0.0,0.0,0.0,0.0,0.0,0.0,0.0,0.0,0.0,0.0,0.0,0.0,0.0,0.0,0.0,0.0,0.0,0.0,0.0,0.0,0.0,0.0,0.0,0.0,0.0,0.0,0.0,0.0,0.0,0.0,0.0,0.0,0.0,0.0,0.0,0.0,0.0,0.0,0.0,0.0,0.0,0.0,0.0,0.0,0.0,0.0,0.0,0.0,0.0,0.0,0.0,0.0,0.0,0.0,0.0,0.0,0.0,0.0,0.0,0.0,0.0,0.0,0.0,0.0,0.0,0.0,0.0,0.0,0.0,0.0,0.0,0.0,0.0,0.0,0.0,0.0,0.0,0.0,0.0,0.0,0.0,0.0,0.0,0.0,0.0,0.0,0.0,0.0,0.0,0.0,0.0,0.0,0.0,0.0,0.0,0.0,0.0,0.0,0.0,0.0,0.0,0.0,0.0,0.0,0.0,0.0,0.0,0.0,0.0,0.0,0.0,0.0,0.0,0.0,0.0,0.0,0.0,0.0,0.0,0.0,0.0,0.0,0.0,0.0,0.0,0.0,0.0,0.0,0.0,0.0,0.0,0.0,0.0,0.0,0.0,0.0,0.0,0.0,0.0,0.0,0.0,0.0,0.0,0.0,0.0,0.0,0.0,0.0,0.0,0.0,0.0,0.0,0.0,0.0,0.0,0.0,0.0,0.0,0.0,0.0,0.0,0.0,0.0,0.0,0.0,0.0,0.0,0.0,0.0,0.0,0.0,0.0,0.0,0.0,0.0,0.0,0.0,0.0,0.0,0.0,0.0,0.0,0.0,0.0,0.0,0.0,0.0,0.0,0.0,0.0,0.0,0.0,0.0,0.0,0.0,0.0,0.0,0.0,0.0,0.0,0.0,0.0,0.0,0.0,0.0,0.0,0.0,0.0,0.0,0.0,0.0,0.0,0.0,0.0,0.0,0.0,0.0,0.0,0.0,0.0,0.0,0.0,0.0,0.0,0.0,0.0,0.0,0.0,0.0,0.0,0.0,0.0,0.0,0.0,0.0,0.0,0.0,0.0,0.0,0.0,0.0,0.0,0.0,0.0,0.0,0.0,0.0,0.0,0.0,0.0,0.0,0.0,0.0,0.0,0.0,0.0,0.0,0.0,0.0,0.0,0.0,0.0,0.0,0.0,0.0,0.0,0.0,0.0,0.0,0.0,0.0,0.0,0.0,0.0,0.0,0.0,0.0,0.0,0.0,0.0,0.0,0.0,0.0,0.0,0.0,0.0,0.0,0.0,0.0,0.0,0.0,0.0,0.0,0.0,0.0,0.0,0.0,0.0,0.0,0.0,0.0,0.0,0.0,0.0,0.0,0.0,0.0,0.0,0.0,0.0,0.0,0.0,0.0,0.0,0.0,0.0,0.0,0.0,0.0,0.0,0.0,0.0,0.0,0.0,0.0,0.0,0.0,0.0,0.0,0.0,0.0,0.0,0.0,0.0,0.0,0.0,0.0,0.0,0.0,0.0,0.0,0.0,0.0,0.0,0.0,0.0,0.0,0.0,0.0,0.0,0.0,0.0,0.0,0.0,0.0,0.0,0.0,0.0,0.0,0.0,0.0,0.0,0.0,0.0,0.0,0.0,0.0,0.0,0.0,0.0,0.0,0.0,0.0,0.0,0.0,0.0,0.0,0.0,0.0,0.0,0.0,0.0,0.0,0.0,0.0,0.0,0.0,0.0,0.0,0.0,0.0,0.0,0.0,0.0,0.0,0.0,0.0,0.0,0.0,0.0,0.0,0.0,0.0,0.0,0.0,0.0,0.0,0.0,0.0,0.0,0.0,0.0,0.0,0.0,0.0,0.0,0.0,0.0,0.0,0.0,0.0,0.0,0.0,0.0,0.0,0.0,0.0,0.0,0.0,0.0,0.0,0.0,0.0,0.0,0.0,0.0,0.0,0.0,0.0,0.0,0.0,0.0,0.0,0.0,0.0,0.0,0.0,0.0,0.0,0.0,0.0,0.0,0.0,0.0,0.0,0.0,0.0,0.0,0.0,0.0,0.0,0.0,0.0,0.0,0.0,0.0,0.0,0.0,0.0,0.0,0.0,0.0,0.0,0.0,0.0,0.0,0.0,0.0,0.0,0.0,0.0,0.0,0.0,0.0,0.0,0.0,0.0,0.0,0.0,0.0,0.0,0.0,0.0,0.0,0.0,0.0,0.0,0.0,0.0,0.0,0.0,0.0,0.0,0.0,0.0,0.0,0.0,0.0,0.0,0.0,0.0,0.0,0.0,0.0,0.0,0.0,0.0,0.0,0.0,0.0,0.0,0.0,0.0,0.0,0.0,0.0,0.0,0.0,0.0,0.0,0.0,0.0,0.0,0.0,0.0,0.0,0.0,0.0,0.0,0.0,0.0,0.0,0.0,0.0,0.0,0.0,0.0,0.0,0.0,0.0,0.0,0.0,0.0,0.0,0.0,0.0,0.0,0.0,0.0,0.0,0.0,0.0,0.0,0.0,0.0,0.0,0.0,0.0,0.0,0.0,0.0,0.0,0.0,0.0,0.0,0.0,0.0,0.0,0.0,0.0,0.0,0.0,0.0,0.0,0.0,0.0,0.0,0.0,0.0,0.0,0.0,0.0,0.0,0.0,0.0,0.0,0.0,0.0,0.0,0.0,0.0,0.0,0.0,0.0,0.0,0.0,0.0,0.0,0.0,0.0,0.0,0.0,0.0,0.0,0.0,0.0,0.0,0.0,0.0,0.0,0.0,0.0,0.0,0.0,0.0,0.0,0.0,0.0,0.0,0.0,0.0,0.0,0.0,0.0,0.0,0.0,0.0,0.0,0.0,0.0,0.0,0.0,0.0,0.0,0.0,0.0,0.0,0.0,0.0,0.0,0.0,0.0,0.0,0.0,0.0,0.0,0.0,0.0,0.0,0.0,0.0,0.0,0.0,0.0,0.0,0.0,0.0,0.0,0.0,0.0,0.0,0.0,0.0,0.0,0.0,0.0,0.0,0.0,0.0,0.0,0.0,0.0,0.0,0.0,0.0,0.0,0.0,0.0,0.0,0.0,0.0,0.0,0.0,0.0,0.0,0.0,0.0,0.0,0.0,0.0,0.0,0.0,0.0,0.0,0.0,0.0,0.0,0.0,0.0,0.0,0.0,0.0,0.0,0.0,0.0,0.0,0.0,0.0,0.0,0.0,0.0,0.0,0.0,0.0,0.0,0.0,0.0,0.0,0.0,0.0,0.0,0.0,0.0,0.0,0.0,0.0,0.0,0.0,0.0,0.0,0.0,0.0,0.0,0.0,0.0,0.0,0.0,0.0,0.0,0.0,0.0,0.0,0.0,0.0,0.0,0.0,0.0,0.0,0.0,0.0,0.0,0.0,0.0,0.0,0.0,0.0,0.0,0.0,0.0,0.0,0.0,0.0,0.0,0.0,0.0,0.0,0.0,0.0,0.0,0.0,0.0,0.0,0.0,0.0,0.0,0.0,0.0,0.0,0.0,0.0,0.0,0.0,0.0,0.0,0.0,0.0,0.0,0.0,0.0,0.0,0.0,0.0,0.0,0.0,0.0,0.0,0.0,0.0,0.0,0.0,0.0,0.0,0.0,0.0,0.0,0.0,0.0,0.0,0.0,0.0,0.0,0.0,0.0,0.0,0.0,0.0,0.0,0.0,0.0,-3.9843,0.0,0.0,0.0,0.0,0.0,0.0,0.0,0.0,0.0,0.0,0.0,0.0,0.0,0.0,0.0,0.0,0.0,0.0,0.0,0.0,0.0,0.0,0.0,0.0,0.0,0.0,0.0,0.0,0.0,0.0,0.0,0.0,0.0,0.0,0.0,0.0,0.0,0.0,0.0,0.0,0.0,0.0,0.0,0.0,0.0,0.0,0.0,0.0,0.0,0.0,0.0,0.0,0.0,0.0,0.0,0.0,0.0,0.0,0.0,0.0,0.0,0.0,0.0,0.0,0.0,0.0,0.0,0.0,0.0,0.0,0.0,0.0,0.0,0.0,0.0,0.0,0.0,0.0,0.0,0.0,0.0,0.0,0.0,0.0,0.0,0.0,0.0,0.0,0.0,0.0,0.0,0.0,0.0,0.0,0.0,0.0,0.0,0.0,0.0,0.0,0.0,0.0,0.0,0.0,0.0,0.0,0.0,0.0,0.0,0.0,-4.2978,-4.1933,-4.3455,-4.327,-4.1046,0.0,0.0,0.0,0.0,0.0,0.0,0.0,0.0,0.0,0.0,0.0,0.0,0.0,0.0,0.0,0.0,0.0,0.0,0.0,0.0,0.0,0.0,0.0,0.0,0.0,0.0,0.0,0.0,0.0,0.0,0.0,0.0,0.0,0.0,0.0,0.0,0.0,0.0,0.0,0.0,0.0,0.0,0.0,0.0,0.0,0.0,0.0,0.0,0.0,0.0,0.0,0.0,0.0,0.0,0.0,0.0,0.0,0.0,0.0,0.0,0.0,0.0,0.0,0.0,0.0,0.0,0.0,0.0,0.0,0.0,0.0,0.0,0.0,0.0,0.0,0.0,0.0,0.0,0.0,0.0,0.0,0.0,0.0,0.0,0.0,0.0,0.0,0.0,0.0,0.0,0.0,0.0,0.0,0.0,0.0,0.0,0.0,0.0,0.0,0.0,0.0,0.0,0.0,0.0,0.0,0.0,0.0,0.0,0.0,0.0,0.0,0.0,-4.5089,-4.4738,-4.2107,0.0,0.0,0.0,0.0,0.0,0.0,0.0,0.0,0.0,0.0,0.0,0.0,0.0,0.0,0.0,0.0,0.0,0.0,0.0,0.0,0.0,0.0,0.0,0.0,0.0,0.0,0.0,0.0,0.0,0.0,0.0,0.0,0.0,0.0,0.0,0.0,0.0,0.0,0.0,0.0,0.0,0.0,0.0,0.0,0.0,0.0,0.0,0.0,0.0,0.0,0.0,0.0,0.0,0.0,0.0,0.0,0.0,0.0,0.0,0.0,0.0,0.0,0.0,0.0,0.0,0.0,0.0,0.0,0.0,0.0,0.0,0.0,0.0,0.0,0.0,0.0,0.0,0.0,0.0,0.0,0.0,0.0,0.0,0.0,0.0,0.0,0.0,0.0,0.0,0.0,0.0,0.0,0.0,0.0,0.0,0.0,0.0,0.0,0.0,0.0,0.0,0.0,0.0,0.0,0.0,0.0,0.0,0.0,0.0,0.0,-4.373,-4.6655,-4.6184,0.0,-4.1959,0.0,0.0,0.0,0.0,0.0,0.0,0.0,0.0,0.0,0.0,0.0,0.0,0.0,0.0,0.0,0.0,0.0,0.0,0.0,0.0,0.0,0.0,0.0,0.0,0.0,0.0,0.0,0.0,0.0,0.0,0.0,0.0,0.0,0.0,0.0,0.0,0.0,0.0,0.0,0.0,0.0,0.0,0.0,0.0,0.0,0.0,0.0,0.0,0.0,0.0,0.0,0.0,0.0,0.0,0.0,0.0,0.0,0.0,0.0,0.0,0.0,0.0,0.0,0.0,0.0,0.0,0.0,0.0,0.0,0.0,0.0,0.0,0.0,0.0,0.0,0.0,0.0,0.0,0.0,0.0,0.0,0.0,0.0,0.0,0.0,0.0,0.0,0.0,0.0,0.0,0.0,0.0,0.0,0.0,0.0,0.0,0.0,0.0,0.0,0.0,0.0,0.0,0.0,0.0,0.0,0.0,0.0,0.0,0.0,0.0,-4.4248,-4.7129,-4.5815,-4.3492,0.0,0.0,0.0,0.0,0.0,0.0,0.0,0.0,0.0,0.0,0.0,0.0,0.0,0.0,0.0,0.0,0.0,0.0,0.0,0.0,0.0,0.0,0.0,0.0,0.0,0.0,0.0,0.0,0.0,0.0,0.0,0.0,0.0,0.0,0.0,0.0,0.0,0.0,0.0,0.0,0.0,0.0,0.0,0.0,0.0,0.0,0.0,0.0,0.0,0.0,0.0,0.0,0.0,0.0,0.0,0.0,0.0,0.0,0.0,0.0,0.0,0.0,0.0,0.0,0.0,0.0,0.0,0.0,0.0,0.0,0.0,0.0,0.0,0.0,0.0,0.0,0.0,0.0,0.0,0.0,0.0,0.0,0.0,0.0,0.0,0.0,0.0,0.0,0.0,0.0,0.0,0.0,0.0,0.0,0.0,0.0,0.0,0.0,0.0,0.0,0.0,0.0,0.0,0.0,0.0,0.0,0.0,0.0,0.0,0.0,-4.4103,-4.5328,-4.7656,-4.5662,-4.2923,-3.9709,0.0,0.0,0.0,0.0,0.0,0.0,0.0,0.0,0.0,0.0,0.0,0.0,0.0,0.0,0.0,0.0,0.0,0.0,0.0,0.0,0.0,0.0,0.0,0.0,0.0,0.0,0.0,0.0,0.0,0.0,0.0,0.0,0.0,0.0,0.0,0.0,0.0,0.0,0.0,0.0,0.0,0.0,0.0,0.0,0.0,0.0,0.0,0.0,0.0,0.0,0.0,0.0,0.0,0.0,0.0,0.0,0.0,0.0,0.0,0.0,0.0,0.0,0.0,0.0,0.0,0.0,0.0,0.0,0.0,0.0,0.0,0.0,0.0,0.0,0.0,0.0,0.0,0.0,0.0,0.0,0.0,0.0,0.0,0.0,0.0,0.0,0.0,0.0,0.0,0.0,0.0,0.0,0.0,0.0,0.0,0.0,0.0,0.0,0.0,0.0,0.0,0.0,0.0,0.0,0.0,0.0,0.0,0.0,-4.8753,-4.6975,-4.7096,-4.9461,-4.6194,-4.3354,0.0,0.0,0.0,0.0,0.0,0.0,0.0,0.0,0.0,0.0,0.0,0.0,0.0,0.0,0.0,0.0,0.0,0.0,0.0,0.0,0.0,0.0,0.0,0.0,0.0,0.0,0.0,0.0,0.0,0.0,0.0,0.0,0.0,0.0,0.0,0.0,0.0,0.0,0.0,0.0,0.0,0.0,0.0,0.0,0.0,0.0,0.0,0.0,0.0,0.0,0.0,0.0,0.0,0.0,0.0,0.0,0.0,0.0,0.0,0.0,0.0,0.0,0.0,0.0,0.0,0.0,0.0,0.0,0.0,0.0,0.0,0.0,0.0,0.0,0.0,0.0,0.0,0.0,0.0,0.0,0.0,0.0,0.0,0.0,0.0,0.0,0.0,0.0,0.0,0.0,0.0,0.0,0.0,0.0,0.0,0.0,0.0,0.0,0.0,0.0,0.0,0.0,0.0,0.0,0.0,0.0,0.0,0.0,0.0,-4.4602,-4.5959,-4.7375,-4.8774,-4.5275,-4.2861,0.0,0.0,0.0,0.0,0.0,0.0,0.0,0.0,0.0,0.0,0.0,0.0,0.0,0.0,0.0,0.0,0.0,0.0,0.0,0.0,0.0,0.0,0.0,0.0,0.0,0.0,0.0,0.0,0.0,0.0,0.0,0.0,0.0,0.0,0.0,0.0,0.0,0.0,0.0,0.0,0.0,0.0,0.0,0.0,0.0,0.0,0.0,0.0,0.0,0.0,0.0,0.0,0.0,0.0,0.0,0.0,0.0,0.0,0.0,0.0,0.0,0.0,0.0,0.0,0.0,0.0,0.0,0.0,0.0,0.0,0.0,0.0,0.0,0.0,0.0,0.0,0.0,0.0,0.0,0.0,0.0,0.0,0.0,0.0,0.0,0.0,0.0,0.0,0.0,0.0,0.0,0.0,0.0,0.0,0.0,0.0,0.0,0.0,0.0,0.0,0.0,0.0,0.0,0.0,0.0,0.0,0.0,0.0,0.0,-4.3626,0.0,-4.795,-4.7911,-4.4831,-4.2309,0.0,0.0,0.0,0.0,0.0,0.0,0.0,0.0,0.0,0.0,0.0,0.0,0.0,0.0,0.0,0.0,0.0,0.0,0.0,0.0,0.0,0.0,0.0,0.0,0.0,0.0,0.0,0.0,0.0,0.0,0.0,0.0,0.0,0.0,0.0,0.0,0.0,0.0,0.0,0.0,0.0,0.0,0.0,0.0,0.0,0.0,0.0,0.0,0.0,0.0,0.0,0.0,0.0,0.0,0.0,0.0,0.0,0.0,0.0,0.0,0.0,0.0,0.0,0.0,0.0,0.0,0.0,0.0,0.0,0.0,0.0,0.0,0.0,0.0,0.0,0.0,0.0,0.0,0.0,0.0,0.0,0.0,0.0,0.0,0.0,0.0,0.0,0.0,0.0,0.0,0.0,0.0,0.0,0.0,0.0,0.0,0.0,0.0,0.0,0.0,0.0,0.0,0.0,0.0,0.0,0.0,0.0,0.0,-4.2393,-4.6793,-4.8684,-4.8832,-4.7204,-4.5013,-4.1821,0.0,0.0,0.0,0.0,0.0,0.0,0.0,0.0,0.0,0.0,0.0,0.0,0.0,0.0,0.0,0.0,0.0,0.0,0.0,0.0,0.0,0.0,0.0,0.0,0.0,0.0,0.0,0.0,0.0,0.0,0.0,0.0,0.0,0.0,0.0,0.0,0.0,0.0,0.0,0.0,0.0,0.0,0.0,0.0,0.0,0.0,0.0,0.0,0.0,0.0,0.0,0.0,0.0,0.0,0.0,0.0,0.0,0.0,0.0,0.0,0.0,0.0,0.0,0.0,0.0,0.0,0.0,0.0,0.0,0.0,0.0,0.0,0.0,0.0,0.0,0.0,0.0,0.0,0.0,0.0,0.0,0.0,0.0,0.0,0.0,0.0,0.0,0.0,0.0,0.0,0.0,0.0,0.0,0.0,0.0,0.0,0.0,0.0,0.0,0.0,0.0,0.0,0.0,0.0,0.0,0.0,0.0,0.0,0.0,-4.4549,-4.6822,-4.8543,-4.9449,-4.516,-4.2655,0.0,0.0,0.0,0.0,0.0,0.0,0.0,0.0,0.0,0.0,0.0,0.0,0.0,0.0,0.0,0.0,0.0,0.0,0.0,0.0,0.0,0.0,0.0,0.0,0.0,0.0,0.0,0.0,0.0,0.0,0.0,0.0,0.0,0.0,0.0,0.0,0.0,0.0,0.0,0.0,0.0,0.0,0.0,0.0,0.0,0.0,0.0,0.0,0.0,0.0,0.0,0.0,0.0,0.0,0.0,0.0,0.0,0.0,0.0,0.0,0.0,0.0,0.0,0.0,0.0,0.0,0.0,0.0,0.0,0.0,0.0,0.0,0.0,0.0,0.0,0.0,0.0,0.0,0.0,0.0,0.0,0.0,0.0,0.0,0.0,0.0,0.0,0.0,0.0,0.0,0.0,0.0,0.0,0.0,0.0,0.0,0.0,0.0,0.0,0.0,0.0,0.0,0.0,0.0,0.0,0.0,0.0,0.0,0.0,-4.4928,-4.7291,-4.8984,-4.9779,-4.5875,-4.3494,-4.2801,0.0,0.0,0.0,0.0,0.0,0.0,0.0,0.0,0.0,0.0,0.0,0.0,0.0,0.0,0.0,0.0,0.0,0.0,0.0,0.0,0.0,0.0,0.0,0.0,0.0,0.0,0.0,0.0,0.0,0.0,0.0,0.0,0.0,0.0,0.0,0.0,0.0,0.0,0.0,0.0,0.0,0.0,0.0,0.0,0.0,0.0,0.0,0.0,0.0,0.0,0.0,0.0,0.0,0.0,0.0,0.0,0.0,0.0,0.0,0.0,0.0,0.0,0.0,0.0,0.0,0.0,0.0,0.0,0.0,0.0,0.0,0.0,0.0,0.0,0.0,0.0,0.0,0.0,0.0,0.0,0.0,0.0,0.0,0.0,0.0,0.0,0.0,0.0,0.0,0.0,0.0,0.0,0.0,0.0,0.0,0.0,0.0,0.0,0.0,0.0,0.0,0.0,0.0,0.0,0.0,0.0,0.0,0.0,-4.733,-4.9775,-5.019,-4.8451,-4.7044,-4.4372,0.0,0.0,0.0,0.0,0.0,0.0,0.0,0.0,0.0,0.0,0.0,0.0,0.0,0.0,0.0,0.0,0.0,0.0,0.0,0.0,0.0,0.0,0.0,0.0,0.0,0.0,0.0,0.0,0.0,0.0,0.0,0.0,0.0,0.0,0.0,0.0,0.0,0.0,0.0,0.0,0.0,0.0,0.0,0.0,0.0,0.0,0.0,0.0,0.0,0.0,0.0,0.0,0.0,0.0,0.0,0.0,0.0,0.0,0.0,0.0,0.0,0.0,0.0,0.0,0.0,0.0,0.0,0.0,0.0,0.0,0.0,0.0,0.0,0.0,0.0,0.0,0.0,0.0,0.0,0.0,0.0,0.0,0.0,0.0,0.0,0.0,0.0,0.0,0.0,0.0,0.0,0.0,0.0,0.0,0.0,0.0,0.0,0.0,0.0,0.0,0.0,0.0,0.0,0.0,0.0,0.0,0.0,0.0,0.0,-4.8963,-5.0849,-5.1517,-5.0856,-4.7732,-4.5192,0.0,0.0,0.0,0.0,0.0,0.0,0.0,0.0,0.0,0.0,0.0,0.0,0.0,0.0,0.0,0.0,0.0,0.0,0.0,0.0,0.0,0.0,0.0,0.0,0.0,0.0,0.0,0.0,0.0,0.0,0.0,0.0,0.0,0.0,0.0,0.0,0.0,0.0,0.0,0.0,0.0,0.0,0.0,0.0,0.0,0.0,0.0,0.0,0.0,0.0,0.0,0.0,0.0,0.0,0.0,0.0,0.0,0.0,0.0,0.0,0.0,0.0,0.0,0.0,0.0,0.0,0.0,0.0,0.0,0.0,0.0,0.0,0.0,0.0,0.0,0.0,0.0,0.0,0.0,0.0,0.0,0.0,0.0,0.0,0.0,0.0,0.0,0.0,0.0,0.0,0.0,0.0,0.0,0.0,0.0,0.0,0.0,0.0,0.0,0.0,0.0,0.0,0.0,0.0,0.0,0.0,0.0,0.0,-4.6601,-4.9644,-5.1327,-5.2078,-5.1914,-4.9636,-4.7063,0.0,0.0,0.0,0.0,0.0,0.0,0.0,0.0,0.0,0.0,0.0,0.0,0.0,0.0,0.0,0.0,0.0,0.0,0.0,0.0,0.0,0.0,0.0,0.0,0.0,0.0,0.0,0.0,0.0,0.0,0.0,0.0,0.0,0.0,0.0,0.0,0.0,0.0,0.0,0.0,0.0,0.0,0.0,0.0,0.0,0.0,0.0,0.0,0.0,0.0,0.0,0.0,0.0,0.0,0.0,0.0,0.0,0.0,0.0,0.0,0.0,0.0,0.0,0.0,0.0,0.0,0.0,0.0,0.0,0.0,0.0,0.0,0.0,0.0,0.0,0.0,0.0,0.0,0.0,0.0,0.0,0.0,0.0,0.0,0.0,0.0,0.0,0.0,0.0,0.0,0.0,0.0,0.0,0.0,0.0,0.0,0.0,0.0,0.0,0.0,0.0,0.0,0.0,0.0,0.0,0.0,0.0,0.0,-4.7104,-4.9654,-5.1297,-5.2064,-5.1895,-5.1594,-4.8955,0.0,0.0,0.0,0.0,0.0,0.0,0.0,0.0,0.0,0.0,0.0,0.0,0.0,0.0,0.0,0.0,0.0,0.0,0.0,0.0,0.0,0.0,0.0,0.0,0.0,0.0,0.0,0.0,0.0,0.0,0.0,0.0,0.0,0.0,0.0,0.0,0.0,0.0,0.0,0.0,0.0,0.0,0.0,0.0,0.0,0.0,0.0,0.0,0.0,0.0,0.0,0.0,0.0,0.0,0.0,0.0,0.0,0.0,0.0,0.0,0.0,0.0,0.0,0.0,0.0,0.0,0.0,0.0,0.0,0.0,0.0,0.0,0.0,0.0,0.0,0.0,0.0,0.0,0.0,0.0,0.0,0.0,0.0,0.0,0.0,0.0,0.0,0.0,0.0,0.0,0.0,0.0,0.0,0.0,0.0,0.0,0.0,0.0,0.0,0.0,0.0,0.0,0.0,0.0,0.0,0.0,0.0,0.0,-4.6405,-4.9615,-5.0642,-5.1373,-5.1875,-4.9434,-4.6961,0.0,0.0,0.0,0.0,0.0,0.0,0.0,0.0,0.0,0.0,0.0,0.0,0.0,0.0,0.0,0.0,0.0,0.0,0.0,0.0,0.0,0.0,0.0,0.0,0.0,0.0,0.0,0.0,0.0,0.0,0.0,0.0,0.0,0.0,0.0,0.0,0.0,0.0,0.0,0.0,0.0,0.0,0.0,0.0,0.0,0.0,0.0,0.0,-4.757,0.0,0.0,0.0,0.0,0.0,0.0,0.0,0.0,0.0,0.0,0.0,0.0,0.0,0.0,0.0,0.0,0.0,0.0,0.0,0.0,0.0,0.0,0.0,0.0,0.0,0.0,0.0,0.0,0.0,0.0,0.0,0.0,0.0,0.0,0.0,0.0,0.0,0.0,0.0,0.0,0.0,0.0,0.0,0.0,0.0,0.0,0.0,0.0,0.0,0.0,0.0,0.0,0.0,0.0,0.0,0.0,0.0,0.0,0.0,-4.6269,-4.8443,-4.9312,-5.0022,-5.0587,-4.8136,-4.6149,0.0,0.0,0.0,0.0,0.0,0.0,0.0,0.0,0.0,0.0,0.0,0.0,0.0,0.0,0.0,0.0,0.0,0.0,0.0,0.0,0.0,0.0,0.0,0.0,0.0,0.0,0.0,0.0,0.0,0.0,0.0,0.0,0.0,0.0,0.0,0.0,0.0,0.0,0.0,0.0,0.0,0.0,0.0,0.0,0.0,0.0,0.0,0.0,0.0,0.0,0.0,0.0,0.0,0.0,0.0,0.0,0.0,0.0,0.0,0.0,0.0,0.0,0.0,0.0,0.0,0.0,0.0,0.0,0.0,0.0,0.0,0.0,0.0,0.0,0.0,0.0,0.0,0.0,0.0,0.0,0.0,0.0,0.0,0.0,0.0,0.0,0.0,0.0,0.0,0.0,0.0,0.0,0.0,0.0,0.0,0.0,0.0,0.0,0.0,0.0,0.0,0.0,0.0,0.0,0.0,0.0,0.0,-4.3993,-4.5998,-4.7206,-4.7931,-4.8592,-4.917,-4.7322,-4.5884,-4.502,0.0,0.0,0.0,0.0,0.0,0.0,0.0,0.0,0.0,0.0,0.0,0.0,0.0,0.0,0.0,0.0,0.0,0.0,0.0,0.0,0.0,0.0,0.0,0.0,0.0,0.0,0.0,0.0,0.0,0.0,0.0,0.0,0.0,0.0,0.0,0.0,0.0,0.0,-4.0326,-4.4013,0.0,0.0,0.0,0.0,0.0,0.0,0.0,0.0,-4.8099,0.0,0.0,0.0,0.0,0.0,0.0,0.0,0.0,0.0,0.0,0.0,0.0,0.0,0.0,0.0,0.0,0.0,0.0,0.0,0.0,0.0,0.0,0.0,0.0,0.0,0.0,0.0,0.0,0.0,0.0,0.0,0.0,0.0,0.0,0.0,0.0,0.0,0.0,0.0,0.0,0.0,0.0,0.0,0.0,0.0,0.0,0.0,0.0,0.0,0.0,0.0,0.0,0.0,0.0,0.0,0.0,-4.2601,-4.2711,-4.4231,-4.7262,-4.74,-4.7759,-4.8411,-4.7069,-4.571,-4.4477,0.0,0.0,0.0,0.0,0.0,0.0,0.0,0.0,0.0,0.0,0.0,0.0,0.0,0.0,0.0,0.0,0.0,0.0,0.0,0.0,0.0,0.0,0.0,0.0,0.0,0.0,0.0,0.0,0.0,0.0,0.0,0.0,0.0,0.0,0.0,0.0,0.0,0.0,0.0,-4.725,-4.889,0.0,0.0,0.0,0.0,0.0,0.0,0.0,0.0,-4.8269,0.0,0.0,0.0,0.0,0.0,0.0,0.0,0.0,0.0,0.0,0.0,0.0,0.0,0.0,0.0,0.0,0.0,0.0,0.0,0.0,0.0,0.0,0.0,0.0,0.0,0.0,0.0,0.0,0.0,0.0,0.0,0.0,0.0,0.0,0.0,0.0,0.0,0.0,0.0,0.0,0.0,0.0,0.0,0.0,0.0,0.0,0.0,0.0,0.0,0.0,0.0,0.0,0.0,0.0,0.0,-4.1618,-4.3261,-4.4944,-4.6639,-4.6594,-4.6881,-4.7544,-4.5726,-4.46,0.0,0.0,0.0,0.0,0.0,0.0,0.0,0.0,0.0,0.0,0.0,0.0,0.0,0.0,0.0,0.0,0.0,0.0,0.0,0.0,0.0,0.0,0.0,0.0,0.0,0.0,0.0,0.0,0.0,0.0,0.0,0.0,0.0,0.0,0.0,0.0,0.0,0.0,0.0,0.0,-4.7772,-4.9,-4.9228,0.0,0.0,0.0,0.0,0.0,0.0,-4.8065,-4.774,0.0,0.0,0.0,0.0,0.0,0.0,0.0,0.0,0.0,0.0,0.0,0.0,0.0,0.0,0.0,0.0,0.0,0.0,0.0,0.0,0.0,0.0,0.0,0.0,0.0,0.0,0.0,0.0,0.0,0.0,0.0,0.0,0.0,0.0,0.0,0.0,0.0,0.0,0.0,0.0,0.0,0.0,0.0,0.0,0.0,0.0,0.0,0.0,0.0,0.0,0.0,0.0,0.0,0.0,0.0,-4.0459,-4.3535,-4.5453,-4.6062,-4.5991,-4.6197,-4.6762,-4.4833,-4.3923,0.0,0.0,0.0,0.0,0.0,0.0,0.0,0.0,0.0,0.0,0.0,0.0,0.0,0.0,0.0,0.0,0.0,0.0,0.0,0.0,0.0,0.0,0.0,0.0,0.0,0.0,0.0,0.0,0.0,0.0,0.0,0.0,0.0,0.0,0.0,0.0,0.0,0.0,0.0,0.0,0.0,-4.9046,-4.9202,-4.8735,0.0,0.0,0.0,0.0,-4.77,-4.8044,0.0,0.0,0.0,0.0,0.0,0.0,0.0,0.0,0.0,0.0,0.0,0.0,0.0,0.0,0.0,0.0,0.0,0.0,0.0,0.0,0.0,0.0,0.0,0.0,0.0,0.0,0.0,0.0,0.0,0.0,0.0,0.0,0.0,0.0,0.0,0.0,0.0,0.0,0.0,0.0,0.0,0.0,0.0,0.0,0.0,0.0,0.0,0.0,0.0,0.0,0.0,0.0,0.0,0.0,0.0,0.0,-3.9925,-4.1668,-4.3682,-4.5971,-4.6085,-4.6114,-4.6201,-4.5796,-4.4943,0.0,0.0,0.0,0.0,0.0,0.0,0.0,0.0,0.0,0.0,0.0,0.0,0.0,0.0,0.0,0.0,0.0,0.0,0.0,0.0,0.0,0.0,0.0,0.0,0.0,0.0,0.0,0.0,0.0,0.0,0.0,0.0,0.0,0.0,0.0,0.0,0.0,0.0,0.0,0.0,0.0,-5.0284,-4.8212,-4.8716,-4.9031,0.0,0.0,-4.9004,-4.9821,-5.0921,0.0,0.0,0.0,0.0,0.0,0.0,0.0,0.0,0.0,0.0,0.0,0.0,0.0,0.0,0.0,0.0,0.0,0.0,0.0,0.0,0.0,0.0,0.0,0.0,0.0,0.0,0.0,0.0,0.0,0.0,0.0,0.0,0.0,0.0,0.0,0.0,0.0,0.0,0.0,0.0,0.0,0.0,0.0,0.0,0.0,0.0,0.0,0.0,0.0,0.0,0.0,0.0,0.0,0.0,0.0,-3.821,-3.9896,-4.2267,-4.4308,-4.6011,-4.6015,-4.6018,-4.6091,-4.4632,-4.352,0.0,0.0,0.0,0.0,0.0,0.0,0.0,0.0,0.0,0.0,0.0,0.0,0.0,0.0,0.0,0.0,0.0,0.0,0.0,0.0,0.0,0.0,0.0,0.0,0.0,0.0,0.0,0.0,0.0,0.0,0.0,0.0,0.0,0.0,0.0,0.0,0.0,0.0,0.0,0.0,0.0,0.0,-4.7853,-4.8727,0.0,0.0,0.0,-4.8548,-4.8496,0.0,0.0,0.0,0.0,0.0,0.0,0.0,0.0,0.0,0.0,0.0,0.0,0.0,0.0,0.0,0.0,0.0,0.0,0.0,0.0,0.0,0.0,0.0,0.0,0.0,0.0,0.0,0.0,0.0,0.0,0.0,0.0,0.0,0.0,0.0,0.0,0.0,0.0,0.0,0.0,0.0,0.0,0.0,0.0,0.0,0.0,0.0,0.0,0.0,0.0,0.0,0.0,0.0,0.0,0.0,0.0,0.0,-3.9576,-4.2401,-4.4466,-4.5644,-4.5634,-4.5642,-4.57,-4.3883,0.0,0.0,0.0,0.0,0.0,0.0,0.0,0.0,0.0,0.0,0.0,0.0,0.0,0.0,0.0,0.0,0.0,0.0,0.0,0.0,0.0,0.0,0.0,0.0,0.0,0.0,0.0,-3.3821,0.0,0.0,0.0,0.0,0.0,0.0,0.0,0.0,0.0,0.0,0.0,0.0,0.0,0.0,-4.6871,-4.6799,-4.7911,-4.8615,0.0,0.0,-4.7935,-4.7331,-4.8251,-4.8071,0.0,0.0,0.0,0.0,0.0,0.0,0.0,0.0,0.0,0.0,0.0,0.0,0.0,0.0,0.0,0.0,0.0,0.0,0.0,0.0,0.0,0.0,0.0,0.0,0.0,0.0,0.0,0.0,0.0,0.0,0.0,0.0,0.0,0.0,0.0,0.0,0.0,0.0,0.0,0.0,0.0,0.0,0.0,0.0,0.0,0.0,0.0,0.0,0.0,0.0,0.0,0.0,0.0,0.0,0.0,-3.8647,-4.0939,-4.2954,-4.4548,-4.472,-4.4768,-4.4791,-4.4616,-4.3396,0.0,0.0,0.0,0.0,0.0,0.0,0.0,0.0,0.0,0.0,0.0,0.0,0.0,0.0,0.0,0.0,0.0,0.0,0.0,0.0,0.0,0.0,0.0,0.0,0.0,0.0,0.0,0.0,0.0,0.0,0.0,0.0,0.0,0.0,0.0,0.0,0.0,0.0,0.0,0.0,0.0,-4.4409,-4.4343,-4.5645,-4.7048,0.0,0.0,-4.794,-4.77,-4.9303,-4.9012,-4.4203,0.0,0.0,0.0,0.0,0.0,0.0,0.0,0.0,0.0,0.0,0.0,0.0,0.0,0.0,0.0,0.0,0.0,0.0,0.0,0.0,0.0,0.0,0.0,0.0,0.0,0.0,0.0,0.0,0.0,0.0,0.0,0.0,0.0,0.0,0.0,0.0,0.0,0.0,0.0,0.0,0.0,0.0,0.0,0.0,0.0,0.0,0.0,0.0,0.0,0.0,0.0,0.0,0.0,-3.6942,-3.8488,-4.0041,-4.1766,-4.3589,-4.3757,-4.3831,-4.3888,-4.3382,-4.2155,0.0,0.0,0.0,0.0,0.0,0.0,0.0,0.0,0.0,0.0,0.0,0.0,0.0,0.0,0.0,0.0,0.0,0.0,0.0,0.0,0.0,0.0,0.0,0.0,0.0,0.0,0.0,0.0,-3.3849,-3.3317,-3.2862,0.0,0.0,0.0,0.0,0.0,0.0,0.0,0.0,0.0,0.0,-4.3452,-4.3408,-4.4351,0.0,0.0,-4.576,-4.5629,-4.5562,-4.5838,-4.515,-4.2443,-4.1707,0.0,0.0,0.0,0.0,0.0,0.0,0.0,0.0,0.0,0.0,0.0,0.0,0.0,0.0,0.0,0.0,0.0,0.0,0.0,0.0,0.0,0.0,0.0,0.0,0.0,0.0,0.0,0.0,0.0,0.0,0.0,0.0,0.0,0.0,0.0,0.0,0.0,0.0,0.0,0.0,0.0,0.0,0.0,0.0,0.0,0.0,0.0,0.0,0.0,0.0,0.0,0.0,-3.6325,-3.7966,-3.9144,-4.0694,-4.2589,-4.2742,-4.2827,-4.2916,-4.2334,-4.1228,0.0,0.0,0.0,0.0,0.0,0.0,0.0,0.0,0.0,0.0,0.0,0.0,0.0,0.0,0.0,0.0,0.0,0.0,0.0,0.0,0.0,0.0,0.0,0.0,0.0,0.0,0.0,0.0,-3.3901,-3.3125,-3.228,0.0,0.0,0.0,0.0,0.0,0.0,0.0,0.0,0.0,0.0,-4.1777,-4.1778,-4.2649,-4.3345,-4.3535,-4.3775,-4.3905,-4.3855,-4.3218,-4.2245,-4.0887,0.0,0.0,0.0,0.0,0.0,0.0,0.0,0.0,0.0,0.0,0.0,0.0,0.0,0.0,0.0,0.0,0.0,0.0,0.0,0.0,0.0,0.0,0.0,0.0,0.0,0.0,0.0,0.0,0.0,0.0,-3.3882,0.0,0.0,0.0,0.0,0.0,0.0,0.0,0.0,0.0,0.0,0.0,0.0,0.0,0.0,0.0,0.0,0.0,0.0,0.0,0.0,0.0,0.0,-3.5876,-3.6746,-3.8186,-3.97,-4.1265,-4.1649,-4.1797,-4.1785,-4.1785,-4.0997,-3.933,0.0,0.0,0.0,0.0,0.0,0.0,0.0,0.0,0.0,0.0,0.0,0.0,0.0,0.0,0.0,0.0,0.0,0.0,0.0,0.0,0.0,0.0,0.0,0.0,0.0,0.0,-3.487,-3.2723,-3.1089,0.0,0.0,0.0,0.0,0.0,0.0,0.0,0.0,0.0,0.0,-3.7628,-3.9007,-3.9024,-4.0291,-4.145,-4.2008,-4.2755,-4.3195,-4.2957,-4.2333,-4.1354,0.0,0.0,0.0,0.0,0.0,0.0,0.0,0.0,0.0,0.0,0.0,0.0,0.0,0.0,0.0,0.0,0.0,0.0,0.0,0.0,0.0,0.0,0.0,0.0,0.0,0.0,0.0,-3.7592,-3.6702,0.0,0.0,0.0,0.0,0.0,0.0,0.0,0.0,0.0,0.0,0.0,-3.3664,-3.4798,0.0,0.0,0.0,0.0,0.0,0.0,0.0,0.0,0.0,0.0,0.0,0.0,-3.4857,-3.6634,-3.7183,-3.8079,-3.9313,-3.9464,-3.9535,-3.9535,-3.9535,-3.9258,-3.8658,0.0,0.0,0.0,0.0,0.0,0.0,0.0,0.0,0.0,0.0,0.0,0.0,0.0,0.0,0.0,0.0,0.0,0.0,0.0,0.0,0.0,0.0,0.0,0.0,0.0,-3.4728,0.0,0.0,0.0,0.0,0.0,0.0,0.0,0.0,0.0,0.0,0.0,-3.5286,-3.6233,-3.7412,-3.8173,-3.8155,-3.8628,-3.9015,0.0,0.0,0.0,0.0,0.0,0.0,0.0,0.0,0.0,0.0,0.0,0.0,0.0,0.0,-3.8317,-3.7876,-3.7021,-3.6501,-3.6946,0.0,0.0,0.0,0.0,0.0,0.0,0.0,0.0,0.0,0.0,0.0,0.0,0.0,0.0,0.0,0.0,-3.6778,0.0,0.0,0.0,0.0,0.0,0.0,0.0,0.0,-3.3888,-3.4187,-3.4152,-3.5105,-3.5086,0.0,-3.3963,-3.3893,0.0,0.0,0.0,0.0,0.0,0.0,0.0,0.0,-3.4187,-3.5809,-3.5983,-3.6609,-3.7753,-3.7758,-3.7732,-3.7732,-3.7851,-3.7848,-3.7631,-3.6893,-3.5923,0.0,0.0,0.0,0.0,0.0,0.0,0.0,0.0,0.0,0.0,0.0,0.0,0.0,0.0,0.0,0.0,0.0,0.0,0.0,0.0,0.0,0.0,0.0,-3.352,0.0,0.0,0.0,0.0,0.0,0.0,0.0,0.0,0.0,-3.3713,-3.4695,-3.549,-3.5866,-3.6778,-3.7279,-3.7041,0.0,0.0,0.0,0.0,0.0,0.0,0.0,-3.6287,-3.6598,-3.647,-3.6123,-3.5642,-3.5952,-3.6263,-3.6279,0.0,0.0,-3.7236,-3.6652,-3.6198,-3.6485,-3.6771,-3.6808,-3.6326,-3.6229,-3.6211,0.0,0.0,0.0,0.0,0.0,0.0,0.0,0.0,-3.6413,-3.5871,0.0,-3.5931,0.0,0.0,0.0,0.0,0.0,0.0,0.0,0.0,-3.3156,-3.4213,-3.5424,-3.5485,-3.554,-3.5676,-3.6214,-3.5491,-3.3569,-3.2046,0.0,0.0,0.0,0.0,0.0,0.0,-3.3819,-3.4375,-3.4662,-3.537,-3.6533,-3.6466,-3.6404,-3.6435,-3.6786,-3.6803,-3.6451,-3.711,-3.6656,-3.4847,-3.5164,0.0,0.0,0.0,0.0,0.0,0.0,0.0,0.0,0.0,0.0,0.0,0.0,0.0,0.0,0.0,0.0,0.0,0.0,0.0,0.0,-3.2116,0.0,0.0,0.0,0.0,0.0,0.0,0.0,0.0,0.0,0.0,-3.2071,-3.4642,-3.5972,-3.4554,0.0,0.0,0.0,0.0,-3.6136,-3.5224,-3.575,-3.623,-3.623,-3.5578,-3.5399,-3.6276,0.0,0.0,-3.5347,-3.5379,-3.5335,-3.5365,-3.5275,-3.5834,-3.7239,-3.6965,-3.6414,-3.5867,-3.5262,-3.4723,-3.4636,-3.4728,-3.4968,-3.7176,0.0,0.0,0.0,0.0,-3.5982,-3.5966,-3.6418,-3.5781,-3.5506,-3.5433,-3.5192,0.0,0.0,0.0,0.0,0.0,0.0,-3.1664,-3.2482,-3.2676,-3.3246,-3.4106,-3.4106,-3.4106,-3.4118,-3.3857,-3.347,-3.2821,-3.1426,-3.1405,-3.2652,0.0,0.0,0.0,0.0,-3.2844,-3.3834,-3.3981,-3.4199,-3.4544,-3.4524,-3.4526,-3.4586,-3.5683,-3.6275,-3.6178,-3.631,-3.6124,-3.5559,-3.4654,0.0,0.0,0.0,0.0,0.0,0.0,0.0,0.0,0.0,0.0,0.0,0.0,0.0,0.0,0.0,0.0,0.0,0.0,0.0,-3.0884,-3.006,-2.9962,0.0,0.0,0.0,0.0,0.0,0.0,0.0,0.0,0.0,-3.0597,-3.1399,-3.1936,0.0,0.0,-3.3092,-3.288,-3.3343,-3.3496,-3.2851,0.0,0.0,0.0,-3.2934,-3.3018,-3.3616,-3.3573,-3.3322,-3.2917,-3.2846,-3.2738,-3.2378,-3.2293,-3.2612,-3.3621,-3.5002,-3.5765,-3.5756,-3.5583,-3.5273,-3.4781,-3.4309,-3.4007,-3.5062,-3.6953,-3.5705,-3.5077,-3.4842,-3.4394,-3.4453,-3.4857,-3.4409,-3.4259,-3.4379,-3.3758,-3.297,-3.1989,-3.1109,0.0,0.0,0.0,-3.0416,-3.1529,-3.1836,-3.2356,-3.2992,-3.3331,-3.3215,-3.2676,-3.2288,-3.186,-3.1377,-3.0526,-3.0488,-3.1235,0.0,0.0,-3.1284,-3.1537,-3.1956,-3.2578,-3.2809,-3.3036,-3.3242,-3.3036,-3.3045,-3.3267,-3.4123,-3.4744,-3.5099,-3.5224,-3.5255,-3.5213,-3.424,-3.323,0.0,0.0,0.0,0.0,0.0,0.0,0.0,0.0,0.0,0.0,0.0,-3.0614,0.0,0.0,0.0,0.0,-2.8404,-2.8539,-2.8695,-2.8035,0.0,0.0,0.0,0.0,0.0,0.0,0.0,-2.7811,-2.8181,-2.8457,-2.8457,-2.8136,-2.8706,-3.0718,-3.1285,-3.1487,-3.1487,0.0,-3.173,-3.0978,-3.0902,-3.0902,-3.0902,-3.0902,-3.1129,-3.1854,-3.1958,-3.1848,-3.157,-3.1292,-3.1035,-3.0721,-3.0489,-3.0498,-3.0998,-3.2257,-3.3389,-3.3948,-3.3865,-3.3567,-3.3145,-3.2732,-3.2451,-3.2501,-3.4015,-3.343,-3.2891,-3.2514,-3.2486,-3.2486,-3.25,-3.2486,-3.2494,-3.2483,-3.1972,-3.0997,-2.9664,-2.8514,0.0,-2.9002,-2.8925,-2.926,-2.9961,-3.0668,-3.1343,-3.1982,-3.2707,-3.2437,-3.1203,-3.1188,-3.0546,-2.9403,-2.9286,-2.9231,-2.9187,-2.9817,-3.0199,-3.0443,-3.0849,-3.0983,-3.0799,-3.1263,-3.1792,-3.2298,-3.1915,-3.1885,-3.2305,-3.2282,-3.2648,-3.3422,-3.3852,-3.4057,-3.4012,-3.3697,-3.2949,-3.1677,0.0,0.0,0.0,0.0,0.0,0.0,0.0,0.0,0.0,0.0,0.0,0.0,0.0,0.0,0.0,-2.5672,0.0,-2.6095,-2.6134,0.0,0.0,0.0,-2.5632,-2.624,-2.6279,-2.6471,-2.6968,0.0,0.0,-2.5977,0.0,-2.6213,-3.0,-3.0563,-3.0604,-3.0612,-3.06,-3.0344,-2.9363,-2.9289,-2.9263,-2.9126,-2.9144,-2.951,-3.031,-3.0626,-3.0498,-3.0374,-3.0022,-2.9743,-2.9417,-2.9172,-2.8853,-2.8955,-2.8987,-2.9435,-3.0741,-3.0745,-3.0437,-3.0418,-3.0293,-3.0264,-3.181,-3.1486,-3.1318,-3.1368,-3.1536,-3.1523,-3.1536,-3.1536,-3.1536,-3.1703,-3.1944,-3.1315,-3.0356,-2.9132,-2.8185,-2.8241,-2.8957,-2.8312,-2.8444,-2.9241,-2.9432,-2.961,-2.9768,-2.9555,-2.928,-2.8983,-2.8518,-2.7926,-2.7268,-2.7223,-2.6984,-2.6548,-2.6677,-2.7736,-2.9544,-2.8775,-2.8806,-2.9762,-2.938,-2.9733,-3.0781,-3.0714,-3.0957,-3.1637,-3.1186,-3.131,-3.2034,-3.2189,-3.2255,-3.2194,-3.1638,-3.0882,-3.0021,-2.9624,0.0,0.0,0.0,0.0,0.0,0.0,0.0,0.0,0.0,-2.9037,-2.8037,0.0,-2.7594,0.0,-2.43,-2.456,-2.6176,-2.5423,0.0,0.0,-2.5918,-2.5245,-2.5453,-2.5301,-2.508,-2.479,-2.4975,-2.5116,-2.5116,-2.4949,-2.5158,-2.6168,-2.6633,-2.7046,-2.7485,-2.7937,-2.7949,-2.7394,-2.7542,-2.7494,-2.6778,-2.693,-2.7314,-2.7528,-2.7597,-2.742,-2.6956,-2.6755,-2.6439,-2.5639,-2.5373,-2.535,-2.5598,-2.5577,-2.5987,-2.6939,-2.8113,-2.8899,-2.8414,-2.7936,-2.7707,-3.116,-3.0595,-3.0357,-3.0393,-3.0558,-3.0595,-3.0558,-3.0558,-3.0582,-3.0544,-3.0459,-2.9648,-2.875,-2.7881,-2.7384,-2.7404,-2.7822,-2.7384,-2.7274,-2.7489,-2.7907,-2.7931,-2.7723,-2.7781,-2.7672,-2.7365,-2.68,-2.6343,-2.604,-2.5531,-2.5362,-2.5591,-2.5044,-2.5746,-2.7596,-2.7249,-2.7658,-2.898,-2.8911,-2.9204,-2.9854,-2.9892,-3.0261,-3.0959,-3.04,-3.0389,-3.1106,-3.0846,-3.0855,-3.1121,-3.0143,-2.9366,-2.8926,-2.7937,-2.6726,0.0,0.0,0.0,0.0,0.0,0.0,0.0,0.0,0.0,0.0,0.0,-2.6222,0.0,-2.3649,0.0,-2.4653,-2.3859,-2.3483,-2.3953,-2.3572,-2.3313,-2.3407,-2.3599,-2.359,-2.3288,-2.3514,-2.3584,-2.3376,-2.3339,-2.3439,-2.3622,-2.348,-2.3882,-2.5328,-2.5384,-2.5054,-2.5154,-2.5085,-2.5016,-2.4655,-2.5265,-2.5737,-2.5737,-2.5724,-2.5536,-2.4983,-2.4657,-2.4217,-2.3439,-2.305,-2.3039,-2.3484,-2.358,-2.3779,-2.4284,-2.5002,-2.5814,-2.6549,-2.6408,-2.6221,-3.057,-3.043,-2.9993,-2.9779,-2.9779,-2.9779,-2.9779,-2.9779,-2.9716,-2.9315,-2.8612,-2.7632,-2.6952,-2.6499,-2.6487,-2.6449,-2.6386,-2.6373,-2.6072,-2.5564,-2.6291,-2.6382,-2.5946,-2.6589,-2.6562,-2.5957,-2.5368,-2.5049,-2.4952,-2.3956,-2.4,-2.4997,-2.3978,-2.4036,-2.5186,-2.5682,-2.6611,-2.8114,-2.8973,-2.9414,-2.9414,-2.9414,-2.973,-3.0289,-2.9647,-2.9489,-2.9926,-2.9476,-2.9425,-2.9858,-2.8722,-2.7989,-2.7902,-2.6057,-2.4762,0.0,-2.3738,0.0,0.0,0.0,0.0,0.0,0.0,0.0,0.0,-2.4695,-2.4503,-2.4846,-2.3233,-2.224,-2.2504,-2.1953,-2.1086,-2.0002,-2.0482,-2.0944,-2.0986,-2.1602,-2.2023,-2.1935,-2.1906,-2.172,-2.132,-2.1228,-2.1398,-2.1728,-2.0936,-2.1182,-2.3308,-2.2857,-2.2339,-2.2982,-2.236,-2.2246,-2.2949,-2.3636,-2.4,-2.4133,-2.3976,-2.4028,-2.3728,-2.3142,-2.26,-2.218,-2.1757,-2.1642,-2.2179,-2.2287,-2.2337,-2.2366,-2.2207,-2.2734,-2.4437,-2.4878,-2.482,-3.0357,-2.9942,-2.9829,-2.9779,-2.9779,-2.9779,-2.9779,-2.9754,-2.9289,-2.8524,-2.7557,-2.6939,-2.66,-2.6487,-2.6487,-2.6223,-2.5762,-2.5749,-2.5473,-2.4938,-2.512,-2.5153,-2.5027,-2.4726,-2.4307,-2.3701,-2.3167,-2.2722,-2.2347,-2.2097,-2.2144,-2.2414,-2.2193,-2.2458,-2.3178,0.0,0.0,0.0,-2.8352,-2.9479,-2.9479,-2.9488,-2.9483,-2.9493,-2.8514,0.0,-2.7202,-2.712,-2.6883,-2.6393,-2.6116,0.0,0.0,0.0,0.0,0.0,0.0,0.0,0.0,0.0,0.0,0.0,-2.3794,-2.4042,-2.4544,-2.3918,-2.3584,-2.3657,-2.2301,-2.1416,-2.1475,-2.0454,-1.97,-1.9489,-2.0071,-2.0276,-1.9775,-2.0317,-2.0538,-1.9953,-1.9894,-1.9859,-1.9761,-1.9714,-1.9767,-1.9889,-1.9048,-1.8986,-2.0185,-2.0468,-2.0526,-2.0691,-2.0271,-2.024,-2.1156,-2.0849,-2.0894,-2.0974,-2.0682,-2.0884,-2.1716,-2.142,-2.1027,-2.0994,-2.0918,-2.0693,-2.0448,-2.0745,-2.0992,-2.0591,-2.0788,-2.1377,-2.2233,-2.2098,-2.1875,-3.0043,0.0,-2.9779,-2.9779,0.0,-2.9779,-2.9779,-2.9754,-2.9139,-2.831,-2.7278,-2.6738,-2.6487,-2.6474,-2.6197,-2.5875,-2.5586,-2.5335,-2.4921,-2.4418,-2.4418,-2.4268,-2.3948,-2.3672,-2.3246,-2.2681,-2.2171,-2.1788,-2.1576,-2.0992,-2.1059,-2.1697,-2.14,-2.1564,-2.219,-2.219,-2.2979,-2.4595,-2.6484,-2.7486,-2.7471,-2.7486,-2.7591,-2.7832,0.0,0.0,0.0,0.0,0.0,0.0,0.0,0.0,0.0,0.0,0.0,-2.3702,-2.3673,-2.3068,-2.1777,-2.2043,-2.1857,-2.0882,-2.1165,-2.1835,-2.2892,-2.2628,-2.2418,-2.242,-2.1445,-2.0653,-2.0173,-1.9257,-1.8395,-1.785,-1.8372,-1.8677,-1.8489,-1.9015,-1.9316,-1.8998,-1.8892,-1.8791,-1.8503,-1.8481,-1.8593,-1.8773,-1.7781,-1.7307,-1.814,-1.8384,-1.8405,-1.8436,-1.8646,-1.8859,-1.9284,-1.9454,-1.9338,-1.9726,-1.9549,-1.968,-2.0398,-2.0278,-2.0056,-2.0192,-2.0037,-1.9736,-1.9497,-1.9482,-1.9418,-1.9182,-1.9153,-1.9364,-1.9869,-2.0245,-2.0662,-2.9779,-2.9779,-2.9779,-2.9779,-2.9779,-2.9779,-2.9679,-2.9453,0.0,0.0,0.0,-2.6587,-2.6399,-2.6436,-2.5762,-2.546,-2.5423,-2.4921,-2.4381,-2.3841,-2.3841,-2.359,-2.3108,-2.3007,-2.2669,-2.2159,-2.1606,-2.1328,-2.1251,-2.0271,-2.032,-2.1232,-2.0856,-2.0881,-2.1393,-2.2027,-2.2639,-2.3279,-2.4668,-2.5467,-2.5591,-2.5591,-2.5798,-2.6196,-2.5577,-2.5438,-2.5787,-2.5339,-2.4983,-2.4844,-2.4165,-2.3764,-2.3759,-2.2942,-2.2255,-2.1849,-2.1604,-2.0756,-1.9239,-1.9112,-1.8958,-1.8532,-1.877,-1.9506,-2.0874,-2.1054,-2.1094,-2.098,-2.0308,-1.9529,-1.8736,-1.7918,-1.7,-1.589,-1.6481,-1.6979,-1.6979,-1.7683,-1.8089,-1.7992,-1.7889,-1.7731,-1.7158,-1.7065,-1.7241,-1.7411,-1.6418,-1.5842,-1.6563,-1.6587,-1.6482,-1.6633,-1.693,-1.7259,-1.7465,-1.7774,-1.8415,-1.8353,-1.8311,-1.8566,-1.9018,-1.908,-1.9155,-1.9445,-1.9121,-1.892,-1.8832,-1.8592,-1.8179,-1.8078,-1.7725,-1.7508,-1.7883,-1.8725,-1.9542,-2.9779,-2.9779,-2.9779,-2.9779,-2.9779,-2.9779,-2.9239,-2.836,-2.826,-2.7607,-2.6575,-2.5996,-2.5988,-2.6436,-2.5398,-2.4901,-2.4863,-2.4368,-2.3803,0.0,-2.3221,-2.3183,-2.3083,-2.2619,-2.2133,-2.1594,-2.1081,-2.0556,-2.0091,-1.99,-1.9914,-2.0042,-1.9978,-1.9991,-2.0105,-2.0679,-2.124,-2.1814,-2.4217,-2.573,-2.6243,-2.6257,-2.5969,-2.537,-2.4859,-2.4269,-2.3578,-2.3618,-2.3401,-2.2757,-2.2033,-2.1719,-2.1829,-2.0633,-2.0346,-2.1366,-2.0388,-1.9467,-1.9112,-1.9212,-1.9075,-1.8589,-1.7918,-1.792,-1.8817,-1.9344,-1.9424,-1.8954,-1.8285,-1.7604,-1.7045,-1.6007,-1.5139,-1.4606,-1.5406,-1.5842,-1.5337,-1.6149,-1.6555,-1.5982,-1.5848,-1.5726,-1.5391,-1.5282,-1.5217,-1.4874,-1.4784,-1.4486,-1.4728,-1.4859,-1.5186,-1.54,-1.5017,-1.4873,-1.5321,-1.4976,-1.5389,-1.568,-1.5415,-1.5822,-1.7387,-1.721,-1.7291,-1.8263,-1.8333,-1.8306,-1.8293,-1.8279,-1.7953,-1.7601,-1.7385,-1.7267,-1.6972,-1.7089,-1.7473,-2.9779,-2.9779,-2.9779,-2.9779,-2.9767,-2.9453,-2.8687,-2.7695,-2.7657,-2.7253,-2.6499,-2.621,-2.6084,-2.5912,-2.5172,-2.4657,-2.4343,-2.376,-2.3358,-2.312,-2.3095,-2.3095,-2.3058,-2.2556,-2.202,-2.1481,-2.0955,-2.0402,-1.9849,-1.9798,-1.9798,-1.9798,-1.9798,-1.9798,-1.9823,-2.0062,-2.049,-2.1069,-2.2577,-2.3593,-2.4173,-2.4171,-2.3882,-2.3225,-2.3237,-2.2976,-2.2263,-2.2311,-2.203,-2.1288,-2.0969,-2.0645,-2.032,-2.0047,-1.9802,-1.9615,-1.9448,-1.8683,-1.7198,-1.6725,-1.6374,-1.617,-1.5763,-1.5679,-1.6094,-1.7098,-1.7605,-1.7364,-1.6673,-1.613,-1.5891,-1.5002,-1.4355,-1.4124,-1.462,-1.4757,-1.4543,-1.4827,-1.5039,-1.4745,-1.4717,-1.4611,-1.4463,-1.4406,-1.4385,-1.4133,-1.4104,-1.4026,-1.3812,-1.3965,-1.4248,-1.4562,-1.4348,-1.4231,-1.4385,-1.425,-1.4264,-1.4588,-1.4334,-1.4694,-1.5927,-1.5825,-1.628,-1.7352,-1.747,-1.7414,-1.7647,-1.7466,-1.7212,-1.7049,-1.6923,-1.6751,-1.6563,-1.6513,-1.6808,-2.9779,-2.9779,-2.9779,-2.9779,-2.9741,-2.9139,-2.836,-2.7494,-2.7356,-2.7002,-2.6524,-2.6361,-2.6047,-2.5548,-2.4933,-2.4374,-2.3954,-2.3371,-2.3108,-2.3095,-2.3095,-2.3032,-2.2869,-2.2385,-2.1832,-2.1307,-2.0754,-2.0238,-1.9849,-1.9798,-1.9798,-1.9798,-1.9798,-1.9798,-1.9798,-1.9631,-1.9839,-2.0412,-2.0557,-2.1122,-2.2067,-2.2133,-2.1907,-2.1556,-2.1615,-2.1555,-2.1269,-2.0964,-2.0568,-2.0015,-1.9813,-1.9437,-1.8844,-1.8994,-1.869,-1.7784,-1.8132,-1.7545,-1.5544,-1.4478,-1.3958,-1.3968,-1.388,-1.3831,-1.3926,-1.4885,-1.57,-1.5764,-1.5336,-1.4935,-1.478,-1.4326,-1.3938,-1.3851,-1.3919,-1.3994,-1.3968,-1.4046,-1.4114,-1.4114,-1.4114,-1.4104,-1.3997,-1.3958,-1.3909,-1.3838,-1.3821,-1.3685,-1.3437,-1.3369,-1.3516,-1.373,-1.3821,-1.3792,-1.3821,-1.3828,-1.3799,-1.3821,-1.3818,-1.4138,-1.4704,-1.4887,-1.5311,-1.6311,-1.6327,-1.6311,-1.6776,-1.664,-1.6424,-1.6485,-1.6575,-1.6538,-1.6525,-1.6513,-1.6701,-2.9779,-2.9779,-2.9779,-2.9779,-2.9679,-2.9126,-2.8561,-2.7946,-2.7507,-2.7002,-2.6474,-2.5946,-2.5674,-2.546,-2.4544,-2.4079,-2.3929,-2.3358,-2.3095,-2.3095,-2.3095,-2.2832,-2.2368,-2.1832,-2.1307,-2.0779,-2.0188,-1.9886,-1.9811,-1.9823,-1.9811,-1.9798,-1.9798,-1.9785,-1.9695,-1.9123,-1.9084,-1.9677,-1.8536,-1.9124,-2.1437,-2.1568,-2.1543,-2.1493,-2.0409,-2.0061,-2.0397,-1.939,-1.8748,-1.8634,-1.8042,-1.7545,-1.7156,-1.6056,-1.5714,-1.6454,-1.5914,-1.5316,-1.507,-1.4156,-1.359,-1.3545,-1.3242,-1.3071,-1.3037,-1.3189,-1.3556,-1.4138,-1.4261,-1.4064,-1.3716,-1.359,-1.3437,-1.3164,-1.3369,-1.3564,-1.3603,-1.388,-1.4114,-1.4114,-1.4016,-1.3968,-1.3633,-1.3539,-1.3418,-1.3174,-1.3154,-1.3125,-1.3062,-1.3032,-1.3008,-1.3047,-1.3052,-1.3057,-1.3076,-1.3032,-1.3105,-1.3076,-1.3062,-1.3371,-1.3796,-1.3996,-1.42,-1.4983,-1.5027,-1.5188,-1.5651,-1.571,-1.5888,-1.6216,-1.6371,-1.6436,-1.6479,-1.6392,-1.6548,-2.9779,-2.9779,-2.9779,-2.9402,-2.8837,-2.8838,-2.8235,-2.719,-2.7291,-2.7014,-2.6512,-2.6235,-2.5749,-2.5089,-2.4669,-2.4098,-2.3489,-2.3208,-2.3095,-2.3095,-2.3095,-2.2819,-2.2268,-2.1744,-2.1192,-2.0679,-2.0101,-1.9798,-1.9861,-2.0137,-1.9941,-1.9275,-1.9492,-1.929,-1.8551,-1.8205,-1.8173,-1.8396,-1.7872,-1.8139,-1.9096,-1.9538,-1.9549,-1.9222,-1.9018,-1.8854,-1.8683,-1.7999,-1.74,-1.6994,-1.6415,-1.5852,-1.5309,-1.5118,-1.5046,-1.506,-1.4825,-1.4754,-1.4855,-1.4118,-1.3524,-1.3175,-1.3013,-1.2915,-1.2915,-1.2915,-1.3047,-1.3301,-1.3389,-1.3311,-1.3189,-1.3135,-1.3057,-1.2954,-1.3037,-1.3135,-1.3145,-1.3281,-1.3398,-1.3389,-1.3398,-1.335,-1.3208,-1.3135,-1.3066,-1.2935,-1.2915,-1.2915,-1.2915,-1.2915,-1.2915,-1.2915,-1.2915,-1.2915,-1.2915,-1.2915,-1.2915,-1.2915,-1.2915,-1.3065,-1.32,-1.3262,-1.3467,-1.4084,-1.4143,-1.4549,-1.5511,-1.5276,-1.5242,-1.57,-1.5589,-1.5433,-1.5456,-1.5421,-1.5565,-2.9779,-2.9779,-2.9779,-2.9327,-2.8599,-2.8775,-2.816,-2.7052,-2.7228,-2.7014,-2.6512,-2.6487,-2.5959,-2.5121,-2.5034,-2.4399,-2.3434,-2.3346,-2.3246,-2.312,-2.3095,-2.2688,-2.1964,-2.1551,-2.1098,-2.0566,-2.0116,-1.9858,-1.9823,-2.0293,-1.9888,-1.8854,-1.9057,-1.8767,-1.7857,-1.7529,-1.7302,-1.7285,-1.7107,-1.6985,-1.7078,-1.7427,-1.7636,-1.7617,-1.7823,-1.776,-1.7313,-1.6705,-1.617,-1.5645,-1.5147,-1.4701,-1.426,-1.4526,-1.4501,-1.4071,-1.3998,-1.4136,-1.4432,-1.3897,-1.3348,-1.2978,-1.2915,-1.2915,-1.2915,-1.2915,-1.2915,-1.2935,-1.2915,-1.2935,-1.2915,-1.2915,-1.2915,-1.2915,-1.2915,-1.2915,-1.2925,-1.2915,-1.2944,-1.2915,-1.2993,-1.2915,-1.2915,-1.2925,-1.2925,-1.2915,-1.2915,-1.2915,-1.2915,-1.2915,-1.2915,-1.2915,-1.2915,-1.2915,-1.2915,-1.2915,-1.2915,-1.2915,-1.2915,-1.2915,-1.2915,-1.2905,-1.292,-1.3515,-1.3552,-1.3849,-1.4584,-1.4618,-1.4652,-1.5039,-1.4994,-1.4686,-1.4869,-1.4744,-1.4721,-2.9779,-2.9779,-2.9779,-2.9691,-2.9654,-2.9088,-2.8537,-2.7833,-2.7469,-2.7014,-2.6524,-2.6487,-2.616,-2.5586,-2.5573,-2.4983,-2.4054,-2.3929,-2.3622,-2.3183,-2.312,-2.2364,-2.1081,-2.1003,-2.0748,-2.0397,-2.0232,-2.0005,-1.9686,-2.0027,-1.9558,-1.8384,-1.8406,-1.8326,-1.7981,-1.7052,-1.6549,-1.6482,-1.5979,-1.5584,-1.5546,-1.5604,-1.6296,-1.7285,-1.6955,-1.662,-1.644,-1.5497,-1.4905,-1.4849,-1.4388,-1.4184,-1.4295,-1.3887,-1.3666,-1.3755,-1.3333,-1.3254,-1.3708,-1.3358,-1.2992,-1.2905,-1.2915,-1.2915,-1.2915,-1.2915,-1.2915,-1.2915,-1.2915,-1.2915,-1.2915,-1.2915,-1.2915,-1.2915,-1.2915,-1.2915,-1.2915,-1.2915,-1.2915,-1.2915,-1.2915,-1.2915,-1.2915,-1.2915,-1.2915,-1.2881,-1.2881,-1.2881,-1.2881,-1.2905,-1.2832,-1.2891,-1.2915,-1.2915,-1.2915,-1.2915,-1.2915,-1.2915,-1.2915,-1.2915,-1.2915,-1.2915,-1.2954,-1.2954,-1.3065,-1.331,-1.3718,-1.398,-1.4167,-1.4399,-1.4514,-1.4433,-1.4247,-1.456,-1.4491,-2.9566,-2.9252,-2.9201,-2.9038,-2.8699,-2.8473,-2.8084,-2.757,-2.7381,-2.7002,-2.6549,-2.6487,-2.6373,-2.6185,-2.6185,-2.5581,-2.4544,-2.4167,-2.3879,-2.364,-2.3283,-2.2658,-2.1854,-2.1278,-2.1043,-2.0982,-2.0469,-2.0143,-2.0077,-2.0475,-1.9762,-1.8278,-1.8064,-1.7745,-1.6904,-1.6172,-1.5806,-1.5777,-1.5497,-1.542,-1.542,-1.542,-1.569,-1.613,-1.595,-1.5806,-1.5806,-1.4857,-1.4348,-1.4365,-1.3721,-1.3352,-1.3401,-1.3244,-1.3312,-1.3716,-1.36,-1.3576,-1.3721,-1.36,-1.33,-1.2954,-1.2915,-1.2915,-1.2915,-1.2915,-1.2915,-1.2915,-1.2915,-1.2915,-1.2915,-1.2915,-1.2915,-1.2915,-1.2915,-1.2915,-1.2915,-1.2915,-1.2915,-1.2915,-1.2915,-1.2915,-1.2915,-1.2915,-1.2915,-1.2881,-1.2501,-1.2452,-1.2715,-1.251,-1.2369,-1.2774,-1.2915,-1.2915,-1.2915,-1.2915,-1.2915,-1.2915,-1.2915,-1.2915,-1.2915,-1.2915,-1.2929,-1.2929,-1.2915,-1.3089,-1.3552,-1.3708,-1.3849,-1.3586,-1.3705,-1.3823,-1.3549,-1.38,-1.3729,-2.9289,-2.8888,-2.87,-2.8512,-2.8335,-2.7984,-2.7733,-2.7494,-2.7203,-2.6839,-2.6537,-2.6487,-2.6487,-2.6487,-2.6487,-2.6135,-2.5322,-2.4782,-2.4343,-2.3979,-2.359,-2.2962,-2.2179,-2.1572,-2.1392,-2.1525,-2.1055,-2.0458,-1.9805,-2.0209,-1.9465,-1.7769,-1.7626,-1.7174,-1.6322,-1.5683,-1.542,-1.542,-1.542,-1.542,-1.542,-1.542,-1.542,-1.542,-1.542,-1.542,-1.5391,-1.4562,-1.4114,-1.4007,-1.334,-1.2915,-1.2915,-1.3089,-1.3286,-1.3481,-1.3505,-1.3505,-1.3505,-1.3505,-1.3334,-1.2954,-1.2915,-1.2915,-1.2915,-1.2915,-1.2915,-1.2915,-1.2915,-1.2915,-1.2915,-1.2915,-1.2915,-1.2915,-1.2915,-1.2915,-1.2915,-1.2915,-1.2915,-1.2915,-1.2915,-1.2915,-1.2881,-1.2666,-1.2691,-1.2822,-1.2113,-1.1807,-1.227,-1.2187,-1.1922,-1.2442,-1.2749,-1.2856,-1.2915,-1.2881,-1.2856,-1.2856,-1.2915,-1.2915,-1.2915,-1.2915,-1.2915,-1.2915,-1.3002,-1.3142,-1.33,-1.3467,-1.3286,-1.2978,-1.3075,-1.3248,-1.3089,-1.3002,-1.3089,-2.8913,-2.8775,-2.8335,-2.8349,-2.8499,-2.7682,-2.7582,-2.777,-2.6977,-2.6537,-2.6487,-2.6487,-2.6487,-2.6487,-2.6487,-2.6449,-2.626,-2.5749,-2.4956,-2.4079,-2.3898,-2.3101,-2.1889,-2.162,-2.1534,-2.163,-2.1775,-2.0677,-1.8935,-1.9221,-1.8764,-1.7582,-1.702,-1.6794,-1.6677,-1.5839,-1.542,-1.542,-1.542,-1.542,-1.542,-1.542,-1.542,-1.542,-1.542,-1.542,-1.54,-1.4562,-1.4114,-1.4016,-1.333,-1.2925,-1.3017,-1.3372,-1.3481,-1.3104,-1.2978,-1.2929,-1.2954,-1.2954,-1.3002,-1.2915,-1.2915,-1.2915,-1.2915,-1.2915,-1.2915,-1.2915,-1.2915,-1.2915,-1.2915,-1.2915,-1.2915,-1.2915,-1.2915,-1.2915,-1.2915,-1.2915,-1.2915,-1.2915,-1.2915,-1.2915,-1.2774,-1.2452,-1.2369,-1.2559,-1.1882,-1.1266,-1.1848,-1.1873,-1.1823,-1.1972,-1.2427,-1.2832,-1.2881,-1.2881,-1.2822,-1.2798,-1.2881,-1.2915,-1.2915,-1.2915,-1.2915,-1.2915,-1.2915,-1.3041,-1.3065,-1.3176,-1.3138,-1.2915,-1.2915,-1.2915,-1.2915,-1.2915,-1.2915,-2.9076,-2.8373,-2.8185,-2.7984,-2.772,-2.7052,-2.7065,-2.748,-2.6788,-2.6487,-2.6487,-2.6487,-2.6487,-2.6487,-2.6487,-2.6487,-2.6474,-2.6239,-2.5484,-2.419,-2.3454,-2.2547,-2.1463,-2.0542,-2.0107,-2.0247,-2.0751,-2.0363,-1.9316,-1.9203,-1.8752,-1.7872,-1.7048,-1.6716,-1.6648,-1.5879,-1.542,-1.542,-1.542,-1.542,-1.542,-1.542,-1.542,-1.542,-1.542,-1.542,-1.5371,-1.4562,-1.4133,-1.4104,-1.333,-1.3089,-1.3396,-1.3286,-1.332,-1.3457,-1.3104,-1.2915,-1.2915,-1.2929,-1.2954,-1.2939,-1.2939,-1.2915,-1.2915,-1.2929,-1.2929,-1.2929,-1.2915,-1.2915,-1.2915,-1.2915,-1.2915,-1.2915,-1.2915,-1.2915,-1.2915,-1.2915,-1.2915,-1.2915,-1.2915,-1.2915,-1.2881,-1.2584,-1.2559,-1.274,-1.2039,-1.1566,-1.174,-1.1814,-1.1814,-1.1864,-1.2403,-1.2666,-1.2476,-1.2295,-1.2197,-1.2172,-1.2289,-1.2446,-1.2544,-1.2749,-1.2774,-1.2915,-1.2915,-1.2915,-1.2915,-1.2915,-1.2915,-1.2915,-1.2915,-1.2915,-1.2915,-1.2915,-1.2915,-2.8875,-2.8386,-2.7971,-2.7733,-2.7519,-2.7027,-2.6989,-2.7203,-2.6738,-2.6487,-2.6487,-2.6487,-2.6487,-2.6487,-2.6487,-2.6487,-2.6487,-2.6487,-2.5585,-2.4096,-2.3368,-2.2362,-2.1241,-2.026,-1.9562,-1.9398,-1.9846,-1.965,-1.8844,-1.8787,-1.8519,-1.7929,-1.7116,-1.6697,-1.6619,-1.5839,-1.542,-1.542,-1.542,-1.542,-1.542,-1.542,-1.542,-1.542,-1.542,-1.5332,-1.5146,-1.4475,-1.4114,-1.3968,-1.333,-1.3133,-1.3396,-1.3104,-1.3065,-1.331,-1.3358,-1.3262,-1.3248,-1.3491,-1.3563,-1.3573,-1.3573,-1.3597,-1.3549,-1.343,-1.3238,-1.3248,-1.3041,-1.2915,-1.2915,-1.2915,-1.2915,-1.2915,-1.2915,-1.2915,-1.2915,-1.2915,-1.2915,-1.2915,-1.2915,-1.2915,-1.2905,-1.2584,-1.2666,-1.2691,-1.2039,-1.1591,-1.169,-1.1814,-1.1789,-1.1922,-1.2452,-1.2403,-1.1947,-1.1715,-1.1541,-1.1525,-1.1534,-1.1667,-1.1792,-1.2172,-1.2369,-1.2774,-1.2915,-1.2915,-1.2915,-1.2915,-1.2915,-1.2915,-1.2915,-1.2915,-1.2915,-1.2915,-1.2915,-2.8499,-2.8725,-2.7833,-2.772,-2.7984,-2.7544,-2.7356,-2.7268,-2.6889,-2.6663,-2.66,-2.6612,-2.6549,-2.6512,-2.6487,-2.6487,-2.6487,-2.6487,-2.5569,-2.4142,-2.3375,-2.2465,-2.0863,-2.0194,-1.9628,-1.921,-1.9199,-1.8821,-1.8202,-1.8134,-1.8008,-1.792,-1.7213,-1.6746,-1.6638,-1.5878,-1.5498,-1.5518,-1.5449,-1.542,-1.542,-1.542,-1.542,-1.542,-1.541,-1.5264,-1.4932,-1.4515,-1.4155,-1.3938,-1.3252,-1.2968,-1.3002,-1.2929,-1.2929,-1.3089,-1.3481,-1.3566,-1.3815,-1.4037,-1.4376,-1.4363,-1.4456,-1.4709,-1.4479,-1.4084,-1.3802,-1.3684,-1.331,-1.2978,-1.2954,-1.2915,-1.2915,-1.2915,-1.2915,-1.2915,-1.2915,-1.2915,-1.2915,-1.2915,-1.2915,-1.2915,-1.2881,-1.2378,-1.2418,-1.2476,-1.1832,-1.1466,-1.1441,-1.1566,-1.1641,-1.1823,-1.1965,-1.1783,-1.1216,-1.104,-1.0813,-1.0415,-1.055,-1.0847,-1.125,-1.1724,-1.2236,-1.2642,-1.2915,-1.2915,-1.2915,-1.2915,-1.2915,-1.2915,-1.2915,-1.2915,-1.2915,-1.2915,-1.2915,-2.9189,-2.8863,-2.8574,-2.8348,-2.8122,-2.7934,-2.7883,-2.7871,-2.772,-2.7344,-2.7165,-2.7102,-2.6826,-2.6512,-2.6487,-2.6487,-2.6487,-2.6487,-2.5873,-2.4578,-2.3453,-2.1629,-1.9654,-1.89,-1.863,-1.8405,-1.8428,-1.8202,-1.8008,-1.8008,-1.8008,-1.7988,-1.7471,-1.7187,-1.7112,-1.6339,-1.5958,-1.587,-1.5547,-1.542,-1.542,-1.542,-1.542,-1.542,-1.5449,-1.5371,-1.5233,-1.4985,-1.425,-1.3277,-1.3052,-1.3138,-1.342,-1.3128,-1.3065,-1.3372,-1.3262,-1.3176,-1.331,-1.3779,-1.4073,-1.4073,-1.456,-1.4709,-1.4709,-1.456,-1.4236,-1.3933,-1.3624,-1.3358,-1.3017,-1.2915,-1.2915,-1.2915,-1.2915,-1.2915,-1.2915,-1.2915,-1.2915,-1.2915,-1.2915,-1.2915,-1.2856,-1.2749,-1.2632,-1.2666,-1.2147,-1.1391,-1.1391,-1.1166,-1.1182,-1.0762,-1.072,-1.0669,-1.0517,-1.0346,-0.9994,-0.9413,-0.9517,-0.9994,-1.0669,-1.15,-1.2123,-1.27,-1.2856,-1.2915,-1.2915,-1.2915,-1.2915,-1.2915,-1.2915,-1.2915,-1.2915,-1.2915,-1.2915,-2.9365,-2.9264,-2.9001,-2.8712,-2.8461,-2.8448,-2.8323,-2.8084,-2.7846,-2.7595,-2.7316,-2.7065,-2.6801,-2.6512,-2.6487,-2.6487,-2.6487,-2.6487,-2.5955,-2.4803,-2.3118,-2.0948,-1.9058,-1.8325,-1.8149,-1.8018,-1.8018,-1.8008,-1.8008,-1.8008,-1.8008,-1.793,-1.7598,-1.7425,-1.7328,-1.6564,-1.6135,-1.6016,-1.5644,-1.542,-1.542,-1.542,-1.5633,-1.5748,-1.5853,-1.5828,-1.5722,-1.5456,-1.4534,-1.3346,-1.3128,-1.3348,-1.3338,-1.3104,-1.3089,-1.3386,-1.3286,-1.3406,-1.3718,-1.4213,-1.4526,-1.4618,-1.4915,-1.488,-1.4721,-1.4491,-1.4097,-1.3862,-1.3589,-1.3262,-1.3017,-1.2915,-1.2915,-1.2915,-1.2915,-1.2915,-1.2915,-1.2915,-1.2915,-1.2915,-1.2915,-1.2915,-1.2915,-1.2915,-1.2915,-1.2774,-1.2261,-1.1724,-1.1391,-1.1007,-1.0712,-1.0466,-1.0287,-1.0389,-1.0312,-1.0115,-0.9718,-0.9061,-0.9413,-0.9736,-1.0389,-1.1366,-1.2064,-1.2618,-1.2798,-1.2915,-1.2915,-1.2915,-1.2915,-1.2915,-1.2915,-1.2915,-1.2915,-1.2915,-1.2915,-2.9315,-2.9741,-2.9189,-2.8976,-2.8988,-2.8963,-2.8787,-2.8285,-2.7946,-2.7643,-2.7404,-2.6914,-2.6751,-2.6499,-2.6487,-2.6487,-2.6487,-2.6487,-2.5873,-2.4649,-2.2933,-2.0896,-1.9393,-1.8805,-1.8555,-1.8291,-1.8135,-1.8115,-1.8125,-1.8076,-1.8008,-1.7939,-1.7637,-1.749,-1.7383,-1.6711,-1.6281,-1.6144,-1.5781,-1.5508,-1.5498,-1.5555,-1.5892,-1.6283,-1.6557,-1.6481,-1.6258,-1.5831,-1.4936,-1.3244,-1.3566,-1.3443,-1.3031,-1.2905,-1.2929,-1.3065,-1.3433,-1.3944,-1.4525,-1.496,-1.5521,-1.5465,-1.5487,-1.5376,-1.4892,-1.4422,-1.405,-1.4027,-1.3348,-1.3104,-1.2929,-1.2915,-1.2915,-1.2915,-1.2915,-1.2915,-1.2915,-1.2915,-1.2915,-1.2915,-1.2915,-1.2915,-1.2915,-1.2915,-1.2915,-1.2808,-1.2197,-1.1491,-1.099,-1.0517,-1.0491,-1.0585,-1.0466,-1.0397,-1.0218,-0.9961,-0.9465,-0.8989,-0.9692,-1.0167,-1.0585,-1.1366,-1.2064,-1.2559,-1.2808,-1.2915,-1.2915,-1.2915,-1.2915,-1.2915,-1.2915,-1.2915,-1.2915,-1.2915,-1.2915,-2.9679,-2.9779,-2.9654,-2.9603,-2.9616,-2.9616,-2.9528,-2.9377,-2.9264,-2.8599,-2.8034,-2.777,-2.7253,-2.6487,-2.6487,-2.6487,-2.6487,-2.6452,-2.5943,-2.4921,-2.375,-2.2258,-2.0772,-1.9789,-1.9147,-1.8906,-1.8607,-1.8471,-1.8403,-1.8193,-1.8008,-1.7978,-1.791,-1.7871,-1.7754,-1.7256,-1.6904,-1.6572,-1.6153,-1.5782,-1.5643,-1.5997,-1.6368,-1.668,-1.7135,-1.7179,-1.6867,-1.6647,-1.5924,-1.4908,-1.4132,-1.3618,-1.314,-1.2964,-1.2978,-1.3129,-1.3478,-1.3862,-1.4179,-1.4994,-1.5598,-1.5598,-1.5576,-1.5565,-1.541,-1.4801,-1.4514,-1.4399,-1.3967,-1.3443,-1.3041,-1.2929,-1.2915,-1.2915,-1.2915,-1.2915,-1.2915,-1.2915,-1.2915,-1.2915,-1.2915,-1.2915,-1.2915,-1.2915,-1.2856,-1.2735,-1.2049,-1.1191,-1.0585,-1.0046,-1.0064,-1.0244,-0.9935,-0.9762,-0.9865,-0.9666,-0.9335,-0.9237,-0.9917,-1.0568,-1.099,-1.15,-1.2246,-1.2642,-1.2856,-1.2915,-1.2915,-1.2915,-1.2915,-1.2915,-1.2915,-1.2915,-1.2915,-1.2915,-1.2915,-2.9779,-2.9779,-2.9779,-2.9779,-2.9779,-2.9779,-2.9779,-2.9729,-2.949,-2.8913,-2.8185,-2.7858,-2.7278,-2.6524,-2.6487,-2.6487,-2.6487,-2.6487,-2.5943,-2.5075,-2.4361,-2.3562,-2.2425,-2.1151,-2.0263,-1.9492,-1.9072,-1.8867,-1.8588,-1.8393,-1.8213,-1.8018,-1.8018,-1.7978,-1.7891,-1.7412,-1.7167,-1.7091,-1.6578,-1.6143,-1.6077,-1.6613,-1.7246,-1.7605,-1.8197,-1.8424,-1.8013,-1.7519,-1.6743,-1.5771,-1.4878,-1.4117,-1.356,-1.3306,-1.3288,-1.3618,-1.3635,-1.4177,-1.4687,-1.5174,-1.5598,-1.5598,-1.5598,-1.5219,-1.5016,-1.4641,-1.456,-1.4376,-1.4167,-1.3967,-1.3396,-1.2992,-1.2929,-1.2915,-1.2915,-1.2915,-1.2915,-1.2915,-1.2915,-1.2915,-1.2915,-1.2915,-1.2915,-1.2915,-1.2618,-1.2403,-1.1692,-1.0838,-1.0167,-0.9692,-0.9543,-0.9491,-0.9159,-0.9054,-0.9283,-0.9309,-0.9237,-0.9484,-1.0167,-1.0813,-1.1366,-1.1907,-1.2486,-1.2725,-1.2915,-1.2915,-1.2915,-1.2915,-1.2915,-1.2915,-1.2915,-1.2915,-1.2915,-1.2915,-1.2915,-2.9779,-2.9779,-2.9779,-2.9779,-2.9779,-2.9779,-2.9779,-2.9716,-2.9277,-2.8825,-2.821,-2.7645,-2.7278,-2.6725,-2.6524,-2.6499,-2.6487,-2.6452,-2.6025,-2.5441,-2.5004,-2.441,-2.3534,-2.2555,-2.1544,-2.0005,-1.9551,-1.9235,-1.8939,-1.8705,-1.8545,-1.8203,-1.8125,-1.8096,-1.7861,-1.7438,-1.7301,-1.7544,-1.6993,-1.6543,-1.6612,-1.7261,-1.8089,-1.8985,-1.945,-1.9542,-1.898,-1.8339,-1.755,-1.6613,-1.5777,-1.5077,-1.4503,-1.3893,-1.3773,-1.4295,-1.4272,-1.4704,-1.5234,-1.5709,-1.5943,-1.579,-1.562,-1.5174,-1.4572,-1.4537,-1.456,-1.4549,-1.4503,-1.4503,-1.3886,-1.3409,-1.3065,-1.2929,-1.2915,-1.2915,-1.2915,-1.2915,-1.2915,-1.2915,-1.2915,-1.2915,-1.2915,-1.2881,-1.2486,-1.2005,-1.13,-1.0618,-0.9994,-0.9387,-0.9263,-0.9166,-0.891,-0.8831,-0.9035,-0.9133,-0.9028,-0.9666,-1.0364,-1.099,-1.1625,-1.2221,-1.2666,-1.2774,-1.2915,-1.2915,-1.2915,-1.2915,-1.2915,-1.2915,-1.2915,-1.2915,-1.2915,-1.2915,-1.2954,-2.9779,-2.9779,-2.9779,-2.9779,-2.9779,-2.9779,-2.9779,-2.9779,-2.9666,-2.9315,-2.87,-2.8197,-2.762,-2.7165,-2.665,-2.6499,-2.6487,-2.6452,-2.6383,-2.5978,-2.5511,-2.4886,-2.4624,-2.3654,-2.2959,-2.2347,-2.103,-1.9841,-1.9632,-1.9355,-1.887,-1.8564,-1.8422,-1.832,-1.82,-1.8072,-1.8019,-1.8139,-1.7616,-1.7148,-1.7202,-1.7923,-1.8985,-2.0025,-2.036,-2.0137,-1.9606,-1.8978,-1.8457,-1.8163,-1.6989,-1.6276,-1.5669,-1.4666,-1.4208,-1.4411,-1.498,-1.5322,-1.5459,-1.6343,-1.6636,-1.6386,-1.593,-1.5632,-1.5231,-1.4983,-1.5017,-1.5208,-1.5197,-1.4994,-1.3909,-1.3637,-1.3372,-1.3079,-1.2915,-1.2915,-1.2915,-1.2915,-1.2915,-1.2915,-1.2915,-1.2915,-1.2915,-1.2856,-1.2593,-1.2138,-1.1525,-1.099,-1.0491,-0.9718,-0.9087,-0.8962,-0.8864,-0.8811,-0.8857,-0.8929,-0.9001,-0.9762,-1.0466,-1.1124,-1.1758,-1.2403,-1.2798,-1.2881,-1.2915,-1.2915,-1.2915,-1.2915,-1.2915,-1.2915,-1.2915,-1.2915,-1.2915,-1.2939,-1.3138,-2.9779,-2.9779,-2.9779,-2.9779,-2.9779,-2.9779,-2.9779,-2.9779,-2.9779,-2.9465,-2.89,-2.8348,-2.7795,-2.7278,-2.6738,-2.6499,-2.6487,-2.6487,-2.6487,-2.6336,-2.599,-2.5769,-2.5543,-2.446,-2.3966,-2.332,-2.1905,-2.0684,-2.0317,-1.9854,-1.9244,-1.8433,-1.8311,-1.8399,-1.858,-1.8546,-1.8953,-1.9025,-1.8769,-1.8446,-1.8469,-1.9224,-1.9949,-2.0405,-2.0654,-2.039,-1.9716,-1.8661,-1.8215,-1.7919,-1.6761,-1.6184,-1.5813,-1.5409,-1.4788,-1.4959,-1.5204,-1.5384,-1.5356,-1.6101,-1.6217,-1.6091,-1.5974,-1.5886,-1.5732,-1.5622,-1.57,-1.5876,-1.5666,-1.5253,-1.4376,-1.4061,-1.3539,-1.3065,-1.2929,-1.2929,-1.2915,-1.2915,-1.2915,-1.2915,-1.2915,-1.2915,-1.2915,-1.2832,-1.2691,-1.2246,-1.1699,-1.1291,-1.0914,-1.0167,-0.9335,-0.9106,-0.9035,-0.8811,-0.8811,-0.8831,-0.9106,-0.9865,-1.0448,-1.1074,-1.1866,-1.2476,-1.2774,-1.2881,-1.2915,-1.2915,-1.2915,-1.2915,-1.2915,-1.2915,-1.2915,-1.2915,-1.2915,-1.2978,-1.3162,-2.9779,-2.9779,-2.9779,-2.9779,-2.9779,-2.9779,-2.9779,-2.9779,-2.9779,-2.9465,-2.8863,-2.836,-2.7808,-2.7291,-2.6801,-2.6487,-2.6487,-2.6487,-2.6487,-2.6487,-2.6418,-2.6427,-2.5934,-2.5252,-2.4448,-2.4096,-2.3081,-2.1866,-2.1096,-2.0644,-1.9723,-1.9237,-1.8758,-1.8872,-1.94,-1.9403,-2.0062,-2.0296,-2.0253,-2.0048,-2.0287,-2.0399,-2.0495,-2.0661,-2.0679,-2.0415,-1.9732,-1.89,-1.831,-1.784,-1.6885,-1.593,-1.5845,-1.5568,-1.5464,-1.5501,-1.4992,-1.5013,-1.5191,-1.5684,-1.5938,-1.5722,-1.6194,-1.6151,-1.6051,-1.6151,-1.6414,-1.6414,-1.6117,-1.5588,-1.496,-1.4469,-1.3897,-1.331,-1.3128,-1.3031,-1.2954,-1.2915,-1.2915,-1.2915,-1.2915,-1.2915,-1.2915,-1.2881,-1.2774,-1.2501,-1.1981,-1.1616,-1.1216,-1.061,-0.9935,-0.9588,-0.9283,-0.891,-0.8804,-0.8804,-0.9204,-0.9935,-1.0346,-1.0779,-1.1658,-1.2501,-1.2666,-1.2808,-1.2915,-1.2915,-1.2915,-1.2915,-1.2915,-1.2915,-1.2915,-1.2915,-1.2915,-1.2954,-1.3089,-2.9779,-2.9779,-2.9779,-2.9779,-2.9779,-2.9779,-2.9779,-2.9779,-2.9754,-2.9465,-2.885,-2.831,-2.7758,-2.7253,-2.6738,-2.6512,-2.6487,-2.6487,-2.6487,-2.6487,-2.6474,-2.6235,-2.5808,-2.564,-2.4905,-2.448,-2.3885,-2.3001,-2.2026,-2.1619,-2.1238,-2.063,-2.0367,-2.0643,-2.0235,-2.027,-2.081,-2.0896,-2.0534,-2.033,-2.0382,-2.0406,-2.0523,-2.064,-2.0588,-2.0309,-1.9705,-1.9085,-1.8819,-1.8322,-1.768,-1.7002,-1.6448,-1.5766,-1.5488,-1.5501,-1.5532,-1.5553,-1.5297,-1.5554,-1.5855,-1.5663,-1.6088,-1.6371,-1.6303,-1.6324,-1.65,-1.6513,-1.638,-1.6017,-1.5543,-1.5376,-1.4767,-1.412,-1.3624,-1.3334,-1.3113,-1.2915,-1.2915,-1.2915,-1.2915,-1.2915,-1.2915,-1.2881,-1.2856,-1.2559,-1.2286,-1.1947,-1.1516,-1.0939,-1.0236,-0.9814,-0.9309,-0.891,-0.8778,-0.8778,-0.9237,-0.9961,-1.0218,-1.0525,-1.1484,-1.2295,-1.2501,-1.2618,-1.2774,-1.2915,-1.2915,-1.2915,-1.2915,-1.2915,-1.2915,-1.2915,-1.2915,-1.2978,-1.3041,-2.9779,-2.9779,-2.9779,-2.9779,-2.9779,-2.9779,-2.9779,-2.9716,-2.944,-2.9139,-2.8737,-2.7984,-2.7331,-2.6889,-2.6562,-2.6499,-2.6487,-2.6487,-2.6487,-2.6487,-2.6449,-2.6172,-2.5649,-2.5285,-2.487,-2.4343,-2.3822,-2.3226,-2.2551,-2.2039,-2.1606,-2.1004,-2.0904,-2.0706,-2.0698,-2.0725,-2.0728,-2.0722,-2.0588,-2.0407,-2.0405,-2.0556,-2.0689,-2.0648,-2.0276,-1.9756,-1.9189,-1.8248,-1.794,-1.7445,-1.6829,-1.6336,-1.6017,-1.5636,-1.541,-1.54,-1.5273,-1.5147,-1.4992,-1.5027,-1.5134,-1.5464,-1.5733,-1.593,-1.6051,-1.6281,-1.6281,-1.6008,-1.6315,-1.6194,-1.5764,-1.561,-1.5118,-1.4572,-1.4133,-1.3755,-1.3406,-1.3041,-1.2915,-1.2915,-1.2915,-1.2915,-1.2915,-1.2905,-1.2881,-1.2774,-1.2642,-1.2486,-1.1965,-1.1325,-1.0593,-0.9865,-0.9335,-0.8804,-0.8778,-0.8804,-0.9159,-0.971,-0.9891,-1.0397,-1.1366,-1.2005,-1.227,-1.2584,-1.2856,-1.2929,-1.2915,-1.2915,-1.2915,-1.2915,-1.2915,-1.2915,-1.2915,-1.2915,-1.2978,-2.9779,-2.9779,-2.9641,-2.9578,-2.9578,-2.9591,-2.9666,-2.9716,-2.9202,-2.8825,-2.8411,-2.7595,-2.6876,-2.6575,-2.6499,-2.6487,-2.6487,-2.6487,-2.6487,-2.6487,-2.6399,-2.6059,-2.546,-2.4913,-2.4449,-2.3791,-2.3409,-2.3099,-2.2916,-2.2537,-2.1941,-2.1227,-2.1529,-2.123,-2.1017,-2.098,-2.0923,-2.0392,-2.0392,-2.0251,-2.0105,-2.0129,-2.0176,-1.9982,-1.9504,-1.8897,-1.8329,-1.7605,-1.7055,-1.6611,-1.6154,-1.5795,-1.5634,-1.5393,-1.5293,-1.5264,-1.5123,-1.4985,-1.4795,-1.4671,-1.4443,-1.4764,-1.5303,-1.5521,-1.5964,-1.6216,-1.6315,-1.5952,-1.6238,-1.6216,-1.5986,-1.5864,-1.5521,-1.5096,-1.4607,-1.4226,-1.3826,-1.3443,-1.3065,-1.2915,-1.2915,-1.2915,-1.2915,-1.2915,-1.2915,-1.2915,-1.2915,-1.2915,-1.2363,-1.1658,-1.0973,-1.0192,-0.9361,-0.8883,-0.8831,-0.8936,-0.9283,-0.9562,-0.9744,-1.0346,-1.1391,-1.1898,-1.2138,-1.2476,-1.2968,-1.3002,-1.3027,-1.2954,-1.2915,-1.2915,-1.2915,-1.2915,-1.2915,-1.2915,-1.2915,-2.9779,-2.9754,-2.9214,-2.9001,-2.9013,-2.895,-2.9302,-2.9666,-2.9126,-2.8624,-2.8047,-2.7115,-2.6587,-2.6499,-2.6487,-2.6487,-2.6487,-2.6487,-2.6487,-2.6487,-2.6399,-2.5799,-2.5209,-2.4675,-2.4224,-2.3384,-2.312,-2.3108,-2.3095,-2.2975,-2.2841,-2.2902,-2.2494,-2.2279,-2.171,-2.1037,-2.0506,-1.9946,-1.9774,-1.9693,-1.9402,-1.9166,-1.8861,-1.8756,-1.8193,-1.771,-1.766,-1.7302,-1.6918,-1.642,-1.5991,-1.5636,-1.5453,-1.5221,-1.5186,-1.5264,-1.5107,-1.501,-1.4944,-1.4512,-1.4181,-1.4161,-1.4559,-1.5332,-1.5854,-1.5798,-1.5908,-1.6238,-1.6358,-1.6457,-1.6392,-1.6358,-1.5986,-1.5666,-1.5174,-1.479,-1.4342,-1.3826,-1.3443,-1.3065,-1.2915,-1.2915,-1.2915,-1.2915,-1.2915,-1.2915,-1.2915,-1.2915,-1.2544,-1.1891,-1.1283,-1.0525,-0.9517,-0.9035,-0.8936,-0.9087,-0.9263,-0.9614,-0.9891,-1.0618,-1.1541,-1.1873,-1.2267,-1.2846,-1.3382,-1.3248,-1.3176,-1.3368,-1.3368,-1.3051,-1.2915,-1.2915,-1.2915,-1.2915,-1.2915,-2.9591,-2.9252,-2.8976,-2.9101,-2.944,-2.9076,-2.9026,-2.9214,-2.8976,-2.8411,-2.757,-2.6851,-2.6487,-2.6487,-2.6487,-2.6487,-2.6487,-2.6487,-2.6487,-2.6336,-2.6072,-2.5498,-2.4933,-2.4431,-2.3891,-2.3246,-2.3108,-2.3095,-2.3095,-2.3158,-2.3108,-2.3095,-2.312,-2.2144,-2.1396,-2.0268,-1.9348,-1.9035,-1.8736,-1.8638,-1.8488,-1.8275,-1.8046,-1.7963,-1.7302,-1.6978,-1.6866,-1.6443,-1.6112,-1.5861,-1.5681,-1.5513,-1.5429,-1.5214,-1.5225,-1.5352,-1.5205,-1.5146,-1.4893,-1.4367,-1.3835,-1.4084,-1.4641,-1.5298,-1.5577,-1.5744,-1.592,-1.6139,-1.6238,-1.6337,-1.6479,-1.6479,-1.6337,-1.6117,-1.5786,-1.5353,-1.4858,-1.4329,-1.3802,-1.3396,-1.3089,-1.2915,-1.2915,-1.2915,-1.2915,-1.2915,-1.2915,-1.2832,-1.251,-1.2147,-1.1559,-1.1023,-1.0097,-0.9769,-0.9692,-0.9517,-0.9283,-0.971,-1.0167,-1.0922,-1.1765,-1.2288,-1.2711,-1.3307,-1.3826,-1.3907,-1.3978,-1.4025,-1.38,-1.3296,-1.3027,-1.2915,-1.2915,-1.2915,-1.2915,-2.9553,-2.9189,-2.8963,-2.9164,-2.9465,-2.9051,-2.8888,-2.8888,-2.8888,-2.8298,-2.7256,-2.6751,-2.6487,-2.6487,-2.6487,-2.6487,-2.6487,-2.6487,-2.6487,-2.6373,-2.6109,-2.546,-2.4895,-2.4374,-2.3979,-2.3333,-2.3321,-2.3427,-2.3421,-2.3371,-2.3409,-2.3371,-2.3092,-2.2137,-2.0623,-1.8977,-1.7959,-1.7852,-1.7674,-1.7676,-1.7614,-1.7213,-1.7244,-1.7067,-1.6557,-1.6226,-1.6093,-1.5806,-1.5613,-1.5438,-1.5331,-1.5312,-1.5312,-1.5322,-1.5274,-1.5361,-1.5381,-1.5254,-1.4844,-1.4125,-1.3691,-1.4073,-1.415,-1.4582,-1.4926,-1.5366,-1.522,-1.541,-1.571,-1.6042,-1.6151,-1.6173,-1.6337,-1.6139,-1.6173,-1.5798,-1.5276,-1.4744,-1.4202,-1.3732,-1.3348,-1.2798,-1.2329,-1.228,-1.2495,-1.2461,-1.2452,-1.2584,-1.2715,-1.232,-1.1823,-1.1325,-1.0754,-1.0644,-1.0644,-1.0269,-1.0038,-1.0618,-1.104,-1.1325,-1.1996,-1.2541,-1.3038,-1.3545,-1.4027,-1.4537,-1.4675,-1.4583,-1.4061,-1.342,-1.32,-1.2978,-1.2915,-1.2915,-1.2915,-2.9729,-2.9704,-2.9139,-2.89,-2.8963,-2.89,-2.8888,-2.885,-2.8787,-2.8247,-2.7331,-2.6788,-2.6487,-2.6487,-2.6487,-2.6487,-2.6487,-2.6487,-2.6487,-2.6436,-2.6223,-2.5674,-2.5031,-2.4461,-2.3866,-2.3428,-2.3399,-2.3629,-2.3904,-2.3828,-2.3866,-2.3498,-2.2936,-2.2051,-2.0526,-1.8888,-1.787,-1.7432,-1.7109,-1.7168,-1.7063,-1.6467,-1.6392,-1.6343,-1.597,-1.5642,-1.5584,-1.5526,-1.542,-1.5381,-1.5146,-1.5176,-1.5361,-1.5117,-1.5137,-1.5381,-1.541,-1.5391,-1.5293,-1.418,-1.3971,-1.4121,-1.4105,-1.3973,-1.4395,-1.449,-1.4468,-1.4926,-1.4994,-1.5197,-1.5399,-1.571,-1.6008,-1.6194,-1.6173,-1.6086,-1.5555,-1.4994,-1.4422,-1.3815,-1.3228,-1.2632,-1.1931,-1.1575,-1.1866,-1.199,-1.1981,-1.2187,-1.2525,-1.2584,-1.2163,-1.1832,-1.1409,-1.1359,-1.1258,-1.0889,-1.0864,-1.1441,-1.1774,-1.1882,-1.2261,-1.2822,-1.3328,-1.3768,-1.419,-1.4652,-1.4903,-1.5073,-1.4549,-1.4027,-1.3358,-1.3065,-1.2978,-1.2915,-1.2915,-2.8674,-2.8687,-2.8813,-2.8888,-2.8888,-2.8888,-2.8888,-2.875,-2.821,-2.7821,-2.7645,-2.6927,-2.6487,-2.6487,-2.6487,-2.6487,-2.6487,-2.6487,-2.6487,-2.6424,-2.6172,-2.5485,-2.4791,-2.4028,-2.3563,-2.3529,-2.3534,-2.354,-2.3966,-2.3898,-2.3684,-2.3304,-2.2164,-2.1207,-2.0268,-1.9,-1.79,-1.7812,-1.7637,-1.7524,-1.7264,-1.664,-1.6225,-1.6247,-1.5713,-1.5508,-1.5449,-1.5439,-1.5468,-1.542,-1.5176,-1.5264,-1.54,-1.5176,-1.5254,-1.54,-1.542,-1.542,-1.5293,-1.4725,-1.4319,-1.4194,-1.4028,-1.394,-1.4403,-1.4495,-1.4546,-1.4571,-1.4525,-1.4721,-1.4971,-1.5432,-1.5754,-1.5908,-1.593,-1.5986,-1.5644,-1.5039,-1.4456,-1.3849,-1.3252,-1.2589,-1.1898,-1.1116,-1.1174,-1.1384,-1.14,-1.1749,-1.2104,-1.2608,-1.2608,-1.2403,-1.2123,-1.2049,-1.1891,-1.1534,-1.1584,-1.2123,-1.2163,-1.2055,-1.2516,-1.3045,-1.3433,-1.3768,-1.426,-1.4732,-1.488,-1.5017,-1.5096,-1.471,-1.4061,-1.3358,-1.3089,-1.3002,-1.2915,-2.8109,-2.816,-2.8449,-2.8725,-2.8913,-2.9139,-2.9088,-2.8725,-2.7795,-2.7507,-2.7557,-2.6876,-2.6487,-2.6487,-2.6487,-2.6487,-2.6487,-2.6487,-2.626,-2.6235,-2.6084,-2.5137,-2.4153,-2.3583,-2.3276,-2.3252,-2.2987,-2.3011,-2.3175,-2.3455,-2.3182,-2.2387,-2.1037,-2.0333,-1.9617,-1.8777,-1.7998,-1.79,-1.7754,-1.7549,-1.7292,-1.6904,-1.6465,-1.6246,-1.6009,-1.5909,-1.5615,-1.5555,-1.5661,-1.5526,-1.5439,-1.541,-1.541,-1.542,-1.542,-1.542,-1.542,-1.542,-1.5303,-1.5215,-1.4842,-1.4647,-1.4371,-1.4114,-1.4031,-1.3934,-1.3934,-1.3988,-1.4129,-1.4271,-1.4468,-1.496,-1.5164,-1.5299,-1.5512,-1.5546,-1.5332,-1.4698,-1.4294,-1.3718,-1.3252,-1.2579,-1.1873,-1.1023,-1.0474,-1.0644,-1.0788,-1.1216,-1.1641,-1.2138,-1.2593,-1.2486,-1.2344,-1.2221,-1.2172,-1.2172,-1.2363,-1.2832,-1.2642,-1.2353,-1.255,-1.3065,-1.342,-1.3721,-1.4027,-1.4329,-1.4686,-1.488,-1.5073,-1.5084,-1.4824,-1.4107,-1.3382,-1.3113,-1.3002,-2.8047,-2.8059,-2.8072,-2.8336,-2.8888,-2.9365,-2.9377,-2.8813,-2.7795,-2.7344,-2.7304,-2.6776,-2.6499,-2.6487,-2.6487,-2.6487,-2.6424,-2.6424,-2.6049,-2.5832,-2.5857,-2.4562,-2.3814,-2.3632,-2.2918,-2.2182,-2.1939,-2.2178,-2.2105,-2.2299,-2.2214,-2.1627,-2.0301,-1.9726,-1.9177,-1.862,-1.8076,-1.793,-1.7783,-1.7727,-1.7714,-1.7286,-1.7006,-1.688,-1.6934,-1.6605,-1.6323,-1.6187,-1.6065,-1.5845,-1.5526,-1.5468,-1.5439,-1.542,-1.542,-1.542,-1.542,-1.542,-1.541,-1.5332,-1.5467,-1.5228,-1.4463,-1.389,-1.3704,-1.3806,-1.3854,-1.3634,-1.3569,-1.3672,-1.386,-1.4069,-1.4312,-1.4568,-1.4845,-1.48,-1.4663,-1.4283,-1.3933,-1.3529,-1.3176,-1.2584,-1.1823,-1.099,-1.0372,-1.0141,-1.0338,-1.0593,-1.1015,-1.1466,-1.1916,-1.2255,-1.2163,-1.2212,-1.2236,-1.2329,-1.2593,-1.2915,-1.2915,-1.2725,-1.2929,-1.2968,-1.319,-1.3433,-1.3637,-1.3933,-1.4283,-1.4744,-1.5163,-1.5152,-1.5152,-1.4755,-1.3978,-1.3382,-1.3152,-2.6964,-2.7014,-2.7392,-2.762,-2.7871,-2.8787,-2.9038,-2.8787,-2.8147,-2.7682,-2.7291,-2.6738,-2.6461,-2.6487,-2.6487,-2.6474,-2.6323,-2.6058,-2.5588,-2.5369,-2.5181,-2.3862,-2.3018,-2.2544,-2.2081,-2.1621,-2.134,-2.1385,-2.1408,-2.1464,-2.1181,-2.0773,-1.9759,-1.9332,-1.8911,-1.8428,-1.8168,-1.7978,-1.7832,-1.8118,-1.8352,-1.8167,-1.7989,-1.8112,-1.806,-1.7655,-1.7218,-1.7045,-1.681,-1.6293,-1.6179,-1.6036,-1.541,-1.542,-1.542,-1.542,-1.542,-1.542,-1.542,-1.542,-1.5555,-1.5869,-1.5423,-1.4958,-1.4627,-1.4359,-1.421,-1.3826,-1.3486,-1.365,-1.3816,-1.4,-1.4014,-1.4121,-1.437,-1.4428,-1.4258,-1.3897,-1.3552,-1.331,-1.2954,-1.2691,-1.1931,-1.1266,-1.0669,-1.0115,-0.9891,-1.0115,-1.0372,-1.0796,-1.1266,-1.1658,-1.1857,-1.1848,-1.2187,-1.2344,-1.2642,-1.2915,-1.2915,-1.2915,-1.2929,-1.2954,-1.3017,-1.3128,-1.331,-1.3576,-1.3933,-1.4434,-1.5028,-1.5376,-1.542,-1.505,-1.4606,-1.3944,-1.3443,-2.6487,-2.6537,-2.6839,-2.7115,-2.7419,-2.8235,-2.8499,-2.8285,-2.8147,-2.7708,-2.6929,-2.6386,-2.6285,-2.6424,-2.6248,-2.6109,-2.6084,-2.5766,-2.516,-2.4062,-2.4216,-2.2653,-2.1722,-2.1395,-2.1047,-2.0642,-2.026,-2.0186,-2.0263,-1.9951,-1.9628,-2.002,-1.9243,-1.8888,-1.8596,-1.8236,-1.8076,-1.8008,-1.8124,-1.8563,-1.8854,-1.9027,-1.9134,-1.929,-1.9174,-1.868,-1.7975,-1.7801,-1.7202,-1.6539,-1.634,-1.5892,-1.541,-1.542,-1.542,-1.542,-1.542,-1.542,-1.542,-1.542,-1.5671,-1.5946,-1.6109,-1.5716,-1.529,-1.4952,-1.4612,-1.4235,-1.3973,-1.3821,-1.3962,-1.4078,-1.3895,-1.3771,-1.3958,-1.4171,-1.3848,-1.3508,-1.3238,-1.3002,-1.2832,-1.2691,-1.2197,-1.1584,-1.099,-1.0466,-0.9917,-0.964,-0.9814,-1.0072,-1.0593,-1.1065,-1.1291,-1.1441,-1.1823,-1.2163,-1.251,-1.2749,-1.2915,-1.2915,-1.2915,-1.2929,-1.2954,-1.2954,-1.2954,-1.3248,-1.3539,-1.4271,-1.4858,-1.5208,-1.5654,-1.5722,-1.522,-1.4352,-1.3956,-2.6487,-2.6487,-2.6487,-2.6801,-2.7291,-2.7795,-2.7733,-2.7318,-2.7758,-2.7444,-2.6549,-2.5971,-2.6084,-2.6373,-2.6135,-2.5824,-2.5711,-2.5477,-2.441,-2.2713,-2.3146,-2.1962,-2.0541,-2.0421,-2.0156,-1.9312,-1.8942,-1.9257,-1.8661,-1.857,-1.8787,-1.9144,-1.8529,-1.8202,-1.8168,-1.81,-1.7959,-1.7842,-1.8065,-1.8462,-1.9179,-1.9423,-1.948,-1.9899,-1.9775,-1.9419,-1.8538,-1.7868,-1.7274,-1.6528,-1.6007,-1.5613,-1.5439,-1.542,-1.542,-1.542,-1.542,-1.542,-1.542,-1.542,-1.5526,-1.5806,-1.6065,-1.6012,-1.5754,-1.5571,-1.5269,-1.4763,-1.4463,-1.4307,-1.4407,-1.4336,-1.4204,-1.3965,-1.3942,-1.3887,-1.3586,-1.3277,-1.3089,-1.2915,-1.2881,-1.2749,-1.2584,-1.199,-1.1441,-1.0872,-1.0364,-0.9788,-0.971,-0.9865,-1.0012,-1.0559,-1.0661,-1.0897,-1.1225,-1.1633,-1.2221,-1.2544,-1.2652,-1.2676,-1.251,-1.2666,-1.2915,-1.2915,-1.2915,-1.2915,-1.321,-1.4001,-1.4686,-1.4983,-1.55,-1.625,-1.5866,-1.4846,-1.4376,-2.6487,-2.6487,-2.6487,-2.6575,-2.6763,-2.7243,-2.7203,-2.6751,-2.7278,-2.714,-2.6537,-2.6348,-2.6285,-2.626,-2.6172,-2.5862,-2.5485,-2.4942,-2.3794,-2.2561,-2.2241,-2.1019,-1.9329,-1.9656,-1.9339,-1.8724,-1.8454,-1.8601,-1.8365,-1.8178,-1.8042,-1.8303,-1.8008,-1.8008,-1.8008,-1.8008,-1.791,-1.7734,-1.7992,-1.8744,-1.9803,-1.9437,-1.9219,-1.9765,-1.9907,-1.9057,-1.8305,-1.7885,-1.7233,-1.6567,-1.6397,-1.5979,-1.5478,-1.542,-1.542,-1.542,-1.542,-1.542,-1.542,-1.5449,-1.5584,-1.5979,-1.6293,-1.6322,-1.6285,-1.6231,-1.5911,-1.5345,-1.4998,-1.4848,-1.474,-1.4617,-1.4434,-1.417,-1.387,-1.3613,-1.333,-1.3115,-1.2935,-1.2915,-1.2915,-1.2856,-1.2764,-1.2427,-1.1873,-1.1391,-1.0914,-1.0517,-1.0415,-1.0415,-0.9865,-1.0141,-1.0038,-1.0244,-1.0601,-1.1099,-1.1692,-1.1931,-1.2005,-1.203,-1.2138,-1.2535,-1.2915,-1.2915,-1.2915,-1.2915,-1.3186,-1.3978,-1.4548,-1.4823,-1.5276,-1.5998,-1.5998,-1.5197,-1.4812,-2.5875,-2.6122,-2.6386,-2.6487,-2.6549,-2.6839,-2.6776,-2.6587,-2.6826,-2.6788,-2.6411,-2.6034,-2.5749,-2.5749,-2.5737,-2.5498,-2.4956,-2.4435,-2.2998,-2.1789,-2.0885,-1.9795,-1.9141,-1.8877,-1.86,-1.8159,-1.8247,-1.8287,-1.8367,-1.811,-1.8008,-1.8008,-1.8008,-1.8008,-1.8008,-1.7988,-1.79,-1.7705,-1.791,-1.8736,-1.9868,-1.9286,-1.9207,-1.9723,-1.9511,-1.8762,-1.8537,-1.81,-1.7263,-1.6662,-1.6313,-1.5884,-1.5468,-1.542,-1.542,-1.542,-1.542,-1.542,-1.542,-1.5468,-1.5613,-1.595,-1.6036,-1.5864,-1.5835,-1.5751,-1.5741,-1.5257,-1.5229,-1.5139,-1.502,-1.4929,-1.4512,-1.4172,-1.3828,-1.3486,-1.3223,-1.2988,-1.2915,-1.2915,-1.2978,-1.3104,-1.3007,-1.2886,-1.2408,-1.2175,-1.1672,-1.1065,-1.099,-1.1049,-1.0448,-1.0046,-1.0141,-0.9943,-1.009,-1.0593,-1.1174,-1.1316,-1.1482,-1.1981,-1.2403,-1.2676,-1.2915,-1.2915,-1.2915,-1.2915,-1.332,-1.3907,-1.4387,-1.4686,-1.5186,-1.5722,-1.5567,-1.5354,-1.4835,-2.5159,-2.5649,-2.616,-2.6436,-2.6474,-2.6399,-2.6424,-2.6487,-2.6411,-2.6386,-2.6248,-2.5385,-2.4971,-2.4921,-2.4895,-2.4469,-2.4108,-2.3888,-2.2425,-2.0915,-1.9867,-1.9073,-1.8512,-1.8115,-1.8061,-1.8061,-1.81,-1.8464,-1.8787,-1.8327,-1.8008,-1.8008,-1.8008,-1.8008,-1.8008,-1.7998,-1.793,-1.7832,-1.7982,-1.8275,-1.8578,-1.8708,-1.9073,-1.9275,-1.9171,-1.9033,-1.8644,-1.8038,-1.7054,-1.661,-1.6005,-1.5673,-1.5468,-1.542,-1.542,-1.542,-1.542,-1.542,-1.542,-1.542,-1.5449,-1.5468,-1.542,-1.541,-1.5439,-1.5429,-1.5449,-1.542,-1.5391,-1.5303,-1.5214,-1.5097,-1.4668,-1.4143,-1.376,-1.3369,-1.3115,-1.29,-1.2915,-1.2915,-1.3017,-1.3176,-1.3262,-1.3152,-1.3001,-1.2793,-1.241,-1.1814,-1.1425,-1.1534,-1.1334,-1.0973,-1.0897,-1.0568,-1.0115,-1.0192,-1.0771,-1.1191,-1.1482,-1.2113,-1.2618,-1.2808,-1.2915,-1.2915,-1.2915,-1.2915,-1.3113,-1.3552,-1.4014,-1.4468,-1.4915,-1.5299,-1.5276,-1.4994,-1.4514,-2.5089,-2.5611,-2.5757,-2.6072,-2.6386,-2.6009,-2.6059,-2.6361,-2.5984,-2.5762,-2.5737,-2.5649,-2.5448,-2.5423,-2.5448,-2.4933,-2.3873,-2.3498,-2.2267,-2.0736,-1.9584,-1.8754,-1.8236,-1.8008,-1.8008,-1.8042,-1.8076,-1.8144,-1.8654,-1.8293,-1.8008,-1.8008,-1.8008,-1.8008,-1.8008,-1.7978,-1.79,-1.7822,-1.7812,-1.798,-1.7507,-1.776,-1.8422,-1.8245,-1.7636,-1.7286,-1.6837,-1.6248,-1.589,-1.5644,-1.5595,-1.5459,-1.542,-1.542,-1.542,-1.542,-1.542,-1.542,-1.542,-1.542,-1.542,-1.542,-1.542,-1.542,-1.541,-1.541,-1.5439,-1.5439,-1.5361,-1.5225,-1.5137,-1.5215,-1.4941,-1.4202,-1.3691,-1.3311,-1.3023,-1.2944,-1.2915,-1.2915,-1.2954,-1.3262,-1.3624,-1.3529,-1.3491,-1.3317,-1.3283,-1.2706,-1.2255,-1.223,-1.2141,-1.19,-1.1617,-1.1191,-1.0745,-1.0115,-1.044,-1.0931,-1.1541,-1.2221,-1.2666,-1.2832,-1.2915,-1.2915,-1.2915,-1.2915,-1.3152,-1.33,-1.3661,-1.4097,-1.4502,-1.4823,-1.4869,-1.4698,-1.4283]},{"header":{"parameterUnit":"m.s-1","parameterCategory":1,"la1":31.0,"la2":29.5877,"lo1":-88.7671,"lo2":-86.6584,"dy":0.0162,"dx":0.0185,"nx":115,"ny":88,"refTime":"2023-03-21T12:00:00:Z","depth":0,"parameterNumber":3,"parameterNumberName":"V-component_of_WINDS"},"data":[0.0,0.0,0.0,0.0,0.0,0.0,0.0,0.0,0.0,0.0,0.0,0.0,0.0,0.0,0.0,0.0,0.0,0.0,0.0,0.0,0.0,0.0,0.0,0.0,0.0,0.0,0.0,0.0,0.0,0.0,0.0,0.0,0.0,0.0,0.0,0.0,0.0,0.0,0.0,0.0,0.0,0.0,0.0,0.0,0.0,0.0,0.0,0.0,0.0,0.0,0.0,0.0,0.0,0.0,0.0,0.0,0.0,0.0,0.0,0.0,0.0,0.0,0.0,0.0,0.0,0.0,0.0,0.0,0.0,0.0,0.0,0.0,0.0,0.0,0.0,0.0,0.0,0.0,0.0,0.0,0.0,0.0,0.0,0.0,0.0,0.0,0.0,0.0,0.0,0.0,0.0,0.0,0.0,0.0,0.0,0.0,0.0,0.0,0.0,0.0,0.0,0.0,0.0,0.0,0.0,0.0,0.0,0.0,0.0,0.0,0.0,0.0,0.0,0.0,0.0,0.0,0.0,0.0,0.0,0.0,0.0,0.0,0.0,0.0,0.0,0.0,0.0,0.0,0.0,0.0,0.0,0.0,0.0,0.0,0.0,0.0,0.0,0.0,0.0,0.0,0.0,0.0,0.0,0.0,0.0,0.0,0.0,0.0,0.0,0.0,0.0,0.0,0.0,0.0,0.0,0.0,0.0,0.0,0.0,0.0,0.0,0.0,0.0,0.0,0.0,0.0,0.0,0.0,0.0,0.0,0.0,0.0,0.0,0.0,0.0,0.0,0.0,0.0,0.0,0.0,0.0,0.0,0.0,0.0,0.0,0.0,0.0,0.0,0.0,0.0,0.0,0.0,0.0,0.0,0.0,0.0,0.0,0.0,0.0,0.0,0.0,0.0,0.0,0.0,0.0,0.0,0.0,0.0,0.0,0.0,0.0,0.0,0.0,0.0,0.0,0.0,0.0,0.0,0.0,0.0,0.0,0.0,0.0,0.0,0.0,0.0,0.0,0.0,0.0,0.0,0.0,0.0,0.0,0.0,0.0,0.0,0.0,0.0,0.0,0.0,0.0,0.0,0.0,0.0,0.0,0.0,0.0,0.0,0.0,0.0,0.0,0.0,0.0,0.0,0.0,0.0,0.0,0.0,0.0,0.0,0.0,0.0,0.0,0.0,0.0,0.0,0.0,0.0,0.0,0.0,0.0,0.0,0.0,0.0,0.0,0.0,0.0,0.0,0.0,0.0,0.0,0.0,0.0,0.0,0.0,0.0,0.0,0.0,0.0,0.0,0.0,0.0,0.0,0.0,0.0,0.0,0.0,0.0,0.0,0.0,0.0,0.0,0.0,0.0,0.0,0.0,0.0,0.0,0.0,0.0,0.0,0.0,0.0,0.0,0.0,0.0,0.0,0.0,0.0,0.0,0.0,0.0,0.0,0.0,0.0,0.0,0.0,0.0,0.0,0.0,0.0,0.0,0.0,0.0,0.0,0.0,0.0,0.0,0.0,0.0,0.0,0.0,0.0,0.0,0.0,0.0,0.0,0.0,0.0,0.0,0.0,0.0,0.0,0.0,0.0,0.0,0.0,0.0,0.0,0.0,0.0,0.0,0.0,0.0,0.0,0.0,0.0,0.0,0.0,0.0,0.0,0.0,0.0,0.0,0.0,0.0,0.0,0.0,0.0,0.0,0.0,0.0,0.0,0.0,0.0,0.0,0.0,0.0,0.0,0.0,0.0,0.0,0.0,0.0,0.0,0.0,0.0,0.0,0.0,0.0,0.0,0.0,0.0,0.0,0.0,0.0,0.0,0.0,0.0,0.0,0.0,0.0,0.0,0.0,0.0,0.0,0.0,0.0,0.0,0.0,0.0,0.0,0.0,0.0,0.0,0.0,0.0,0.0,0.0,0.0,0.0,0.0,0.0,0.0,0.0,0.0,0.0,0.0,0.0,0.0,0.0,0.0,0.0,0.0,0.0,0.0,0.0,0.0,0.0,0.0,0.0,0.0,0.0,0.0,0.0,0.0,0.0,0.0,0.0,0.0,0.0,0.0,0.0,0.0,0.0,0.0,0.0,0.0,0.0,0.0,0.0,0.0,0.0,0.0,0.0,0.0,0.0,0.0,0.0,0.0,0.0,0.0,0.0,0.0,0.0,0.0,0.0,0.0,0.0,0.0,0.0,0.0,0.0,0.0,0.0,0.0,0.0,0.0,0.0,0.0,0.0,0.0,0.0,0.0,0.0,0.0,0.0,0.0,0.0,0.0,0.0,0.0,0.0,0.0,0.0,0.0,0.0,0.0,0.0,0.0,0.0,0.0,0.0,0.0,0.0,0.0,0.0,0.0,0.0,0.0,0.0,0.0,0.0,0.0,0.0,0.0,0.0,0.0,0.0,0.0,0.0,0.0,0.0,0.0,0.0,0.0,0.0,0.0,0.0,0.0,0.0,0.0,0.0,0.0,0.0,0.0,0.0,0.0,0.0,0.0,0.0,0.0,0.0,0.0,0.0,0.0,0.0,0.0,0.0,0.0,0.0,0.0,0.0,0.0,0.0,0.0,0.0,0.0,0.0,0.0,0.0,0.0,0.0,0.0,0.0,0.0,0.0,0.0,0.0,0.0,0.0,0.0,0.0,0.0,0.0,0.0,0.0,0.0,0.0,0.0,0.0,0.0,0.0,0.0,0.0,0.0,0.0,0.0,0.0,0.0,0.0,0.0,0.0,0.0,0.0,0.0,0.0,0.0,0.0,0.0,0.0,0.0,0.0,0.0,0.0,0.0,0.0,0.0,0.0,0.0,0.0,0.0,0.0,0.0,0.0,0.0,0.0,0.0,0.0,0.0,0.0,0.0,0.0,0.0,0.0,0.0,0.0,0.0,0.0,0.0,0.0,0.0,0.0,0.0,0.0,0.0,0.0,0.0,0.0,0.0,0.0,0.0,0.0,0.0,0.0,0.0,0.0,0.0,0.0,0.0,0.0,0.0,0.0,0.0,0.0,0.0,0.0,0.0,0.0,0.0,0.0,0.0,0.0,0.0,0.0,0.0,0.0,0.0,0.0,0.0,0.0,0.0,0.0,0.0,0.0,0.0,0.0,0.0,0.0,0.0,0.0,0.0,0.0,0.0,0.0,0.0,0.0,0.0,0.0,0.0,0.0,0.0,0.0,0.0,0.0,0.0,0.0,0.0,0.0,0.0,0.0,0.0,0.0,0.0,0.0,0.0,0.0,0.0,0.0,0.0,0.0,0.0,0.0,0.0,0.0,0.0,0.0,0.0,0.0,0.0,0.0,0.0,0.0,0.0,0.0,0.0,0.0,0.0,0.0,0.0,0.0,0.0,0.0,0.0,0.0,0.0,0.0,0.0,0.0,0.0,0.0,0.0,0.0,0.0,0.0,0.0,0.0,0.0,0.0,0.0,0.0,0.0,0.0,0.0,0.0,0.0,0.0,0.0,0.0,0.0,0.0,0.0,0.0,0.0,0.0,0.0,0.0,0.0,0.0,0.0,0.0,0.0,0.0,0.0,0.0,0.0,0.0,0.0,0.0,0.0,0.0,0.0,0.0,0.0,0.0,0.0,0.0,0.0,0.0,0.0,0.0,0.0,0.0,0.0,0.0,0.0,0.0,0.0,0.0,0.0,0.0,0.0,0.0,0.0,0.0,0.0,0.0,0.0,0.0,0.0,0.0,0.0,0.0,0.0,0.0,0.0,0.0,0.0,0.0,0.0,0.0,0.0,0.0,0.0,0.0,0.0,0.0,0.0,0.0,0.0,0.0,0.0,0.0,0.0,0.0,0.0,0.0,0.0,0.0,0.0,0.0,0.0,0.0,0.0,0.0,0.0,0.0,0.0,0.0,0.0,0.0,0.0,0.0,0.0,0.0,0.0,0.0,0.0,0.0,0.0,0.0,0.0,0.0,0.0,0.0,0.0,0.0,0.0,0.0,0.0,0.0,0.0,0.0,0.0,0.0,0.0,0.0,0.0,0.0,0.0,0.0,0.0,0.0,0.0,0.0,0.0,0.0,0.0,0.0,0.0,0.0,0.0,0.0,0.0,0.0,0.0,0.0,0.0,0.0,0.0,0.0,0.0,0.0,0.0,0.0,0.0,0.0,0.0,0.0,0.0,0.0,0.0,0.0,0.0,0.0,0.0,0.0,0.0,0.0,0.0,0.0,0.0,0.0,0.0,0.0,0.0,0.0,0.0,0.0,0.0,0.0,0.0,0.0,0.0,0.0,0.0,0.0,0.0,0.0,0.0,0.0,0.0,0.0,0.0,0.0,0.0,-0.3311,0.0,0.0,0.0,0.0,0.0,0.0,0.0,0.0,0.0,0.0,0.0,0.0,0.0,0.0,0.0,0.0,0.0,0.0,0.0,0.0,0.0,0.0,0.0,0.0,0.0,0.0,0.0,0.0,0.0,0.0,0.0,0.0,0.0,0.0,0.0,0.0,0.0,0.0,0.0,0.0,0.0,0.0,0.0,0.0,0.0,0.0,0.0,0.0,0.0,0.0,0.0,0.0,0.0,0.0,0.0,0.0,0.0,0.0,0.0,0.0,0.0,0.0,0.0,0.0,0.0,0.0,0.0,0.0,0.0,0.0,0.0,0.0,0.0,0.0,0.0,0.0,0.0,0.0,0.0,0.0,0.0,0.0,0.0,0.0,0.0,0.0,0.0,0.0,0.0,0.0,0.0,0.0,0.0,0.0,0.0,0.0,0.0,0.0,0.0,0.0,0.0,0.0,0.0,0.0,0.0,0.0,0.0,0.0,0.0,0.0,0.244,0.0046,-0.1897,-0.3073,-0.3456,0.0,0.0,0.0,0.0,0.0,0.0,0.0,0.0,0.0,0.0,0.0,0.0,0.0,0.0,0.0,0.0,0.0,0.0,0.0,0.0,0.0,0.0,0.0,0.0,0.0,0.0,0.0,0.0,0.0,0.0,0.0,0.0,0.0,0.0,0.0,0.0,0.0,0.0,0.0,0.0,0.0,0.0,0.0,0.0,0.0,0.0,0.0,0.0,0.0,0.0,0.0,0.0,0.0,0.0,0.0,0.0,0.0,0.0,0.0,0.0,0.0,0.0,0.0,0.0,0.0,0.0,0.0,0.0,0.0,0.0,0.0,0.0,0.0,0.0,0.0,0.0,0.0,0.0,0.0,0.0,0.0,0.0,0.0,0.0,0.0,0.0,0.0,0.0,0.0,0.0,0.0,0.0,0.0,0.0,0.0,0.0,0.0,0.0,0.0,0.0,0.0,0.0,0.0,0.0,0.0,0.0,0.0,0.0,0.0,0.0,0.0,0.0,-0.2462,-0.4062,-0.4472,0.0,0.0,0.0,0.0,0.0,0.0,0.0,0.0,0.0,0.0,0.0,0.0,0.0,0.0,0.0,0.0,0.0,0.0,0.0,0.0,0.0,0.0,0.0,0.0,0.0,0.0,0.0,0.0,0.0,0.0,0.0,0.0,0.0,0.0,0.0,0.0,0.0,0.0,0.0,0.0,0.0,0.0,0.0,0.0,0.0,0.0,0.0,0.0,0.0,0.0,0.0,0.0,0.0,0.0,0.0,0.0,0.0,0.0,0.0,0.0,0.0,0.0,0.0,0.0,0.0,0.0,0.0,0.0,0.0,0.0,0.0,0.0,0.0,0.0,0.0,0.0,0.0,0.0,0.0,0.0,0.0,0.0,0.0,0.0,0.0,0.0,0.0,0.0,0.0,0.0,0.0,0.0,0.0,0.0,0.0,0.0,0.0,0.0,0.0,0.0,0.0,0.0,0.0,0.0,0.0,0.0,0.0,0.0,0.0,0.0,0.2627,0.0662,-0.2471,0.0,-0.688,0.0,0.0,0.0,0.0,0.0,0.0,0.0,0.0,0.0,0.0,0.0,0.0,0.0,0.0,0.0,0.0,0.0,0.0,0.0,0.0,0.0,0.0,0.0,0.0,0.0,0.0,0.0,0.0,0.0,0.0,0.0,0.0,0.0,0.0,0.0,0.0,0.0,0.0,0.0,0.0,0.0,0.0,0.0,0.0,0.0,0.0,0.0,0.0,0.0,0.0,0.0,0.0,0.0,0.0,0.0,0.0,0.0,0.0,0.0,0.0,0.0,0.0,0.0,0.0,0.0,0.0,0.0,0.0,0.0,0.0,0.0,0.0,0.0,0.0,0.0,0.0,0.0,0.0,0.0,0.0,0.0,0.0,0.0,0.0,0.0,0.0,0.0,0.0,0.0,0.0,0.0,0.0,0.0,0.0,0.0,0.0,0.0,0.0,0.0,0.0,0.0,0.0,0.0,0.0,0.0,0.0,0.0,0.0,0.0,0.0,0.2464,0.0103,-0.3354,-0.6016,0.0,0.0,0.0,0.0,0.0,0.0,0.0,0.0,0.0,0.0,0.0,0.0,0.0,0.0,0.0,0.0,0.0,0.0,0.0,0.0,0.0,0.0,0.0,0.0,0.0,0.0,0.0,0.0,0.0,0.0,0.0,0.0,0.0,0.0,0.0,0.0,0.0,0.0,0.0,0.0,0.0,0.0,0.0,0.0,0.0,0.0,0.0,0.0,0.0,0.0,0.0,0.0,0.0,0.0,0.0,0.0,0.0,0.0,0.0,0.0,0.0,0.0,0.0,0.0,0.0,0.0,0.0,0.0,0.0,0.0,0.0,0.0,0.0,0.0,0.0,0.0,0.0,0.0,0.0,0.0,0.0,0.0,0.0,0.0,0.0,0.0,0.0,0.0,0.0,0.0,0.0,0.0,0.0,0.0,0.0,0.0,0.0,0.0,0.0,0.0,0.0,0.0,0.0,0.0,0.0,0.0,0.0,0.0,0.0,0.0,0.4344,0.1979,-0.1352,-0.4648,-0.7038,-0.8486,0.0,0.0,0.0,0.0,0.0,0.0,0.0,0.0,0.0,0.0,0.0,0.0,0.0,0.0,0.0,0.0,0.0,0.0,0.0,0.0,0.0,0.0,0.0,0.0,0.0,0.0,0.0,0.0,0.0,0.0,0.0,0.0,0.0,0.0,0.0,0.0,0.0,0.0,0.0,0.0,0.0,0.0,0.0,0.0,0.0,0.0,0.0,0.0,0.0,0.0,0.0,0.0,0.0,0.0,0.0,0.0,0.0,0.0,0.0,0.0,0.0,0.0,0.0,0.0,0.0,0.0,0.0,0.0,0.0,0.0,0.0,0.0,0.0,0.0,0.0,0.0,0.0,0.0,0.0,0.0,0.0,0.0,0.0,0.0,0.0,0.0,0.0,0.0,0.0,0.0,0.0,0.0,0.0,0.0,0.0,0.0,0.0,0.0,0.0,0.0,0.0,0.0,0.0,0.0,0.0,0.0,0.0,0.0,0.631,0.4471,0.113,-0.3838,-0.6441,-0.8084,0.0,0.0,0.0,0.0,0.0,0.0,0.0,0.0,0.0,0.0,0.0,0.0,0.0,0.0,0.0,0.0,0.0,0.0,0.0,0.0,0.0,0.0,0.0,0.0,0.0,0.0,0.0,0.0,0.0,0.0,0.0,0.0,0.0,0.0,0.0,0.0,0.0,0.0,0.0,0.0,0.0,0.0,0.0,0.0,0.0,0.0,0.0,0.0,0.0,0.0,0.0,0.0,0.0,0.0,0.0,0.0,0.0,0.0,0.0,0.0,0.0,0.0,0.0,0.0,0.0,0.0,0.0,0.0,0.0,0.0,0.0,0.0,0.0,0.0,0.0,0.0,0.0,0.0,0.0,0.0,0.0,0.0,0.0,0.0,0.0,0.0,0.0,0.0,0.0,0.0,0.0,0.0,0.0,0.0,0.0,0.0,0.0,0.0,0.0,0.0,0.0,0.0,0.0,0.0,0.0,0.0,0.0,0.0,0.0,0.5822,0.1856,-0.1603,-0.4321,-0.7171,-0.9062,0.0,0.0,0.0,0.0,0.0,0.0,0.0,0.0,0.0,0.0,0.0,0.0,0.0,0.0,0.0,0.0,0.0,0.0,0.0,0.0,0.0,0.0,0.0,0.0,0.0,0.0,0.0,0.0,0.0,0.0,0.0,0.0,0.0,0.0,0.0,0.0,0.0,0.0,0.0,0.0,0.0,0.0,0.0,0.0,0.0,0.0,0.0,0.0,0.0,0.0,0.0,0.0,0.0,0.0,0.0,0.0,0.0,0.0,0.0,0.0,0.0,0.0,0.0,0.0,0.0,0.0,0.0,0.0,0.0,0.0,0.0,0.0,0.0,0.0,0.0,0.0,0.0,0.0,0.0,0.0,0.0,0.0,0.0,0.0,0.0,0.0,0.0,0.0,0.0,0.0,0.0,0.0,0.0,0.0,0.0,0.0,0.0,0.0,0.0,0.0,0.0,0.0,0.0,0.0,0.0,0.0,0.0,0.0,0.0,0.4201,0.0,-0.3616,-0.493,-0.7703,-0.9574,0.0,0.0,0.0,0.0,0.0,0.0,0.0,0.0,0.0,0.0,0.0,0.0,0.0,0.0,0.0,0.0,0.0,0.0,0.0,0.0,0.0,0.0,0.0,0.0,0.0,0.0,0.0,0.0,0.0,0.0,0.0,0.0,0.0,0.0,0.0,0.0,0.0,0.0,0.0,0.0,0.0,0.0,0.0,0.0,0.0,0.0,0.0,0.0,0.0,0.0,0.0,0.0,0.0,0.0,0.0,0.0,0.0,0.0,0.0,0.0,0.0,0.0,0.0,0.0,0.0,0.0,0.0,0.0,0.0,0.0,0.0,0.0,0.0,0.0,0.0,0.0,0.0,0.0,0.0,0.0,0.0,0.0,0.0,0.0,0.0,0.0,0.0,0.0,0.0,0.0,0.0,0.0,0.0,0.0,0.0,0.0,0.0,0.0,0.0,0.0,0.0,0.0,0.0,0.0,0.0,0.0,0.0,0.0,0.6383,0.1481,-0.2126,-0.4541,-0.5796,-0.8241,-0.9607,0.0,0.0,0.0,0.0,0.0,0.0,0.0,0.0,0.0,0.0,0.0,0.0,0.0,0.0,0.0,0.0,0.0,0.0,0.0,0.0,0.0,0.0,0.0,0.0,0.0,0.0,0.0,0.0,0.0,0.0,0.0,0.0,0.0,0.0,0.0,0.0,0.0,0.0,0.0,0.0,0.0,0.0,0.0,0.0,0.0,0.0,0.0,0.0,0.0,0.0,0.0,0.0,0.0,0.0,0.0,0.0,0.0,0.0,0.0,0.0,0.0,0.0,0.0,0.0,0.0,0.0,0.0,0.0,0.0,0.0,0.0,0.0,0.0,0.0,0.0,0.0,0.0,0.0,0.0,0.0,0.0,0.0,0.0,0.0,0.0,0.0,0.0,0.0,0.0,0.0,0.0,0.0,0.0,0.0,0.0,0.0,0.0,0.0,0.0,0.0,0.0,0.0,0.0,0.0,0.0,0.0,0.0,0.0,0.0,0.034,-0.2608,-0.4888,-0.6565,-0.9034,-1.0487,0.0,0.0,0.0,0.0,0.0,0.0,0.0,0.0,0.0,0.0,0.0,0.0,0.0,0.0,0.0,0.0,0.0,0.0,0.0,0.0,0.0,0.0,0.0,0.0,0.0,0.0,0.0,0.0,0.0,0.0,0.0,0.0,0.0,0.0,0.0,0.0,0.0,0.0,0.0,0.0,0.0,0.0,0.0,0.0,0.0,0.0,0.0,0.0,0.0,0.0,0.0,0.0,0.0,0.0,0.0,0.0,0.0,0.0,0.0,0.0,0.0,0.0,0.0,0.0,0.0,0.0,0.0,0.0,0.0,0.0,0.0,0.0,0.0,0.0,0.0,0.0,0.0,0.0,0.0,0.0,0.0,0.0,0.0,0.0,0.0,0.0,0.0,0.0,0.0,0.0,0.0,0.0,0.0,0.0,0.0,0.0,0.0,0.0,0.0,0.0,0.0,0.0,0.0,0.0,0.0,0.0,0.0,0.0,0.0,-0.1716,-0.3514,-0.5365,-0.744,-0.9438,-1.0593,-1.087,0.0,0.0,0.0,0.0,0.0,0.0,0.0,0.0,0.0,0.0,0.0,0.0,0.0,0.0,0.0,0.0,0.0,0.0,0.0,0.0,0.0,0.0,0.0,0.0,0.0,0.0,0.0,0.0,0.0,0.0,0.0,0.0,0.0,0.0,0.0,0.0,0.0,0.0,0.0,0.0,0.0,0.0,0.0,0.0,0.0,0.0,0.0,0.0,0.0,0.0,0.0,0.0,0.0,0.0,0.0,0.0,0.0,0.0,0.0,0.0,0.0,0.0,0.0,0.0,0.0,0.0,0.0,0.0,0.0,0.0,0.0,0.0,0.0,0.0,0.0,0.0,0.0,0.0,0.0,0.0,0.0,0.0,0.0,0.0,0.0,0.0,0.0,0.0,0.0,0.0,0.0,0.0,0.0,0.0,0.0,0.0,0.0,0.0,0.0,0.0,0.0,0.0,0.0,0.0,0.0,0.0,0.0,0.0,-0.4453,-0.4738,-0.5996,-0.8434,-0.9571,-1.0193,0.0,0.0,0.0,0.0,0.0,0.0,0.0,0.0,0.0,0.0,0.0,0.0,0.0,0.0,0.0,0.0,0.0,0.0,0.0,0.0,0.0,0.0,0.0,0.0,0.0,0.0,0.0,0.0,0.0,0.0,0.0,0.0,0.0,0.0,0.0,0.0,0.0,0.0,0.0,0.0,0.0,0.0,0.0,0.0,0.0,0.0,0.0,0.0,0.0,0.0,0.0,0.0,0.0,0.0,0.0,0.0,0.0,0.0,0.0,0.0,0.0,0.0,0.0,0.0,0.0,0.0,0.0,0.0,0.0,0.0,0.0,0.0,0.0,0.0,0.0,0.0,0.0,0.0,0.0,0.0,0.0,0.0,0.0,0.0,0.0,0.0,0.0,0.0,0.0,0.0,0.0,0.0,0.0,0.0,0.0,0.0,0.0,0.0,0.0,0.0,0.0,0.0,0.0,0.0,0.0,0.0,0.0,0.0,0.0,-0.4607,-0.5906,-0.7298,-0.8967,-1.0473,-1.1215,0.0,0.0,0.0,0.0,0.0,0.0,0.0,0.0,0.0,0.0,0.0,0.0,0.0,0.0,0.0,0.0,0.0,0.0,0.0,0.0,0.0,0.0,0.0,0.0,0.0,0.0,0.0,0.0,0.0,0.0,0.0,0.0,0.0,0.0,0.0,0.0,0.0,0.0,0.0,0.0,0.0,0.0,0.0,0.0,0.0,0.0,0.0,0.0,0.0,0.0,0.0,0.0,0.0,0.0,0.0,0.0,0.0,0.0,0.0,0.0,0.0,0.0,0.0,0.0,0.0,0.0,0.0,0.0,0.0,0.0,0.0,0.0,0.0,0.0,0.0,0.0,0.0,0.0,0.0,0.0,0.0,0.0,0.0,0.0,0.0,0.0,0.0,0.0,0.0,0.0,0.0,0.0,0.0,0.0,0.0,0.0,0.0,0.0,0.0,0.0,0.0,0.0,0.0,0.0,0.0,0.0,0.0,0.0,-0.0051,-0.4671,-0.5678,-0.7088,-0.9154,-1.0155,-1.0865,0.0,0.0,0.0,0.0,0.0,0.0,0.0,0.0,0.0,0.0,0.0,0.0,0.0,0.0,0.0,0.0,0.0,0.0,0.0,0.0,0.0,0.0,0.0,0.0,0.0,0.0,0.0,0.0,0.0,0.0,0.0,0.0,0.0,0.0,0.0,0.0,0.0,0.0,0.0,0.0,0.0,0.0,0.0,0.0,0.0,0.0,0.0,0.0,0.0,0.0,0.0,0.0,0.0,0.0,0.0,0.0,0.0,0.0,0.0,0.0,0.0,0.0,0.0,0.0,0.0,0.0,0.0,0.0,0.0,0.0,0.0,0.0,0.0,0.0,0.0,0.0,0.0,0.0,0.0,0.0,0.0,0.0,0.0,0.0,0.0,0.0,0.0,0.0,0.0,0.0,0.0,0.0,0.0,0.0,0.0,0.0,0.0,0.0,0.0,0.0,0.0,0.0,0.0,0.0,0.0,0.0,0.0,0.0,0.0719,-0.4563,-0.4826,-0.6277,-0.9034,-0.9388,-1.0071,0.0,0.0,0.0,0.0,0.0,0.0,0.0,0.0,0.0,0.0,0.0,0.0,0.0,0.0,0.0,0.0,0.0,0.0,0.0,0.0,0.0,0.0,0.0,0.0,0.0,0.0,0.0,0.0,0.0,0.0,0.0,0.0,0.0,0.0,0.0,0.0,0.0,0.0,0.0,0.0,0.0,0.0,0.0,0.0,0.0,0.0,0.0,0.0,0.0,0.0,0.0,0.0,0.0,0.0,0.0,0.0,0.0,0.0,0.0,0.0,0.0,0.0,0.0,0.0,0.0,0.0,0.0,0.0,0.0,0.0,0.0,0.0,0.0,0.0,0.0,0.0,0.0,0.0,0.0,0.0,0.0,0.0,0.0,0.0,0.0,0.0,0.0,0.0,0.0,0.0,0.0,0.0,0.0,0.0,0.0,0.0,0.0,0.0,0.0,0.0,0.0,0.0,0.0,0.0,0.0,0.0,0.0,0.0,-0.0304,-0.4559,-0.5826,-0.7334,-0.9147,-1.0733,-1.1546,0.0,0.0,0.0,0.0,0.0,0.0,0.0,0.0,0.0,0.0,0.0,0.0,0.0,0.0,0.0,0.0,0.0,0.0,0.0,0.0,0.0,0.0,0.0,0.0,0.0,0.0,0.0,0.0,0.0,0.0,0.0,0.0,0.0,0.0,0.0,0.0,0.0,0.0,0.0,0.0,0.0,0.0,0.0,0.0,0.0,0.0,0.0,0.0,-0.3953,0.0,0.0,0.0,0.0,0.0,0.0,0.0,0.0,0.0,0.0,0.0,0.0,0.0,0.0,0.0,0.0,0.0,0.0,0.0,0.0,0.0,0.0,0.0,0.0,0.0,0.0,0.0,0.0,0.0,0.0,0.0,0.0,0.0,0.0,0.0,0.0,0.0,0.0,0.0,0.0,0.0,0.0,0.0,0.0,0.0,0.0,0.0,0.0,0.0,0.0,0.0,0.0,0.0,0.0,0.0,0.0,0.0,0.0,0.0,0.0202,-0.4291,-0.5237,-0.6697,-0.892,-1.0451,-1.108,0.0,0.0,0.0,0.0,0.0,0.0,0.0,0.0,0.0,0.0,0.0,0.0,0.0,0.0,0.0,0.0,0.0,0.0,0.0,0.0,0.0,0.0,0.0,0.0,0.0,0.0,0.0,0.0,0.0,0.0,0.0,0.0,0.0,0.0,0.0,0.0,0.0,0.0,0.0,0.0,0.0,0.0,0.0,0.0,0.0,0.0,0.0,0.0,0.0,0.0,0.0,0.0,0.0,0.0,0.0,0.0,0.0,0.0,0.0,0.0,0.0,0.0,0.0,0.0,0.0,0.0,0.0,0.0,0.0,0.0,0.0,0.0,0.0,0.0,0.0,0.0,0.0,0.0,0.0,0.0,0.0,0.0,0.0,0.0,0.0,0.0,0.0,0.0,0.0,0.0,0.0,0.0,0.0,0.0,0.0,0.0,0.0,0.0,0.0,0.0,0.0,0.0,0.0,0.0,0.0,0.0,0.0,0.3607,0.1255,-0.3612,-0.4088,-0.5536,-0.8283,-0.9574,-0.9962,-0.9518,0.0,0.0,0.0,0.0,0.0,0.0,0.0,0.0,0.0,0.0,0.0,0.0,0.0,0.0,0.0,0.0,0.0,0.0,0.0,0.0,0.0,0.0,0.0,0.0,0.0,0.0,0.0,0.0,0.0,0.0,0.0,0.0,0.0,0.0,0.0,0.0,0.0,0.0,1.8378,1.3824,0.0,0.0,0.0,0.0,0.0,0.0,0.0,0.0,-0.21,0.0,0.0,0.0,0.0,0.0,0.0,0.0,0.0,0.0,0.0,0.0,0.0,0.0,0.0,0.0,0.0,0.0,0.0,0.0,0.0,0.0,0.0,0.0,0.0,0.0,0.0,0.0,0.0,0.0,0.0,0.0,0.0,0.0,0.0,0.0,0.0,0.0,0.0,0.0,0.0,0.0,0.0,0.0,0.0,0.0,0.0,0.0,0.0,0.0,0.0,0.0,0.0,0.0,0.0,0.0,0.0,0.4807,0.3925,0.1545,-0.2425,-0.3626,-0.5072,-0.6804,-0.9043,-0.956,-0.8243,0.0,0.0,0.0,0.0,0.0,0.0,0.0,0.0,0.0,0.0,0.0,0.0,0.0,0.0,0.0,0.0,0.0,0.0,0.0,0.0,0.0,0.0,0.0,0.0,0.0,0.0,0.0,0.0,0.0,0.0,0.0,0.0,0.0,0.0,0.0,0.0,0.0,0.0,0.0,1.5182,1.1794,0.0,0.0,0.0,0.0,0.0,0.0,0.0,0.0,-0.2952,0.0,0.0,0.0,0.0,0.0,0.0,0.0,0.0,0.0,0.0,0.0,0.0,0.0,0.0,0.0,0.0,0.0,0.0,0.0,0.0,0.0,0.0,0.0,0.0,0.0,0.0,0.0,0.0,0.0,0.0,0.0,0.0,0.0,0.0,0.0,0.0,0.0,0.0,0.0,0.0,0.0,0.0,0.0,0.0,0.0,0.0,0.0,0.0,0.0,0.0,0.0,0.0,0.0,0.0,0.0,0.4972,0.4118,0.1815,-0.1934,-0.3411,-0.4824,-0.6365,-0.7447,-0.7664,0.0,0.0,0.0,0.0,0.0,0.0,0.0,0.0,0.0,0.0,0.0,0.0,0.0,0.0,0.0,0.0,0.0,0.0,0.0,0.0,0.0,0.0,0.0,0.0,0.0,0.0,0.0,0.0,0.0,0.0,0.0,0.0,0.0,0.0,0.0,0.0,0.0,0.0,0.0,0.0,1.5407,1.2331,1.0576,0.0,0.0,0.0,0.0,0.0,0.0,0.0315,-0.1146,0.0,0.0,0.0,0.0,0.0,0.0,0.0,0.0,0.0,0.0,0.0,0.0,0.0,0.0,0.0,0.0,0.0,0.0,0.0,0.0,0.0,0.0,0.0,0.0,0.0,0.0,0.0,0.0,0.0,0.0,0.0,0.0,0.0,0.0,0.0,0.0,0.0,0.0,0.0,0.0,0.0,0.0,0.0,0.0,0.0,0.0,0.0,0.0,0.0,0.0,0.0,0.0,0.0,0.0,0.0,0.5416,0.4336,0.2233,-0.1055,-0.2763,-0.4194,-0.538,-0.5554,-0.5588,0.0,0.0,0.0,0.0,0.0,0.0,0.0,0.0,0.0,0.0,0.0,0.0,0.0,0.0,0.0,0.0,0.0,0.0,0.0,0.0,0.0,0.0,0.0,0.0,0.0,0.0,0.0,0.0,0.0,0.0,0.0,0.0,0.0,0.0,0.0,0.0,0.0,0.0,0.0,0.0,0.0,1.3085,1.2325,1.0637,0.0,0.0,0.0,0.0,0.5066,0.2781,0.0,0.0,0.0,0.0,0.0,0.0,0.0,0.0,0.0,0.0,0.0,0.0,0.0,0.0,0.0,0.0,0.0,0.0,0.0,0.0,0.0,0.0,0.0,0.0,0.0,0.0,0.0,0.0,0.0,0.0,0.0,0.0,0.0,0.0,0.0,0.0,0.0,0.0,0.0,0.0,0.0,0.0,0.0,0.0,0.0,0.0,0.0,0.0,0.0,0.0,0.0,0.0,0.0,0.0,0.0,0.0,0.7716,0.4886,0.2767,0.1505,-0.0905,-0.2316,-0.2522,-0.3604,-0.4179,0.0,0.0,0.0,0.0,0.0,0.0,0.0,0.0,0.0,0.0,0.0,0.0,0.0,0.0,0.0,0.0,0.0,0.0,0.0,0.0,0.0,0.0,0.0,0.0,0.0,0.0,0.0,0.0,0.0,0.0,0.0,0.0,0.0,0.0,0.0,0.0,0.0,0.0,0.0,0.0,0.0,1.5493,1.4855,1.3625,1.268,0.0,0.0,0.8091,0.8058,0.5971,0.0,0.0,0.0,0.0,0.0,0.0,0.0,0.0,0.0,0.0,0.0,0.0,0.0,0.0,0.0,0.0,0.0,0.0,0.0,0.0,0.0,0.0,0.0,0.0,0.0,0.0,0.0,0.0,0.0,0.0,0.0,0.0,0.0,0.0,0.0,0.0,0.0,0.0,0.0,0.0,0.0,0.0,0.0,0.0,0.0,0.0,0.0,0.0,0.0,0.0,0.0,0.0,0.0,0.0,0.0,0.9262,0.8162,0.5893,0.3828,0.2009,0.01,-0.1255,-0.1962,-0.2583,-0.2852,0.0,0.0,0.0,0.0,0.0,0.0,0.0,0.0,0.0,0.0,0.0,0.0,0.0,0.0,0.0,0.0,0.0,0.0,0.0,0.0,0.0,0.0,0.0,0.0,0.0,0.0,0.0,0.0,0.0,0.0,0.0,0.0,0.0,0.0,0.0,0.0,0.0,0.0,0.0,0.0,0.0,0.0,1.5088,1.4087,0.0,0.0,0.0,1.0763,0.9977,0.0,0.0,0.0,0.0,0.0,0.0,0.0,0.0,0.0,0.0,0.0,0.0,0.0,0.0,0.0,0.0,0.0,0.0,0.0,0.0,0.0,0.0,0.0,0.0,0.0,0.0,0.0,0.0,0.0,0.0,0.0,0.0,0.0,0.0,0.0,0.0,0.0,0.0,0.0,0.0,0.0,0.0,0.0,0.0,0.0,0.0,0.0,0.0,0.0,0.0,0.0,0.0,0.0,0.0,0.0,0.0,0.0,0.8638,0.6716,0.4821,0.2992,0.1643,0.0498,-0.0499,-0.0527,0.0,0.0,0.0,0.0,0.0,0.0,0.0,0.0,0.0,0.0,0.0,0.0,0.0,0.0,0.0,0.0,0.0,0.0,0.0,0.0,0.0,0.0,0.0,0.0,0.0,0.0,0.0,1.2435,0.0,0.0,0.0,0.0,0.0,0.0,0.0,0.0,0.0,0.0,0.0,0.0,0.0,0.0,1.6253,1.64,1.5799,1.527,0.0,0.0,1.3519,1.2076,1.1695,1.0657,0.0,0.0,0.0,0.0,0.0,0.0,0.0,0.0,0.0,0.0,0.0,0.0,0.0,0.0,0.0,0.0,0.0,0.0,0.0,0.0,0.0,0.0,0.0,0.0,0.0,0.0,0.0,0.0,0.0,0.0,0.0,0.0,0.0,0.0,0.0,0.0,0.0,0.0,0.0,0.0,0.0,0.0,0.0,0.0,0.0,0.0,0.0,0.0,0.0,0.0,0.0,0.0,0.0,0.0,0.0,0.977,0.6943,0.5465,0.547,0.4257,0.3474,0.3427,0.3413,0.3225,0.0,0.0,0.0,0.0,0.0,0.0,0.0,0.0,0.0,0.0,0.0,0.0,0.0,0.0,0.0,0.0,0.0,0.0,0.0,0.0,0.0,0.0,0.0,0.0,0.0,0.0,0.0,0.0,0.0,0.0,0.0,0.0,0.0,0.0,0.0,0.0,0.0,0.0,0.0,0.0,0.0,2.0063,2.0208,2.0742,2.0763,0.0,0.0,1.639,1.4925,1.3847,1.2675,1.138,0.0,0.0,0.0,0.0,0.0,0.0,0.0,0.0,0.0,0.0,0.0,0.0,0.0,0.0,0.0,0.0,0.0,0.0,0.0,0.0,0.0,0.0,0.0,0.0,0.0,0.0,0.0,0.0,0.0,0.0,0.0,0.0,0.0,0.0,0.0,0.0,0.0,0.0,0.0,0.0,0.0,0.0,0.0,0.0,0.0,0.0,0.0,0.0,0.0,0.0,0.0,0.0,0.0,1.0332,0.9998,0.8329,0.6849,0.5739,0.5179,0.451,0.3695,0.3652,0.3549,0.0,0.0,0.0,0.0,0.0,0.0,0.0,0.0,0.0,0.0,0.0,0.0,0.0,0.0,0.0,0.0,0.0,0.0,0.0,0.0,0.0,0.0,0.0,0.0,0.0,0.0,0.0,0.0,1.3977,1.453,1.625,0.0,0.0,0.0,0.0,0.0,0.0,0.0,0.0,0.0,0.0,2.0089,2.0184,2.0564,0.0,0.0,1.966,1.9017,1.8408,1.771,1.6713,1.5186,1.5438,0.0,0.0,0.0,0.0,0.0,0.0,0.0,0.0,0.0,0.0,0.0,0.0,0.0,0.0,0.0,0.0,0.0,0.0,0.0,0.0,0.0,0.0,0.0,0.0,0.0,0.0,0.0,0.0,0.0,0.0,0.0,0.0,0.0,0.0,0.0,0.0,0.0,0.0,0.0,0.0,0.0,0.0,0.0,0.0,0.0,0.0,0.0,0.0,0.0,0.0,0.0,0.0,1.0846,1.044,0.9217,0.7956,0.665,0.6293,0.5686,0.4795,0.473,0.4606,0.0,0.0,0.0,0.0,0.0,0.0,0.0,0.0,0.0,0.0,0.0,0.0,0.0,0.0,0.0,0.0,0.0,0.0,0.0,0.0,0.0,0.0,0.0,0.0,0.0,0.0,0.0,0.0,1.5094,1.5978,1.7664,0.0,0.0,0.0,0.0,0.0,0.0,0.0,0.0,0.0,0.0,2.1516,2.198,2.2084,2.1967,2.1587,2.1232,2.0824,2.0334,2.0268,1.9812,1.8418,0.0,0.0,0.0,0.0,0.0,0.0,0.0,0.0,0.0,0.0,0.0,0.0,0.0,0.0,0.0,0.0,0.0,0.0,0.0,0.0,0.0,0.0,0.0,0.0,0.0,0.0,0.0,0.0,0.0,0.0,1.6025,0.0,0.0,0.0,0.0,0.0,0.0,0.0,0.0,0.0,0.0,0.0,0.0,0.0,0.0,0.0,0.0,0.0,0.0,0.0,0.0,0.0,0.0,1.1183,1.141,0.9521,0.862,0.896,0.7954,0.737,0.7321,0.7321,0.7183,0.6847,0.0,0.0,0.0,0.0,0.0,0.0,0.0,0.0,0.0,0.0,0.0,0.0,0.0,0.0,0.0,0.0,0.0,0.0,0.0,0.0,0.0,0.0,0.0,0.0,0.0,0.0,1.5891,1.7125,1.8221,0.0,0.0,0.0,0.0,0.0,0.0,0.0,0.0,0.0,0.0,2.4787,2.5211,2.6633,2.6353,2.54,2.4192,2.3094,2.1831,2.0317,2.0934,2.1356,0.0,0.0,0.0,0.0,0.0,0.0,0.0,0.0,0.0,0.0,0.0,0.0,0.0,0.0,0.0,0.0,0.0,0.0,0.0,0.0,0.0,0.0,0.0,0.0,0.0,0.0,0.0,1.6934,1.6485,0.0,0.0,0.0,0.0,0.0,0.0,0.0,0.0,0.0,0.0,0.0,2.26,2.2869,0.0,0.0,0.0,0.0,0.0,0.0,0.0,0.0,0.0,0.0,0.0,0.0,1.2386,1.1507,1.0838,1.0248,0.9847,0.9475,0.9264,0.9264,0.9264,0.9244,0.9236,0.0,0.0,0.0,0.0,0.0,0.0,0.0,0.0,0.0,0.0,0.0,0.0,0.0,0.0,0.0,0.0,0.0,0.0,0.0,0.0,0.0,0.0,0.0,0.0,0.0,1.5872,0.0,0.0,0.0,0.0,0.0,0.0,0.0,0.0,0.0,0.0,0.0,2.3689,2.5312,2.5772,2.6113,2.6654,2.6486,2.6193,0.0,0.0,0.0,0.0,0.0,0.0,0.0,0.0,0.0,0.0,0.0,0.0,0.0,0.0,2.2458,1.9875,1.8762,1.8099,1.7721,0.0,0.0,0.0,0.0,0.0,0.0,0.0,0.0,0.0,0.0,0.0,0.0,0.0,0.0,0.0,0.0,1.9401,0.0,0.0,0.0,0.0,0.0,0.0,0.0,0.0,2.5421,2.5413,2.5099,2.5681,2.5375,0.0,2.4058,2.254,0.0,0.0,0.0,0.0,0.0,0.0,0.0,0.0,1.3769,1.2505,1.1996,1.1455,1.0692,1.0604,1.0553,1.0553,1.0988,1.1481,1.2046,1.106,1.0556,0.0,0.0,0.0,0.0,0.0,0.0,0.0,0.0,0.0,0.0,0.0,0.0,0.0,0.0,0.0,0.0,0.0,0.0,0.0,0.0,0.0,0.0,0.0,1.6942,0.0,0.0,0.0,0.0,0.0,0.0,0.0,0.0,0.0,2.4607,2.4748,2.5315,2.6722,2.6967,2.7209,2.7597,0.0,0.0,0.0,0.0,0.0,0.0,0.0,2.6974,2.6651,2.6925,2.7097,2.6858,2.7031,2.7202,2.7214,0.0,0.0,2.2818,2.186,2.1323,2.0432,2.0278,2.0089,1.9213,1.9061,1.88,0.0,0.0,0.0,0.0,0.0,0.0,0.0,0.0,2.4216,2.3406,0.0,2.3278,0.0,0.0,0.0,0.0,0.0,0.0,0.0,0.0,2.7759,2.7767,2.7305,2.729,2.6539,2.5155,2.5475,2.4909,2.3396,2.1261,0.0,0.0,0.0,0.0,0.0,0.0,1.5323,1.4238,1.3089,1.2222,1.1694,1.1454,1.1391,1.1488,1.2667,1.3943,1.5145,1.3278,1.2443,1.2985,1.1979,0.0,0.0,0.0,0.0,0.0,0.0,0.0,0.0,0.0,0.0,0.0,0.0,0.0,0.0,0.0,0.0,0.0,0.0,0.0,0.0,1.8356,0.0,0.0,0.0,0.0,0.0,0.0,0.0,0.0,0.0,0.0,2.5568,2.5751,2.6678,2.8675,0.0,0.0,0.0,0.0,2.8552,2.9426,2.8692,2.8052,2.8052,2.8874,2.9246,2.8406,0.0,0.0,2.9857,2.9819,2.9781,2.9806,2.9731,2.9147,2.6932,2.6004,2.5497,2.4882,2.4348,2.3753,2.2439,2.1859,2.1324,3.0714,0.0,0.0,0.0,0.0,2.6991,2.698,2.7256,2.6477,2.5561,2.4581,2.4243,0.0,0.0,0.0,0.0,0.0,0.0,2.7223,2.7316,2.748,2.7651,2.7866,2.7866,2.7619,2.7199,2.6931,2.6032,2.4565,2.3201,2.1787,2.0354,0.0,0.0,0.0,0.0,1.5975,1.5197,1.4864,1.4605,1.4441,1.4389,1.4834,1.5807,1.5748,1.634,1.7694,1.6309,1.5567,1.5739,1.4933,0.0,0.0,0.0,0.0,0.0,0.0,0.0,0.0,0.0,0.0,0.0,0.0,0.0,0.0,0.0,0.0,0.0,0.0,0.0,2.0539,1.9802,1.9738,0.0,0.0,0.0,0.0,0.0,0.0,0.0,0.0,0.0,2.8532,2.8584,2.9009,0.0,0.0,3.0724,3.1066,3.1229,3.1236,3.1039,0.0,0.0,0.0,3.0779,3.1061,3.1279,3.1583,3.1621,3.1169,3.1101,3.0931,3.0458,3.0378,2.9949,2.8842,2.7656,2.6465,2.5211,2.4742,2.447,2.3737,2.3251,2.2509,3.3786,3.0124,3.016,3.0024,2.9758,2.944,2.9491,2.9771,2.9453,2.8875,2.8089,2.7459,2.6818,2.6136,2.5361,0.0,0.0,0.0,2.8239,2.8265,2.7919,2.8065,2.8554,2.8279,2.7871,2.748,2.7153,2.6263,2.4903,2.3742,2.2663,2.1518,0.0,0.0,1.8428,1.8071,1.7441,1.6555,1.618,1.5802,1.5457,1.5802,1.6928,1.8822,1.8527,1.9061,2.0572,1.9525,1.8647,1.8136,1.7118,1.6342,0.0,0.0,0.0,0.0,0.0,0.0,0.0,0.0,0.0,0.0,0.0,2.0167,0.0,0.0,0.0,0.0,2.1599,2.2097,2.2469,2.1854,0.0,0.0,0.0,0.0,0.0,0.0,0.0,2.7569,2.8552,2.9212,2.9212,2.952,2.9921,3.0518,3.0945,3.1213,3.1213,0.0,3.1799,3.18,3.1792,3.1792,3.1792,3.1792,3.1816,3.1785,3.1819,3.1709,3.1296,3.1021,3.0698,3.0321,3.0027,2.9515,2.853,2.7611,2.6797,2.5698,2.5289,2.4838,2.4026,2.3564,2.2881,3.6335,3.4539,3.4019,3.3398,3.2727,3.27,3.27,3.2713,3.27,3.2636,3.2483,3.1833,3.093,2.9859,2.8827,0.0,2.9002,2.9052,2.9324,2.9701,2.8913,2.8847,2.9306,2.8495,2.7582,2.665,2.6578,2.5916,2.4727,2.3452,2.2735,2.2599,2.1663,2.1195,2.1119,2.0273,1.9266,1.8097,1.7285,1.6418,1.5579,1.6349,1.8132,2.0829,2.0864,2.166,2.3402,2.2459,2.1385,2.0185,1.8775,1.7658,1.6932,0.0,0.0,0.0,0.0,0.0,0.0,0.0,0.0,0.0,0.0,0.0,0.0,0.0,0.0,0.0,2.2713,0.0,2.4281,2.4211,0.0,0.0,0.0,2.5744,2.624,2.6394,2.6645,2.7086,0.0,0.0,2.8411,0.0,2.9825,3.0461,3.0563,3.0604,3.0679,3.0801,3.1081,3.1904,3.2104,3.2075,3.1856,3.1945,3.1715,3.0978,3.0693,3.0765,3.0641,3.0219,2.9808,2.961,2.9109,2.8292,2.6942,2.662,2.6446,2.6139,2.5741,2.4979,2.3658,2.3245,2.2702,3.7327,3.5982,3.5869,3.499,3.3671,3.3656,3.3671,3.3671,3.3671,3.2973,3.1805,3.1247,3.0356,2.9259,2.9636,2.9501,2.902,2.9704,2.9713,2.9178,2.8986,2.8971,2.9062,2.8355,2.7907,2.7624,2.7122,2.6041,2.4445,2.4085,2.32,2.1836,2.1555,2.1187,2.0735,1.9684,1.943,1.9933,1.9308,1.876,1.8358,1.8546,1.9674,2.1795,2.1383,2.2026,2.3921,2.2644,2.1756,2.1461,2.0743,2.0151,1.9683,1.9469,0.0,0.0,0.0,0.0,0.0,0.0,0.0,0.0,0.0,2.1831,2.0984,0.0,2.3206,0.0,2.3111,2.4135,2.5555,2.4928,0.0,0.0,2.6722,2.7013,2.7058,2.81,2.8662,2.8267,2.8857,2.9277,2.9277,2.9471,2.9652,2.9839,3.0236,3.0705,3.1203,3.1716,3.194,3.1723,3.2034,3.2049,3.1146,3.1323,3.156,3.1321,3.1261,3.113,3.0602,3.0441,3.0016,2.9107,2.8742,2.803,2.6624,2.5688,2.4823,2.4256,2.4223,2.4142,2.3319,2.2824,2.2237,3.7135,3.6462,3.6178,3.5507,3.4691,3.4658,3.4691,3.4691,3.4643,3.3997,3.2806,3.1933,3.1034,3.0162,3.0614,3.0569,3.0163,3.0614,3.0424,2.9673,2.928,2.8987,2.8645,2.7903,2.7432,2.7187,2.6509,2.5383,2.3966,2.3912,2.3088,2.1521,2.1532,2.1366,2.0984,1.998,2.0049,2.1152,2.048,2.0025,1.9901,1.9879,2.0798,2.2648,2.2189,2.2796,2.4742,2.3776,2.2988,2.2559,2.2406,2.1978,2.1161,2.1052,2.0834,0.0,0.0,0.0,0.0,0.0,0.0,0.0,0.0,0.0,0.0,0.0,2.4346,0.0,2.4921,0.0,2.7501,2.6849,2.666,2.7494,2.7539,2.7478,2.7346,2.7876,2.8113,2.7754,2.8023,2.8169,2.7859,2.7814,2.7934,2.8214,2.8484,2.9165,3.0453,3.1417,3.1781,3.1201,3.1607,3.1661,3.0651,3.0581,3.0672,3.0672,3.0657,3.0432,2.9774,2.9385,2.8861,2.7934,2.747,2.6916,2.5741,2.5012,2.4198,2.3297,2.296,2.2788,2.2475,2.2159,2.1711,3.6432,3.6345,3.5744,3.5489,3.5489,3.5489,3.5489,3.5489,3.5415,3.4936,3.4174,3.2931,3.2049,3.1511,3.1496,3.1451,3.1376,3.1361,3.1002,3.0332,2.9652,2.9045,2.8439,2.7594,2.6912,2.6356,2.5702,2.4723,2.3473,2.3439,2.2775,2.1586,2.159,2.1642,2.1606,2.0797,2.0885,2.1817,2.1195,2.0884,2.0884,2.0884,2.1749,2.3505,2.3059,2.3668,2.5559,2.5064,2.4364,2.3644,2.3835,2.3434,2.2244,2.2059,2.2296,0.0,2.2625,0.0,0.0,0.0,0.0,0.0,0.0,0.0,0.0,2.4857,2.5319,2.7115,2.6904,2.7403,2.9064,2.8674,2.8302,2.8172,2.768,2.7356,2.7349,2.6915,2.6597,2.6669,2.6693,2.6466,2.6037,2.5809,2.6074,2.6713,2.6918,2.7543,2.8976,3.0195,3.0677,3.0223,3.0565,3.0479,3.0248,2.9715,2.9244,2.9211,2.9214,2.9019,2.8278,2.7825,2.7234,2.6492,2.5929,2.5284,2.4525,2.4321,2.3849,2.271,2.2014,2.1527,2.1337,2.1154,2.1012,3.6178,3.5684,3.5549,3.5489,3.5489,3.5489,3.5489,3.5459,3.4906,3.3993,3.2841,3.2034,3.163,3.1496,3.1496,3.1182,3.0702,3.0687,3.0357,2.9786,2.9607,2.9451,2.9302,2.8633,2.7963,2.7325,2.6651,2.5402,2.3652,2.3645,2.2981,2.1692,2.1667,2.1926,2.2334,0.0,0.0,0.0,2.2051,2.2315,2.2315,2.2271,2.2983,2.4313,2.3505,0.0,2.5926,2.5014,2.458,2.4991,2.5055,0.0,0.0,0.0,0.0,0.0,0.0,0.0,0.0,0.0,0.0,0.0,2.5854,2.495,2.4705,2.5149,2.5569,2.5874,2.6696,2.7411,2.7736,2.7579,2.7428,2.7386,2.6939,2.6785,2.7156,2.6778,2.6585,2.7026,2.707,2.7023,2.6828,2.6887,2.6897,2.7001,2.7458,2.769,2.7655,2.8367,2.871,2.8544,2.8484,2.8506,2.9388,2.85,2.7664,2.721,2.7384,2.7279,2.652,2.651,2.6199,2.5243,2.4874,2.4552,2.3889,2.3397,2.2859,2.2032,2.1386,2.0825,2.0373,1.9854,1.9311,3.5804,0.0,3.5489,3.5489,0.0,3.5489,3.5489,3.5459,3.4803,3.3739,3.2437,3.1795,3.1496,3.1481,3.1152,3.0836,3.0492,3.0193,2.9699,2.9101,2.9101,2.8921,2.8603,2.8274,2.7764,2.7091,2.6422,2.5287,2.3753,2.3674,2.2982,2.1697,2.2016,2.2184,2.2142,2.2142,2.2287,2.2537,2.3534,2.4052,2.4039,2.4052,2.4464,2.5336,0.0,0.0,0.0,0.0,0.0,0.0,0.0,0.0,0.0,0.0,0.0,2.6909,2.6935,2.6891,2.6773,2.6504,2.6455,2.6787,2.6489,2.5965,2.5091,2.5408,2.5619,2.5565,2.6364,2.7038,2.7325,2.7502,2.7595,2.7486,2.7046,2.686,2.6965,2.6597,2.6404,2.6634,2.6732,2.6589,2.6242,2.621,2.637,2.6625,2.6549,2.6651,2.7084,2.7907,2.8546,2.8526,2.8038,2.7895,2.8456,2.7913,2.7111,2.6902,2.7031,2.6718,2.5702,2.5722,2.5499,2.4386,2.3879,2.352,2.3236,2.2659,2.2093,2.1729,2.1178,2.0585,2.0043,1.9636,1.9225,3.5489,3.5489,3.5489,3.5489,3.5489,3.5489,3.537,3.51,0.0,0.0,0.0,3.1615,3.1391,3.1436,3.0702,3.0342,3.0298,2.9699,2.9056,2.8412,2.8412,2.8113,2.76,2.748,2.7076,2.6408,2.5749,2.4807,2.3705,2.3629,2.3069,2.2179,2.2612,2.2589,2.2105,2.266,2.329,2.3949,2.4884,2.5411,2.5536,2.5536,2.5798,2.6368,2.5633,2.5605,2.6413,2.5786,2.5479,2.5614,2.6256,2.6567,2.6387,2.7101,2.7668,2.7965,2.8155,2.7987,2.7348,2.7294,2.6949,2.6222,2.6436,2.6361,2.572,2.5826,2.5818,2.5735,2.6169,2.6635,2.7008,2.7395,2.7539,2.7248,2.6895,2.6652,2.6652,2.6403,2.6197,2.624,2.6335,2.6041,2.5438,2.5359,2.5382,2.5691,2.5342,2.5107,2.6315,2.7402,2.8192,2.8307,2.7627,2.7354,2.7547,2.7046,2.6732,2.6395,2.6519,2.627,2.5238,2.4922,2.4518,2.3432,2.2838,2.2598,2.2493,2.2108,2.1665,2.1545,2.1077,2.0544,2.0036,1.9819,1.9542,3.5489,3.5489,3.5489,3.5489,3.5489,3.5489,3.4846,3.3799,3.3679,3.2901,3.16,3.0913,3.0971,3.1436,3.0268,2.9741,2.9696,2.9041,2.8368,0.0,2.7735,2.769,2.757,2.7016,2.6378,2.5734,2.5068,2.4336,2.368,2.3611,2.3471,2.3363,2.3443,2.3406,2.3385,2.3999,2.465,2.5316,2.5242,2.5507,2.6072,2.6085,2.6426,2.7029,2.5463,2.5463,2.7303,2.6173,2.5763,2.6411,2.6968,2.6821,2.5842,2.6708,2.6878,2.6151,2.6872,2.7354,2.7294,2.7248,2.6866,2.6061,2.5005,2.4835,2.6018,2.6625,2.6735,2.6208,2.6419,2.6596,2.6122,2.5994,2.5764,2.5171,2.5079,2.5292,2.5715,2.5906,2.6112,2.6467,2.6638,2.6302,2.5615,2.5497,2.5263,2.4877,2.4726,2.4653,2.4941,2.5543,2.6302,2.6674,2.588,2.5376,2.5816,2.5361,2.4929,2.4261,2.4729,2.4657,2.3337,2.3418,2.3262,2.2204,2.1994,2.1864,2.1849,2.1784,2.1395,2.0976,2.0673,2.0441,1.9872,1.9745,1.9406,3.5489,3.5489,3.5489,3.5489,3.5474,3.51,3.4188,3.3006,3.2961,3.2407,3.1511,3.1167,3.1017,3.0881,2.9998,2.9385,2.9011,2.8378,2.7899,2.7615,2.7585,2.7585,2.754,2.6941,2.6243,2.56,2.4918,2.4261,2.3655,2.3595,2.3595,2.3595,2.3595,2.3595,2.3625,2.3909,2.4365,2.5053,2.5296,2.5747,2.6381,2.6436,2.6408,2.6367,2.5807,2.5856,2.6473,2.5893,2.5851,2.6465,2.6719,2.6724,2.6481,2.6664,2.6822,2.6935,2.6524,2.6497,2.693,2.6189,2.5579,2.5199,2.4625,2.4493,2.5202,2.5053,2.4796,2.4512,2.4893,2.5016,2.4705,2.4845,2.4864,2.4525,2.4574,2.4742,2.4936,2.5109,2.5279,2.5474,2.549,2.5371,2.505,2.5015,2.4915,2.4541,2.4491,2.4355,2.3983,2.4188,2.4678,2.5286,2.4914,2.4711,2.4915,2.4745,2.4398,2.416,2.4334,2.4096,2.3228,2.3297,2.2982,2.2209,2.1767,2.1409,2.1218,2.0861,2.0513,2.0318,2.0168,2.0007,1.9783,1.9723,1.942,3.5489,3.5489,3.5489,3.5489,3.5444,3.4803,3.3799,3.2766,3.2602,3.2108,3.154,3.1346,3.0972,3.0447,2.9714,2.9112,2.8547,2.7914,2.76,2.7585,2.7585,2.751,2.7315,2.6677,2.6019,2.5337,2.4679,2.4118,2.3655,2.3595,2.3595,2.3595,2.3595,2.3595,2.3595,2.3709,2.412,2.4761,2.5273,2.5795,2.6357,2.6378,2.6108,2.5689,2.6047,2.6148,2.5801,2.5773,2.5916,2.6321,2.6473,2.6509,2.6479,2.6324,2.6445,2.6805,2.5835,2.541,2.5933,2.4951,2.4237,2.4254,2.4101,2.4017,2.3939,2.3309,2.3005,2.3316,2.3785,2.3901,2.3768,2.4021,2.4203,2.4051,2.4169,2.4239,2.4254,2.4389,2.4508,2.4508,2.4508,2.4491,2.4305,2.4237,2.4152,2.3968,2.4,2.3763,2.3274,2.3156,2.341,2.3782,2.4,2.3949,2.4,2.3951,2.39,2.4,2.3934,2.3587,2.3192,2.3145,2.2914,2.2043,2.1568,2.1113,2.067,2.0276,1.9924,1.9822,1.9798,1.9753,1.9738,1.9723,1.9512,3.5489,3.5489,3.5489,3.5489,3.537,3.4788,3.4038,3.3305,3.2781,3.2108,3.1481,3.0853,3.0597,3.0342,2.925,2.8697,2.8517,2.7899,2.7585,2.7585,2.7585,2.727,2.6716,2.6019,2.5337,2.4709,2.4059,2.3699,2.361,2.3625,2.361,2.3595,2.3595,2.3631,2.3681,2.4095,2.4647,2.5299,2.528,2.5378,2.5661,2.5704,2.5674,2.5615,2.5543,2.5793,2.6224,2.6204,2.6163,2.6245,2.6561,2.6072,2.473,2.5203,2.5026,2.3719,2.3873,2.4099,2.4116,2.3736,2.3479,2.346,2.2936,2.2584,2.2581,2.2447,2.2956,2.3883,2.4332,2.3995,2.3519,2.3479,2.3274,2.2801,2.3156,2.3494,2.3562,2.4101,2.4508,2.4508,2.4338,2.4254,2.3613,2.3509,2.3241,2.2818,2.2784,2.2733,2.2567,2.2516,2.253,2.2598,2.255,2.2615,2.2649,2.2516,2.2699,2.2649,2.2567,2.2475,2.224,2.2022,2.1658,2.1649,2.1213,2.0953,2.0536,2.0244,2.0154,1.9892,1.9815,1.9762,1.9726,1.9797,1.9591,3.5489,3.5489,3.5489,3.504,3.4367,3.4444,3.3649,3.2333,3.2452,3.2123,3.1525,3.1197,3.0687,2.9966,2.94,2.8783,2.7993,2.772,2.7585,2.7585,2.7585,2.7255,2.6596,2.5914,2.5255,2.459,2.3902,2.3595,2.367,2.3999,2.4137,2.4124,2.445,2.4635,2.4563,2.4772,2.5013,2.5262,2.5229,2.5255,2.5399,2.5751,2.5767,2.5451,2.5701,2.5773,2.5656,2.5234,2.5083,2.5313,2.5157,2.4823,2.4381,2.4431,2.4315,2.3869,2.344,2.2882,2.2232,2.2269,2.2452,2.2704,2.2482,2.2313,2.2313,2.2313,2.2598,2.3038,2.319,2.3054,2.2786,2.275,2.2615,2.2381,2.2581,2.275,2.2767,2.3004,2.3207,2.319,2.3207,2.3122,2.282,2.275,2.2632,2.2347,2.2313,2.2313,2.2313,2.2313,2.2313,2.2313,2.2313,2.2313,2.2313,2.2313,2.2313,2.2313,2.2313,2.218,2.2077,2.2017,2.1869,2.1431,2.1368,2.107,2.0398,2.055,2.0599,2.0277,2.0362,2.0481,2.0464,2.0465,2.0331,3.5489,3.5489,3.5489,3.4951,3.4083,3.4369,3.3559,3.2168,3.2378,3.2123,3.1525,3.1496,3.0868,2.9939,2.9834,2.9142,2.7989,2.7884,2.7764,2.7615,2.7585,2.734,2.6823,2.6378,2.5765,2.5115,2.4675,2.4306,2.4208,2.4783,2.5059,2.502,2.5404,2.5595,2.5502,2.5445,2.5411,2.5446,2.5542,2.5601,2.568,2.6081,2.5963,2.5336,2.5812,2.5902,2.5427,2.4825,2.4664,2.4977,2.4298,2.3931,2.3969,2.3763,2.3664,2.365,2.3011,2.2188,2.1246,2.1553,2.1943,2.2254,2.2313,2.2313,2.2313,2.2313,2.2313,2.2347,2.2313,2.2347,2.2313,2.2313,2.2313,2.2313,2.2313,2.2313,2.233,2.2313,2.2364,2.2313,2.2448,2.2313,2.2313,2.233,2.233,2.2313,2.2313,2.2313,2.2313,2.2313,2.2313,2.2313,2.2313,2.2313,2.2313,2.2313,2.2313,2.2313,2.2313,2.2313,2.2313,2.2296,2.2265,2.184,2.1794,2.1583,2.1023,2.1023,2.1023,2.0747,2.078,2.1023,2.0894,2.0959,2.0975,3.5489,3.5489,3.5489,3.5385,3.534,3.4743,3.4084,3.317,3.2736,3.2123,3.154,3.1496,3.1107,3.0492,3.0477,2.9774,2.8667,2.8517,2.8214,2.769,2.7615,2.7555,2.7473,2.7434,2.7039,2.6224,2.613,2.5836,2.5367,2.6041,2.6371,2.6254,2.6286,2.6294,2.6224,2.6071,2.5977,2.5997,2.6332,2.659,2.659,2.6623,2.6206,2.5446,2.5738,2.6025,2.5931,2.5664,2.5494,2.5526,2.4733,2.3901,2.2988,2.3169,2.2914,2.2013,2.2134,2.2113,2.1673,2.1959,2.2223,2.2296,2.2313,2.2313,2.2313,2.2313,2.2313,2.2313,2.2313,2.2313,2.2313,2.2313,2.2313,2.2313,2.2313,2.2313,2.2313,2.2313,2.2313,2.2313,2.2313,2.2313,2.2313,2.2313,2.2313,2.231,2.231,2.231,2.231,2.2296,2.2338,2.2327,2.2313,2.2313,2.2313,2.2313,2.2313,2.2313,2.2313,2.2313,2.2313,2.2313,2.2268,2.2268,2.218,2.1988,2.169,2.1476,2.1353,2.1197,2.1118,2.1197,2.1323,2.1086,2.1134,3.5235,3.4861,3.4878,3.4607,3.4203,3.3933,3.3469,3.2856,3.2632,3.2108,3.157,3.1496,3.1361,3.1137,3.1137,3.0419,2.925,2.8801,2.8457,2.8173,2.7809,2.7364,2.6988,2.7296,2.6934,2.6085,2.6317,2.637,2.6224,2.6805,2.7263,2.7485,2.7486,2.7391,2.7184,2.6717,2.6436,2.6453,2.6641,2.6708,2.6708,2.6708,2.6505,2.6193,2.6349,2.6436,2.6436,2.5476,2.4914,2.4881,2.3765,2.2895,2.2526,2.2596,2.2375,2.1738,2.1764,2.1779,2.1642,2.1764,2.1972,2.2268,2.2313,2.2313,2.2313,2.2313,2.2313,2.2313,2.2313,2.2313,2.2313,2.2313,2.2313,2.2313,2.2313,2.2313,2.2313,2.2313,2.2313,2.2313,2.2313,2.2313,2.2313,2.2313,2.2313,2.231,2.2436,2.2463,2.236,2.2453,2.2487,2.2349,2.2313,2.2313,2.2313,2.2313,2.2313,2.2313,2.2313,2.2313,2.2313,2.2313,2.2282,2.2282,2.2313,2.2166,2.1794,2.1673,2.1583,2.1796,2.1721,2.1646,2.1842,2.1661,2.1706,3.4906,3.4503,3.4279,3.4054,3.3769,3.335,3.3051,3.2766,3.2348,3.1914,3.1555,3.1496,3.1496,3.1496,3.1496,3.1077,3.0178,2.9535,2.9011,2.8577,2.8113,2.767,2.7328,2.7611,2.738,2.6701,2.6949,2.721,2.7448,2.8072,2.8522,2.8785,2.8552,2.8302,2.8059,2.7233,2.6708,2.6708,2.6708,2.6708,2.6708,2.6708,2.6708,2.6708,2.6708,2.6708,2.6657,2.5286,2.4508,2.4321,2.3105,2.2313,2.2313,2.2166,2.2003,2.1838,2.1823,2.1823,2.1823,2.1823,2.1974,2.2268,2.2313,2.2313,2.2313,2.2313,2.2313,2.2313,2.2313,2.2313,2.2313,2.2313,2.2313,2.2313,2.2313,2.2313,2.2313,2.2313,2.2313,2.2313,2.2313,2.2313,2.231,2.2388,2.2374,2.2321,2.2603,2.2742,2.2541,2.2563,2.266,2.2446,2.2363,2.2324,2.2313,2.231,2.2324,2.2324,2.2313,2.2313,2.2313,2.2313,2.2313,2.2313,2.224,2.2089,2.1972,2.1869,2.2003,2.2254,2.2197,2.2049,2.2166,2.224,2.2166,3.4533,3.4369,3.3769,3.386,3.4039,3.2991,3.2871,3.3095,3.2079,3.1555,3.1496,3.1496,3.1496,3.1496,3.1496,3.1451,3.1227,3.0687,2.9873,2.8952,2.867,2.8591,2.8527,2.856,2.8576,2.8381,2.8442,2.8722,2.9087,2.9669,3.0029,2.9924,2.9257,2.8869,2.8959,2.7503,2.6708,2.6708,2.6708,2.6708,2.6708,2.6708,2.6708,2.6708,2.6708,2.6708,2.6674,2.5286,2.4508,2.4338,2.3088,2.233,2.2209,2.1928,2.1838,2.2135,2.2254,2.2282,2.2268,2.2268,2.224,2.2313,2.2313,2.2313,2.2313,2.2313,2.2313,2.2313,2.2313,2.2313,2.2313,2.2313,2.2313,2.2313,2.2313,2.2313,2.2313,2.2313,2.2313,2.2313,2.2313,2.2313,2.2349,2.2463,2.2487,2.2426,2.2704,2.2972,2.2699,2.2686,2.2712,2.2634,2.2477,2.2338,2.231,2.231,2.2321,2.2335,2.231,2.2313,2.2313,2.2313,2.2313,2.2313,2.2313,2.2194,2.218,2.2092,2.2137,2.2313,2.2313,2.2313,2.2313,2.2313,2.2313,3.4651,3.3814,3.3589,3.335,3.3036,3.2168,3.2183,3.2676,3.1854,3.1496,3.1496,3.1496,3.1496,3.1496,3.1496,3.1496,3.1481,3.127,3.0983,3.0547,2.9684,2.945,2.9745,2.9749,2.9739,2.9667,2.9293,2.9422,2.9887,3.0215,3.0451,3.0569,2.9602,2.9027,2.8908,2.7503,2.6708,2.6708,2.6708,2.6708,2.6708,2.6708,2.6708,2.6708,2.6708,2.6708,2.6623,2.5286,2.4541,2.4491,2.3088,2.2166,2.1913,2.2003,2.2005,2.1853,2.2135,2.2313,2.2313,2.2282,2.2268,2.2299,2.2299,2.2313,2.2313,2.2282,2.2282,2.2282,2.2313,2.2313,2.2313,2.2313,2.2313,2.2313,2.2313,2.2313,2.2313,2.2313,2.2313,2.2313,2.2313,2.2313,2.231,2.2412,2.2426,2.2346,2.2643,2.2822,2.2733,2.2695,2.2695,2.2669,2.249,2.2388,2.245,2.2527,2.2581,2.2594,2.2575,2.2511,2.2457,2.2363,2.2349,2.2313,2.2313,2.2313,2.2313,2.2313,2.2313,2.2313,2.2313,2.2313,2.2313,2.2313,2.2313,3.4412,3.3829,3.3335,3.3051,3.2796,3.2138,3.2093,3.2348,3.1795,3.1496,3.1496,3.1496,3.1496,3.1496,3.1496,3.1496,3.1496,3.1496,3.1807,3.1977,3.0592,3.0152,3.0405,3.0107,3.0123,3.023,2.9913,3.0043,3.0601,3.0658,3.0821,3.0898,2.9721,2.8993,2.8857,2.7503,2.6708,2.6708,2.6708,2.6708,2.6708,2.6708,2.6708,2.6708,2.6708,2.6556,2.6234,2.5134,2.4508,2.4254,2.3088,2.2185,2.1913,2.2135,2.218,2.1988,2.1959,2.2017,2.2049,2.1855,2.1811,2.1827,2.1827,2.1812,2.1842,2.1915,2.2032,2.2049,2.2194,2.2313,2.2313,2.2313,2.2313,2.2313,2.2313,2.2313,2.2313,2.2313,2.2313,2.2313,2.2313,2.2313,2.2296,2.2412,2.2388,2.2374,2.2643,2.281,2.2759,2.2695,2.2708,2.266,2.2463,2.249,2.2647,2.2746,2.2835,2.2865,2.2883,2.2837,2.2773,2.2594,2.2487,2.2349,2.2313,2.2313,2.2313,2.2313,2.2313,2.2313,2.2313,2.2313,2.2313,2.2313,2.2313,3.3963,3.4309,3.317,3.3036,3.335,3.2826,3.2602,3.2497,3.1974,3.1705,3.163,3.1645,3.157,3.1525,3.1496,3.1496,3.1496,3.1496,3.2145,3.2552,3.1589,3.0779,3.0713,3.0151,3.0081,3.0372,3.0356,3.0638,3.1055,3.1095,3.119,3.1038,2.989,2.9077,2.8891,2.7571,2.6843,2.6877,2.6759,2.6708,2.6708,2.6708,2.6708,2.6708,2.6691,2.6437,2.5862,2.4952,2.4394,2.4203,2.2953,2.2237,2.224,2.2282,2.2282,2.2166,2.1838,2.1763,2.1582,2.1461,2.1213,2.1245,2.1182,2.1007,2.1166,2.1431,2.1613,2.1688,2.1988,2.2254,2.2268,2.2313,2.2313,2.2313,2.2313,2.2313,2.2313,2.2313,2.2313,2.2313,2.2313,2.2313,2.231,2.2504,2.246,2.245,2.273,2.2873,2.2885,2.2822,2.2784,2.2712,2.2682,2.2755,2.2996,2.3081,2.3189,2.3392,2.3352,2.3195,2.3002,2.2764,2.2537,2.2402,2.2313,2.2313,2.2313,2.2313,2.2313,2.2313,2.2313,2.2313,2.2313,2.2313,2.2313,3.4786,3.4474,3.4129,3.3784,3.3514,3.329,3.323,3.3215,3.3036,3.2587,3.2303,3.2228,3.1899,3.1525,3.1496,3.1496,3.1496,3.1496,3.1951,3.269,3.2355,3.1916,3.1684,3.107,3.0777,3.0935,3.0898,3.1055,3.119,3.119,3.119,3.1157,3.026,2.977,2.9565,2.8229,2.757,2.7418,2.6928,2.6708,2.6708,2.6708,2.6708,2.6708,2.6691,2.6556,2.6252,2.4878,2.3657,2.2939,2.255,2.2137,2.1899,2.212,2.218,2.1928,2.2017,2.2092,2.1988,2.1628,2.1414,2.1414,2.1086,2.1007,2.1007,2.1086,2.1306,2.1506,2.1749,2.1959,2.2209,2.2313,2.2313,2.2313,2.2313,2.2313,2.2313,2.2313,2.2313,2.2313,2.2313,2.2313,2.2324,2.2363,2.2385,2.2388,2.2607,2.291,2.291,2.3021,2.2991,2.3212,2.3253,2.3277,2.3346,2.3444,2.3617,2.3896,2.3855,2.3617,2.3277,2.2878,2.262,2.2391,2.2324,2.2313,2.2313,2.2313,2.2313,2.2313,2.2313,2.2313,2.2313,2.2313,2.2313,3.4996,3.4876,3.4638,3.4294,3.3918,3.3903,3.3754,3.3469,3.3185,3.2886,3.2482,3.2183,3.1869,3.1525,3.1496,3.1496,3.1496,3.1496,3.191,3.2544,3.2787,3.2646,3.2273,3.1819,3.1515,3.1207,3.1207,3.119,3.119,3.119,3.119,3.1055,3.048,3.0106,2.9937,2.8618,2.7806,2.7672,2.7097,2.6708,2.6708,2.6708,2.6539,2.647,2.6385,2.6149,2.516,2.38,2.2814,2.2377,2.212,2.1943,2.1926,2.2135,2.2166,2.1897,2.2003,2.193,2.169,2.1322,2.1086,2.1023,2.0813,2.0862,2.0975,2.1134,2.1399,2.1552,2.1748,2.2017,2.2209,2.2313,2.2313,2.2313,2.2313,2.2313,2.2313,2.2313,2.2313,2.2313,2.2313,2.2313,2.2313,2.2313,2.2313,2.2349,2.2523,2.2764,2.291,2.3076,2.3236,2.3369,2.3448,2.3403,2.3437,2.3544,2.3753,2.4074,2.3896,2.3724,2.3403,2.2923,2.263,2.2415,2.2335,2.2313,2.2313,2.2313,2.2313,2.2313,2.2313,2.2313,2.2313,2.2313,2.2313,3.4936,3.5444,3.4863,3.4608,3.4623,3.4593,3.4307,3.3709,3.3305,3.2871,3.2587,3.2004,3.1809,3.1511,3.1496,3.1496,3.1496,3.1496,3.1951,3.2562,3.3058,3.3119,3.2597,3.2489,3.2138,3.1681,3.141,3.1376,3.1393,3.1309,3.119,3.1072,3.0548,3.0294,3.0108,2.8872,2.8128,2.7891,2.7334,2.686,2.6708,2.6607,2.6384,2.6122,2.5926,2.5138,2.3877,2.282,2.246,2.2483,2.1923,2.1884,2.2178,2.2296,2.2282,2.218,2.1868,2.1522,2.1134,2.0781,2.0365,2.0383,2.0366,2.0451,2.083,2.1181,2.143,2.1445,2.1943,2.2135,2.2282,2.2313,2.2313,2.2313,2.2313,2.2313,2.2313,2.2313,2.2313,2.2313,2.2313,2.2313,2.2313,2.2313,2.2313,2.2352,2.2581,2.286,2.3105,2.3346,2.3357,2.3294,2.3369,2.3421,2.35,2.361,2.3876,2.4122,2.3764,2.3522,2.3294,2.2923,2.263,2.2426,2.2352,2.2313,2.2313,2.2313,2.2313,2.2313,2.2313,2.2313,2.2313,2.2313,2.2313,3.537,3.5489,3.534,3.528,3.5295,3.5295,3.519,3.5011,3.4876,3.4083,3.341,3.3095,3.2407,3.1496,3.1496,3.1496,3.1496,3.1524,3.1894,3.2625,3.3296,3.347,3.3243,3.318,3.3081,3.2747,3.231,3.2073,3.1955,3.1512,3.119,3.114,3.1021,3.0954,3.0751,2.9888,2.9279,2.8704,2.7908,2.713,2.6623,2.6298,2.6068,2.587,2.5524,2.4879,2.4145,2.3775,2.3608,2.3178,2.2399,2.2006,2.2363,2.2398,2.2367,2.2233,2.1886,2.1552,2.1321,2.0732,2.0282,2.0282,2.0299,2.0331,2.0449,2.0894,2.1118,2.1197,2.1507,2.1884,2.2194,2.2282,2.2313,2.2313,2.2313,2.2313,2.2313,2.2313,2.2313,2.2313,2.2313,2.2313,2.2313,2.2313,2.2324,2.2394,2.266,2.3009,2.3294,2.3595,2.3566,2.3488,2.3621,2.3714,2.3671,2.3774,2.3927,2.3986,2.3649,2.3323,2.3105,2.2878,2.2554,2.2402,2.2324,2.2313,2.2313,2.2313,2.2313,2.2313,2.2313,2.2313,2.2313,2.2313,2.2313,3.5489,3.5489,3.5489,3.5489,3.5489,3.5489,3.5489,3.5429,3.5145,3.4457,3.3589,3.32,3.2437,3.154,3.1496,3.1496,3.1496,3.1496,3.1894,3.2532,3.2997,3.3262,3.364,3.3766,3.3806,3.3423,3.3034,3.2679,3.2276,3.1938,3.1546,3.1207,3.1207,3.114,3.0987,3.0159,2.9216,2.8444,2.7522,2.6735,2.6364,2.589,2.5449,2.5202,2.4705,2.412,2.3475,2.3676,2.3636,2.3381,2.2965,2.2869,2.3135,2.2989,2.2729,2.2441,2.1927,2.1369,2.0975,2.0601,2.0282,2.0282,2.0282,2.0567,2.0716,2.1007,2.1086,2.1213,2.1353,2.1507,2.1913,2.2223,2.2282,2.2313,2.2313,2.2313,2.2313,2.2313,2.2313,2.2313,2.2313,2.2313,2.2313,2.2313,2.2415,2.249,2.2824,2.3177,2.3522,2.3764,2.3845,2.3865,2.4016,2.4056,2.3947,2.3937,2.3986,2.3847,2.3522,2.3189,2.2923,2.2691,2.2467,2.2377,2.2313,2.2313,2.2313,2.2313,2.2313,2.2313,2.2313,2.2313,2.2313,2.2313,2.2313,3.5489,3.5489,3.5489,3.5489,3.5489,3.5489,3.5489,3.5415,3.4891,3.4429,3.3619,3.2946,3.2437,3.178,3.154,3.1511,3.1496,3.1524,3.1853,3.2272,3.2586,3.2913,3.3377,3.3835,3.398,3.346,3.3524,3.3233,3.2886,3.2479,3.2121,3.1529,3.1393,3.1343,3.0937,2.9827,2.8865,2.8213,2.7129,2.6282,2.6076,2.5651,2.5243,2.4575,2.4234,2.3706,2.3334,2.342,2.3556,2.3344,2.3894,2.4365,2.4438,2.4003,2.3441,2.2988,2.2403,2.1698,2.1065,2.0565,2.036,2.0256,2.0265,2.0601,2.1055,2.1102,2.1086,2.107,2.1102,2.1102,2.1536,2.1882,2.218,2.2282,2.2313,2.2313,2.2313,2.2313,2.2313,2.2313,2.2313,2.2313,2.2313,2.231,2.2467,2.2639,2.2977,2.33,2.3617,2.3907,2.3976,2.4034,2.4151,2.418,2.4084,2.4026,2.4066,2.3774,2.3414,2.3105,2.2815,2.2567,2.2388,2.2349,2.2313,2.2313,2.2313,2.2313,2.2313,2.2313,2.2313,2.2313,2.2313,2.2313,2.2268,3.5489,3.5489,3.5489,3.5489,3.5489,3.5489,3.5489,3.5489,3.5355,3.4936,3.4279,3.3604,3.2916,3.2303,3.169,3.1511,3.1496,3.1524,3.1582,3.1866,3.2216,3.2652,3.2826,3.3316,3.3562,3.3763,3.3819,3.3852,3.3748,3.3525,3.2519,3.2154,3.1989,3.1732,3.0897,2.9928,2.8837,2.8066,2.7126,2.6405,2.6113,2.5956,2.5482,2.4674,2.4372,2.3999,2.3679,2.3912,2.4217,2.4268,2.5128,2.5549,2.5445,2.4774,2.4363,2.3925,2.3178,2.2293,2.1673,2.0965,2.0406,2.0056,2.0072,2.028,2.0583,2.0764,2.0764,2.06,2.0584,2.0732,2.1521,2.1718,2.1928,2.2149,2.2313,2.2313,2.2313,2.2313,2.2313,2.2313,2.2313,2.2313,2.2313,2.2324,2.2429,2.259,2.2865,2.3105,2.3357,2.3753,2.4064,2.4132,2.4189,2.4208,2.417,2.4123,2.4075,2.3714,2.3369,2.3063,2.2768,2.249,2.2335,2.231,2.2313,2.2313,2.2313,2.2313,2.2313,2.2313,2.2313,2.2313,2.2313,2.2299,2.2137,3.5489,3.5489,3.5489,3.5489,3.5489,3.5489,3.5489,3.5489,3.5489,3.5115,3.4442,3.3784,3.3125,3.2437,3.1795,3.1511,3.1496,3.1496,3.1496,3.1596,3.1881,3.2035,3.2041,3.246,3.2536,3.2619,3.286,3.3183,3.3317,3.2639,3.2186,3.1847,3.1715,3.1392,3.0694,2.9752,2.8771,2.7877,2.6867,2.6282,2.6194,2.6278,2.5706,2.4919,2.456,2.4246,2.3917,2.443,2.4449,2.4328,2.5444,2.5838,2.5678,2.5581,2.5358,2.4712,2.3638,2.27,2.2032,2.1126,2.0342,2.0093,2.0037,2.0106,2.0227,2.0313,2.0277,2.0139,2.0278,2.0566,2.1213,2.1446,2.1825,2.218,2.2282,2.2282,2.2313,2.2313,2.2313,2.2313,2.2313,2.2313,2.2313,2.2338,2.2374,2.2554,2.2776,2.296,2.3141,2.3522,2.3927,2.4036,2.4084,2.4208,2.4208,2.418,2.4036,2.3671,2.3398,2.3087,2.2734,2.245,2.2349,2.231,2.2313,2.2313,2.2313,2.2313,2.2313,2.2313,2.2313,2.2313,2.2313,2.2254,2.2123,3.5489,3.5489,3.5489,3.5489,3.5489,3.5489,3.5489,3.5489,3.5489,3.5115,3.4474,3.3799,3.314,3.2452,3.1869,3.1496,3.1496,3.1496,3.1496,3.1496,3.1553,3.1495,3.1321,3.1323,3.1362,3.1191,3.098,3.1446,3.2177,3.1866,3.1411,3.1162,3.1065,3.0721,3.0089,2.9176,2.8321,2.7428,2.6335,2.5951,2.626,2.6346,2.5824,2.4732,2.459,2.4276,2.3777,2.4246,2.4353,2.4386,2.5151,2.5995,2.5543,2.6168,2.6253,2.5296,2.3934,2.3063,2.2311,2.1244,2.0537,2.026,1.9909,1.9945,2.0,1.9945,1.978,1.978,1.9947,2.0314,2.0781,2.1102,2.1553,2.1988,2.212,2.2178,2.2268,2.2313,2.2313,2.2313,2.2313,2.2313,2.2313,2.231,2.2349,2.2436,2.2652,2.2797,2.2996,2.3282,2.3621,2.3806,2.3947,2.4151,2.419,2.419,2.3978,2.3621,2.3444,2.3248,2.2819,2.2436,2.2388,2.2352,2.2313,2.2313,2.2313,2.2313,2.2313,2.2313,2.2313,2.2313,2.2313,2.2268,2.2166,3.5489,3.5489,3.5489,3.5489,3.5489,3.5489,3.5489,3.5489,3.5459,3.5115,3.4459,3.3739,3.308,3.2407,3.1795,3.1525,3.1496,3.1496,3.1496,3.1496,3.1481,3.1197,3.0688,3.0625,3.0347,2.9962,2.9364,3.0111,3.0951,3.1236,3.1119,3.0658,3.0482,3.0248,2.9581,2.8748,2.7679,2.7417,2.676,2.6375,2.6384,2.6415,2.5802,2.4927,2.459,2.4365,2.3851,2.4101,2.4087,2.4369,2.4958,2.5566,2.588,2.6369,2.6624,2.6185,2.5346,2.4296,2.3555,2.206,2.0945,2.0551,2.0045,1.9815,1.9821,1.9803,1.9708,1.9723,1.9782,2.0002,2.0348,2.0451,2.0894,2.1384,2.1749,2.1974,2.2152,2.2313,2.2313,2.2313,2.2313,2.2313,2.2313,2.231,2.2324,2.2426,2.251,2.2647,2.2848,2.3129,2.3471,2.3692,2.3937,2.4151,2.4199,2.4199,2.3986,2.361,2.35,2.3364,2.2908,2.2527,2.2436,2.2415,2.2349,2.2313,2.2313,2.2313,2.2313,2.2313,2.2313,2.2313,2.2313,2.2254,2.2194,3.5489,3.5489,3.5489,3.5489,3.5489,3.5489,3.5489,3.5415,3.5085,3.4803,3.4324,3.335,3.2572,3.1974,3.1585,3.1511,3.1496,3.1496,3.1496,3.1496,3.1451,3.1122,3.0567,3.0133,2.9639,2.9011,2.8453,2.8364,2.9323,2.9783,2.9738,2.9927,2.9854,2.9778,2.9355,2.8856,2.8661,2.8521,2.8207,2.7516,2.6834,2.6669,2.6244,2.4717,2.4872,2.4615,2.4342,2.4716,2.4579,2.4742,2.5306,2.5766,2.5758,2.6151,2.6691,2.6607,2.5799,2.5146,2.4646,2.2704,2.1663,2.1139,2.0596,2.0072,2.0,1.9839,1.9839,2.0035,1.9836,1.9909,2.0177,2.0297,2.0666,2.1055,2.1352,2.1643,2.193,2.2194,2.2313,2.2313,2.2313,2.2313,2.2313,2.2296,2.231,2.2349,2.2402,2.2467,2.2682,2.2965,2.3311,2.3671,2.3927,2.419,2.4199,2.419,2.4016,2.3735,2.366,2.3421,2.2923,2.2639,2.2541,2.2412,2.2324,2.2282,2.2313,2.2313,2.2313,2.2313,2.2313,2.2313,2.2313,2.2313,2.2254,3.5489,3.5489,3.5325,3.525,3.525,3.5265,3.5355,3.5415,3.4801,3.4429,3.3934,3.2886,3.1959,3.16,3.1511,3.1496,3.1496,3.1496,3.1496,3.1496,3.1391,3.0987,3.0342,2.9756,2.9202,2.8353,2.7959,2.7836,2.7861,2.8143,2.8659,2.895,2.8897,2.902,2.9127,2.9009,2.893,2.8854,2.8854,2.7873,2.662,2.6773,2.6,2.5234,2.4964,2.5134,2.4826,2.5202,2.5107,2.5216,2.5418,2.5712,2.5764,2.6068,2.6488,2.6437,2.5932,2.5696,2.4992,2.3651,2.2293,2.1633,2.1159,2.0365,2.007,1.9892,1.9836,2.0054,1.9874,1.9892,2.0052,2.0124,2.0365,2.0682,2.1007,2.129,2.1598,2.1884,2.218,2.2313,2.2313,2.2313,2.2313,2.2313,2.2313,2.2313,2.2313,2.2313,2.2535,2.2819,2.3135,2.3511,2.3917,2.4161,2.418,2.4141,2.3947,2.3816,2.3742,2.3444,2.291,2.2673,2.259,2.245,2.2237,2.224,2.2225,2.2268,2.2313,2.2313,2.2313,2.2313,2.2313,2.2313,2.2313,3.5489,3.5459,3.4816,3.4638,3.4653,3.4578,3.4921,3.5355,3.4788,3.4113,3.3425,3.2243,3.1615,3.1511,3.1496,3.1496,3.1496,3.1496,3.1496,3.1496,3.1391,3.0746,3.0043,2.9472,2.8933,2.7929,2.7615,2.76,2.7585,2.7685,2.777,2.772,2.8027,2.8198,2.8614,2.9088,2.9083,2.9021,2.8974,2.7865,2.6583,2.6199,2.5841,2.4947,2.4926,2.5176,2.5163,2.5411,2.5621,2.5712,2.559,2.5831,2.6169,2.6101,2.6302,2.6437,2.6167,2.5998,2.5561,2.4092,2.253,2.1754,2.1135,2.0532,2.0156,2.0176,2.0089,1.9874,1.98,1.9744,1.9797,1.98,2.0052,2.0278,2.0601,2.0878,2.1212,2.1598,2.1884,2.218,2.2313,2.2313,2.2313,2.2313,2.2313,2.2313,2.2313,2.2313,2.2457,2.2721,2.3007,2.3364,2.3855,2.4084,2.4141,2.4064,2.3976,2.3795,2.366,2.33,2.2835,2.2686,2.2476,2.2195,2.1945,2.2049,2.2092,2.1976,2.1976,2.2211,2.2313,2.2313,2.2313,2.2313,2.2313,3.5265,3.4861,3.4608,3.4758,3.5085,3.4651,3.4668,3.4816,3.4608,3.3858,3.2856,3.1929,3.1496,3.1496,3.1496,3.1496,3.1496,3.1496,3.1496,3.1316,3.1002,3.0387,2.9714,2.9116,2.8472,2.7764,2.76,2.7585,2.7585,2.766,2.76,2.7585,2.7615,2.828,2.885,2.9629,2.9936,2.9951,2.984,2.9046,2.7603,2.7158,2.6629,2.5068,2.5411,2.5652,2.5726,2.5998,2.6228,2.6266,2.6033,2.6269,2.6522,2.6285,2.637,2.6657,2.6336,2.6234,2.5795,2.4269,2.2744,2.1687,2.1007,2.0533,2.0347,2.0243,2.0104,1.9929,1.9874,1.9818,1.9726,1.9726,1.9818,1.9947,2.016,2.0467,2.083,2.1244,2.1613,2.1913,2.2166,2.2313,2.2313,2.2313,2.2313,2.2313,2.2313,2.2338,2.2453,2.2607,2.287,2.3111,2.3573,2.3732,2.3764,2.3855,2.3947,2.3735,2.3522,2.3159,2.2721,2.2398,2.2183,2.1876,2.1598,2.1569,2.1524,2.1493,2.1661,2.202,2.2225,2.2313,2.2313,2.2313,2.2313,3.522,3.4786,3.4593,3.4756,3.5115,3.4698,3.4503,3.4503,3.4503,3.3724,3.2482,3.1809,3.1496,3.1496,3.1496,3.1496,3.1496,3.1496,3.1496,3.1361,3.1047,3.0342,2.9669,2.9112,2.8577,2.7869,2.7854,2.7919,2.7974,2.7914,2.7959,2.7914,2.7765,2.8334,2.9384,3.0518,3.1106,3.092,3.0458,2.971,2.7984,2.7613,2.7132,2.5663,2.5926,2.6157,2.6262,2.6436,2.6573,2.6539,2.6421,2.6455,2.6522,2.6539,2.6522,2.6607,2.664,2.642,2.571,2.4343,2.3013,2.209,2.1481,2.1119,2.0829,2.0531,2.0615,2.0449,2.0244,2.0032,1.9945,1.9927,1.9818,1.9929,1.9927,2.0176,2.055,2.0959,2.1306,2.1658,2.1943,2.2335,2.2531,2.2558,2.2484,2.248,2.2463,2.2412,2.236,2.2514,2.2712,2.2965,2.3259,2.3288,2.3288,2.3477,2.3577,2.33,2.3081,2.2965,2.2621,2.2279,2.1969,2.1729,2.1445,2.1102,2.1007,2.1071,2.1446,2.1899,2.2077,2.2254,2.2313,2.2313,2.2313,3.5429,3.54,3.4726,3.4518,3.4593,3.4518,3.4503,3.4459,3.4307,3.3664,3.2572,3.1854,3.1496,3.1496,3.1496,3.1496,3.1496,3.1496,3.1496,3.1436,3.1182,3.0597,2.9963,2.9345,2.8824,2.8045,2.8196,2.8538,2.8487,2.8397,2.8442,2.8317,2.8072,2.8352,2.9451,3.0597,3.0796,3.0192,2.9634,2.8785,2.7913,2.7474,2.6881,2.6475,2.6383,2.6556,2.659,2.6624,2.6708,2.664,2.6234,2.6285,2.6607,2.6184,2.6218,2.664,2.6691,2.6657,2.6488,2.456,2.3483,2.282,2.2301,2.1829,2.1341,2.1182,2.115,2.0829,2.078,2.0632,2.0482,2.0244,2.0035,1.9909,1.9927,1.9997,2.0364,2.078,2.1181,2.1582,2.2015,2.2385,2.2678,2.284,2.2734,2.2669,2.2652,2.2563,2.2422,2.2412,2.2577,2.273,2.2945,2.297,2.3019,2.3153,2.3165,2.2885,2.2738,2.2704,2.2523,2.2209,2.1909,2.1612,2.1337,2.1023,2.0845,2.0699,2.107,2.1445,2.1959,2.218,2.2254,2.2313,2.2313,3.4173,3.4188,3.4414,3.4503,3.4503,3.4503,3.4503,3.4339,3.3619,3.3155,3.2946,3.2019,3.1496,3.1496,3.1496,3.1496,3.1496,3.1496,3.1496,3.1421,3.1122,3.0372,2.9808,2.9474,2.9097,2.8671,2.8869,2.894,2.8562,2.867,2.8289,2.8021,2.8561,2.8989,2.9629,3.0481,3.1004,3.0852,3.0548,3.0049,2.9091,2.8461,2.7822,2.7173,2.6876,2.6725,2.6691,2.6674,2.6657,2.6708,2.6285,2.6437,2.6674,2.6285,2.642,2.6674,2.6708,2.6708,2.6488,2.544,2.4615,2.3918,2.3061,2.2473,2.2179,2.1439,2.1215,2.1103,2.1134,2.0975,2.0797,2.0433,2.021,2.0089,2.0072,2.0052,2.0296,2.0747,2.1182,2.1583,2.2001,2.2364,2.2673,2.3045,2.3038,2.2958,2.2928,2.2751,2.2586,2.2398,2.2398,2.249,2.262,2.266,2.2721,2.2883,2.2857,2.262,2.2577,2.2612,2.2405,2.2147,2.1868,2.1612,2.1291,2.0991,2.0862,2.0764,2.0682,2.0959,2.1446,2.1959,2.2166,2.224,2.2313,3.3499,3.3559,3.3979,3.4309,3.4533,3.4726,3.4743,3.4309,3.3125,3.2781,3.2841,3.1959,3.1496,3.1496,3.1496,3.1496,3.1496,3.1496,3.1227,3.1197,3.1017,3.0358,2.9826,2.9582,2.9526,2.9297,2.9356,2.9387,2.973,2.9159,2.8627,2.8461,2.9088,2.9585,3.0064,3.0642,3.1173,3.1004,3.0751,3.0395,2.98,2.9279,2.8518,2.7787,2.7246,2.6807,2.6708,2.6607,2.6522,2.6624,2.6674,2.6691,2.6691,2.6708,2.6708,2.6708,2.6708,2.6708,2.6505,2.6353,2.5643,2.5305,2.3858,2.3031,2.2784,2.2085,2.1715,2.154,2.1448,2.1307,2.115,2.0781,2.0681,2.0581,2.0446,2.0444,2.0532,2.0991,2.1291,2.169,2.2001,2.2347,2.2686,2.3111,2.3387,2.3288,2.32,2.2996,2.2784,2.259,2.2429,2.2467,2.25,2.2567,2.2594,2.2594,2.2535,2.2338,2.2402,2.2517,2.2409,2.218,2.1899,2.1642,2.1445,2.1244,2.1023,2.0862,2.0699,2.0667,2.0878,2.1415,2.1945,2.2152,2.224,3.3425,3.344,3.3455,3.3845,3.4427,3.4996,3.5011,3.4414,3.3125,3.2587,3.2467,3.1839,3.1511,3.1496,3.1496,3.1496,3.1421,3.1421,3.1251,3.0923,3.0953,3.0399,3.0072,2.9843,3.0002,3.0115,3.0196,3.0456,3.1134,2.993,2.9016,2.8897,2.9607,3.0016,3.0393,3.076,3.1151,3.1055,3.0801,3.0473,3.0073,2.9419,2.8585,2.7818,2.7166,2.6703,2.6442,2.6158,2.6279,2.6435,2.6624,2.6657,2.6674,2.6708,2.6708,2.6708,2.6708,2.6708,2.6691,2.6556,2.6455,2.5916,2.4553,2.3757,2.3323,2.2921,2.2388,2.2249,2.2197,2.188,2.16,2.151,2.142,2.1247,2.1054,2.1038,2.1039,2.1275,2.1506,2.1809,2.2092,2.2412,2.2712,2.3105,2.3432,2.3533,2.3426,2.3311,2.3093,2.2873,2.2708,2.2571,2.2577,2.255,2.2537,2.2531,2.2429,2.2313,2.2313,2.2377,2.2282,2.2237,2.2061,2.1868,2.1718,2.1506,2.1275,2.0959,2.0633,2.0617,2.0617,2.0927,2.1524,2.1945,2.2106,3.2064,3.2123,3.2572,3.2916,3.3215,3.4307,3.4683,3.4384,3.3544,3.2991,3.2452,3.1795,3.1466,3.1496,3.1496,3.1481,3.1301,3.1192,3.1528,3.1329,3.0752,3.068,3.0685,3.0746,3.0743,3.0807,3.0978,3.1042,3.0646,2.9816,2.949,2.9325,2.9995,3.0272,3.0559,3.0898,3.1075,3.114,3.0886,3.0606,3.0169,2.9573,2.8649,2.7758,2.6902,2.6422,2.5891,2.5631,2.5762,2.6138,2.6209,2.6297,2.6691,2.6708,2.6708,2.6708,2.6708,2.6708,2.6708,2.6708,2.6607,2.6216,2.5046,2.4895,2.4524,2.3956,2.3132,2.2954,2.2952,2.2718,2.2435,2.2297,2.2104,2.1849,2.171,2.1695,2.1644,2.1553,2.1794,2.1988,2.2268,2.2374,2.2678,2.2972,2.3277,2.3544,2.366,2.3544,2.3432,2.3218,2.2972,2.2819,2.2717,2.2699,2.2563,2.25,2.2402,2.2313,2.2313,2.2313,2.2282,2.2268,2.2209,2.212,2.1988,2.1779,2.1506,2.1149,2.0732,2.0451,2.0417,2.0715,2.1055,2.1522,2.1884,3.1496,3.1555,3.1914,3.2243,3.2677,3.3649,3.3963,3.3709,3.3544,3.3021,3.2093,3.1376,3.1256,3.1421,3.1212,3.1047,3.1017,3.0775,3.0794,3.0523,3.0376,3.0544,3.0879,3.113,3.1131,3.1261,3.1347,3.1232,3.0832,3.043,3.0081,2.9821,3.0351,3.0597,3.0797,3.1035,3.1151,3.119,3.1078,3.0818,3.0319,2.9794,2.8909,2.7742,2.6819,2.6068,2.5611,2.5422,2.5503,2.5961,2.6086,2.6384,2.6691,2.6708,2.6708,2.6708,2.6708,2.6708,2.6708,2.6708,2.6539,2.6214,2.5655,2.5646,2.5196,2.4579,2.3962,2.3575,2.3663,2.3639,2.3351,2.303,2.273,2.2417,2.2392,2.2351,2.2162,2.1936,2.2032,2.224,2.2338,2.2374,2.2581,2.2857,2.3105,2.3369,2.3649,2.3785,2.3692,2.3584,2.3311,2.3069,2.296,2.2885,2.2712,2.2577,2.2453,2.2363,2.2313,2.2313,2.2313,2.2282,2.2268,2.2268,2.2268,2.2049,2.1825,2.1307,2.0878,2.06,2.0263,2.026,2.0615,2.1228,2.1491,3.1496,3.1496,3.1496,3.1869,3.2452,3.3125,3.3051,3.2557,3.308,3.2706,3.157,3.0883,3.1017,3.1361,3.1077,3.0776,3.0642,3.043,3.0346,2.9667,2.9826,3.0227,3.0742,3.0563,3.1112,3.1437,3.1524,3.1424,3.1759,3.1291,3.0658,3.0414,3.0838,3.1055,3.1075,3.1114,3.1106,3.0903,3.0977,3.0878,3.0323,2.9981,2.9571,2.8221,2.7156,2.6303,2.605,2.5757,2.543,2.5944,2.6314,2.6573,2.6674,2.6708,2.6708,2.6708,2.6708,2.6708,2.6708,2.6708,2.6624,2.6436,2.6279,2.6129,2.5645,2.5162,2.4614,2.4328,2.4371,2.4168,2.3859,2.4038,2.3934,2.3531,2.3318,2.3055,2.2666,2.2372,2.2166,2.2313,2.231,2.2363,2.2412,2.2669,2.2885,2.3183,2.3414,2.3703,2.3735,2.3671,2.3588,2.3305,2.3259,2.3171,2.3014,2.2832,2.2567,2.2457,2.2419,2.2405,2.2453,2.2388,2.2313,2.2313,2.2313,2.2313,2.2094,2.1508,2.1023,2.0812,2.043,1.9889,2.0172,2.0862,2.1213,3.1496,3.1496,3.1496,3.16,3.1824,3.2467,3.2348,3.1809,3.2437,3.2273,3.1555,3.1331,3.1256,3.1227,3.1122,3.0821,3.0372,3.019,3.0386,3.0076,2.9852,3.0369,3.1311,3.1153,3.1328,3.1472,3.1564,3.15,3.1412,3.1249,3.1171,3.0995,3.119,3.119,3.119,3.119,3.1021,3.0717,3.0929,3.0662,2.9919,2.9435,2.89,2.7838,2.6842,2.6471,2.6142,2.5721,2.567,2.5943,2.605,2.6332,2.6674,2.6708,2.6708,2.6708,2.6708,2.6708,2.6708,2.6691,2.659,2.6332,2.6138,2.612,2.5936,2.5601,2.534,2.5163,2.4962,2.471,2.4593,2.4938,2.5,2.4543,2.4085,2.3579,2.3088,2.2716,2.2347,2.2313,2.2313,2.2324,2.2332,2.2477,2.2686,2.291,2.3141,2.3346,2.3392,2.3392,2.3671,2.3533,2.3577,2.3488,2.3329,2.3075,2.2824,2.2678,2.2639,2.2625,2.259,2.244,2.2313,2.2313,2.2313,2.2313,2.2109,2.1524,2.1118,2.0926,2.0598,2.0067,2.0067,2.0632,2.091,3.0836,3.1062,3.1376,3.1496,3.157,3.1914,3.1839,3.1615,3.1899,3.1854,3.1406,3.0957,3.0687,3.0687,3.0672,3.0387,2.9873,2.9974,3.0039,2.999,3.0106,3.0554,3.1083,3.1495,3.1342,3.1374,3.1526,3.1435,3.1026,3.1131,3.119,3.119,3.119,3.119,3.119,3.1157,3.1004,3.0666,3.1021,3.0575,2.9735,2.9347,2.8814,2.7843,2.7227,2.6919,2.6909,2.6521,2.633,2.6345,2.6425,2.6435,2.6657,2.6708,2.6708,2.6708,2.6708,2.6708,2.6708,2.6657,2.6573,2.6349,2.6297,2.6401,2.6419,2.615,2.6133,2.5966,2.5983,2.5764,2.5562,2.5728,2.5135,2.4609,2.3951,2.3359,2.2902,2.2496,2.2313,2.2313,2.2254,2.2135,2.2192,2.2262,2.2443,2.2481,2.2724,2.3069,2.3105,2.3099,2.3398,2.3595,2.3533,2.3639,2.3555,2.3311,2.3038,2.2947,2.2843,2.2652,2.249,2.2405,2.2313,2.2313,2.2313,2.2313,2.2005,2.1569,2.1229,2.1023,2.0664,2.026,2.0379,2.0515,2.0894,2.9983,3.0567,3.1107,3.1436,3.1481,3.1391,3.1421,3.1496,3.1406,3.1376,3.1212,3.0253,2.9759,2.9699,2.9669,2.916,2.9181,2.9964,3.0031,2.987,3.0087,3.0597,3.0962,3.1219,3.1205,3.1205,3.1272,3.1036,3.0658,3.0958,3.119,3.119,3.119,3.119,3.119,3.1173,3.1055,3.0886,3.0912,3.0717,3.0168,2.965,2.916,2.8509,2.7895,2.7824,2.7969,2.7643,2.716,2.6907,2.6703,2.6674,2.6657,2.6708,2.6708,2.6708,2.6708,2.6708,2.6708,2.6708,2.6691,2.6657,2.6708,2.6691,2.6674,2.6657,2.6624,2.664,2.6657,2.6505,2.6285,2.6083,2.5406,2.4558,2.3833,2.3156,2.2716,2.2344,2.2313,2.2313,2.2209,2.2092,2.2017,2.2106,2.2127,2.2158,2.233,2.2695,2.2915,2.2883,2.2982,2.3135,2.3171,2.3323,2.3544,2.3511,2.323,2.3009,2.2843,2.2603,2.2415,2.2352,2.2313,2.2313,2.2313,2.2313,2.2152,2.1794,2.1477,2.115,2.0861,2.0581,2.0598,2.078,2.1118,2.9966,3.0522,3.0629,3.1002,3.1376,3.0928,3.0987,3.1346,3.0898,3.0702,3.0672,3.0567,3.0328,3.0298,3.0328,2.9714,2.8767,2.9874,2.9955,2.9614,3.0156,3.0679,3.1035,3.119,3.119,3.1171,3.1151,3.1112,3.074,3.0978,3.119,3.119,3.119,3.119,3.119,3.114,3.1004,3.0869,3.0852,3.0754,2.9945,2.9705,2.9989,2.9341,2.85,2.8486,2.83,2.7446,2.6976,2.6758,2.6742,2.6708,2.6708,2.6708,2.6708,2.6708,2.6708,2.6708,2.6708,2.6708,2.6708,2.6708,2.6708,2.6708,2.6691,2.6691,2.6674,2.6674,2.6607,2.637,2.6218,2.6353,2.5879,2.466,2.3714,2.3054,2.2499,2.2364,2.2313,2.2313,2.2268,2.2017,2.1749,2.1809,2.1855,2.1893,2.189,2.2231,2.2571,2.2584,2.2655,2.2738,2.2862,2.3009,2.3242,2.3544,2.338,2.3112,2.2835,2.2567,2.2388,2.2338,2.2313,2.2313,2.2313,2.2313,2.2106,2.1972,2.1703,2.1399,2.115,2.0926,2.0894,2.0991,2.1275]}]]